GFSGBSN_925_spd_000.txt.gz
Wind_Speed
29 29 21 21 22 20 23 21 20 20 18 18 15 14 13 11 10 8 6 4 2 1 1 1 3 3 6 3 6 1 6 7 6 13 16 6 4 3 4 4 4 9 7 10 10 14 14
28 28 31 28 23 23 21 22 22 21 19 18 17 16 14 12 11 9 7 5 5 4 3 1 2 5 2 6 7 10 10 3 4 6 8 10 6 6 5 6 8 5 6 11 9 12 8
27 30 30 33 31 23 23 22 22 22 21 19 19 17 17 13 13 11 8 5 5 5 5 3 2 4 3 11 6 4 2 12 10 9 4 13 17 2 1 4 4 6 11 10 8 5 10
27 28 28 30 33 32 23 24 25 23 22 20 20 19 20 15 14 13 10 8 6 7 7 6 3 4 6 7 6 16 12 4 6 10 8 9 9 9 4 5 6 4 4 8 4 8 5
29 29 29 30 31 31 31 25 25 26 24 23 21 20 20 16 15 14 11 8 6 7 6 6 4 3 7 3 5 14 12 5 2 2 8 11 5 3 2 2 5 4 6 6 5 5 5
31 31 32 31 30 31 31 28 27 27 26 24 23 21 20 17 15 14 11 7 4 7 5 4 1 2 5 4 5 3 12 10 3 3 4 2 1 2 2 5 14 12 7 9 9 3 8
31 32 31 32 31 33 33 32 32 27 28 25 23 22 22 19 17 16 14 8 3 1 6 8 7 3 2 4 5 3 10 7 3 3 5 2 4 11 11 9 5 7 9 12 4 4 10
32 31 32 33 33 34 34 32 34 32 29 27 25 24 23 21 19 19 17 4 4 4 3 14 12 11 8 3 3 3 13 6 6 9 4 3 11 8 7 8 10 11 16 15 9 9 8
33 32 31 34 33 35 36 30 32 33 26 27 26 25 25 23 20 19 19 10 7 2 2 5 7 7 6 10 6 6 11 6 8 14 14 13 6 15 12 11 11 14 17 10 9 14 18
34 34 32 35 35 35 34 32 34 29 22 25 25 27 28 24 15 15 12 16 9 2 3 4 4 4 6 5 5 18 19 7 5 16 13 13 16 15 11 14 10 18 7 13 13 6 7
35 36 34 36 35 33 32 32 32 25 30 18 25 29 32 35 13 14 10 20 14 2 3 4 4 2 4 9 5 4 19 7 14 8 7 8 8 15 20 18 15 11 9 11 10 10 7
35 37 34 35 34 35 32 31 39 28 24 26 19 33 37 24 13 13 15 23 10 3 8 5 4 4 6 7 3 3 9 7 1 14 14 8 1 5 7 11 17 4 9 8 6 4 11
36 37 34 34 34 36 31 33 45 26 25 25 26 39 42 32 11 24 31 10 3 5 2 6 4 5 5 7 8 7 6 9 5 7 7 6 18 5 3 3 5 12 7 3 6 6 8
35 37 34 35 36 37 33 37 44 24 23 23 28 48 37 25 30 35 18 2 6 5 5 4 4 7 6 7 6 9 5 10 14 6 2 8 4 15 11 17 5 13 15 6 6 4 5
35 36 35 35 36 36 36 42 41 21 21 27 28 35 29 23 37 35 7 4 6 6 6 9 7 6 8 6 5 9 9 9 10 13 9 6 6 2 2 4 14 5 12 20 7 5 3
34 33 34 35 36 37 38 47 32 13 20 26 29 19 21 30 41 19 6 6 5 3 6 4 8 8 8 9 8 8 9 8 8 18 12 5 3 7 6 7 12 10 7 7 7 5 5
34 33 34 35 36 38 39 45 26 17 19 17 8 6 20 37 28 8 7 6 4 4 6 6 7 8 7 6 8 7 5 4 12 10 18 5 5 1 2 9 11 9 11 6 8 8 3
33 34 34 35 36 37 38 40 33 24 27 24 6 5 35 37 7 5 5 5 5 4 3 3 5 9 7 9 7 5 8 7 11 9 11 11 4 5 13 3 10 17 16 15 8 12 10
31 32 33 34 35 37 39 38 33 30 36 10 7 4 33 23 6 9 3 7 4 5 6 7 11 10 9 6 4 11 6 9 9 8 10 10 4 3 4 6 9 12 19 19 21 4 5
30 30 32 34 36 37 39 41 38 35 32 15 3 5 5 6 1 10 13 8 7 7 10 6 5 10 5 6 8 3 8 5 8 10 14 14 4 6 7 1 2 11 21 18 15 12 9
29 28 30 33 34 35 40 40 40 37 32 8 2 3 5 9 7 12 10 4 12 7 5 9 4 11 7 4 6 8 7 4 4 10 8 6 6 7 18 17 14 12 20 21 19 9 12
30 27 29 30 31 32 37 39 36 32 22 1 3 3 3 9 11 9 14 10 12 8 6 6 8 8 13 10 6 0 6 4 5 12 8 3 3 4 13 12 16 8 23 15 12 7 7
30 27 28 30 30 31 36 37 35 28 23 5 3 2 4 11 11 8 6 8 8 3 8 9 12 8 10 16 13 6 6 4 2 4 5 7 2 3 4 7 13 6 19 13 5 8 14
31 27 28 28 28 30 33 35 31 24 21 15 8 1 3 6 9 10 9 12 13 12 9 6 12 8 0 5 2 5 6 4 3 8 9 5 4 4 2 4 3 1 17 22 24 21 21
30 29 27 26 27 28 31 32 30 25 24 26 9 2 2 3 5 5 4 1 3 2 8 11 8 7 4 3 3 2 3 3 2 5 7 6 3 4 2 2 3 3 5 8 10 9 5
29 28 27 26 27 27 31 31 29 25 25 24 11 2 3 3 5 3 5 4 3 2 2 3 1 1 6 5 3 4 4 4 2 3 5 6 3 1 4 3 2 2 2 2 1 3 5
28 27 24 24 25 25 27 29 28 25 22 26 6 7 4 2 2 4 3 3 3 2 2 2 2 3 4 6 3 3 3 2 4 5 4 2 1 3 1 2 6 5 2 1 4 5 3
27 26 25 24 25 25 26 29 27 27 24 21 11 10 3 2 1 3 4 4 2 2 2 1 2 1 3 3 2 3 4 5 2 3 4 5 4 3 3 1 5 1 2 1 3 2 3
26 25 23 24 25 26 27 29 29 28 25 21 4 9 8 2 1 2 4 6 5 5 3 3 2 3 4 3 3 3 2 2 3 3 2 3 5 5 7 5 2 1 0 2 1 4 4

GFSGBSN_925_spd_003.txt.gz
Wind_Speed
25 26 27 27 27 29 26 23 23 22 20 20 20 18 15 15 14 13 11 9 7 4 2 4 5 6 7 3 7 2 3 4 8 15 12 4 2 1 3 3 4 5 2 5 6 10 12
26 27 27 28 28 29 28 29 23 23 22 20 20 21 16 17 15 14 12 10 8 6 3 3 5 7 2 5 6 12 5 3 6 8 7 9 4 4 4 4 3 5 6 6 7 11 5
27 26 27 27 29 30 28 30 32 22 23 22 22 22 19 18 17 15 12 10 8 7 5 3 3 4 1 10 4 6 2 6 7 4 4 8 7 2 3 4 3 4 7 8 6 4 6
27 28 28 28 28 30 28 31 32 25 23 23 23 23 23 19 18 15 13 11 9 8 8 5 3 3 6 5 5 16 13 4 9 10 7 4 4 5 4 5 5 3 3 5 4 7 6
29 30 29 29 30 30 30 30 32 29 26 24 25 25 24 22 19 17 14 11 7 6 6 5 2 1 8 4 4 13 13 6 5 6 5 4 1 3 1 3 5 6 8 5 5 7 5
30 30 31 31 31 31 31 31 32 31 29 27 25 26 26 23 20 17 14 10 6 6 5 4 2 2 5 3 4 3 10 11 3 4 3 3 3 3 4 7 11 4 5 4 6 2 5
29 31 30 31 31 33 33 31 33 31 29 32 24 25 26 26 23 19 18 11 4 1 7 7 6 3 1 3 4 3 7 10 4 4 5 2 5 10 14 8 7 6 10 12 5 6 6
29 31 31 32 33 34 34 32 32 32 31 32 30 25 24 27 24 24 25 5 4 3 4 14 9 11 5 2 2 3 13 6 5 5 5 1 12 8 7 6 9 11 15 14 11 10 10
29 30 31 33 33 34 33 32 32 30 30 29 30 24 23 30 27 26 24 13 6 3 1 6 7 9 5 8 5 7 10 5 4 6 8 10 5 10 7 8 10 10 11 14 15 7 15
29 29 32 31 32 32 32 33 31 28 28 35 29 28 24 33 24 22 14 20 7 2 2 5 5 5 6 5 7 13 15 6 3 11 6 11 12 12 5 13 9 16 7 11 12 6 10
30 31 32 33 32 30 32 34 32 28 28 33 26 28 26 43 25 12 12 23 13 4 2 3 3 1 8 11 3 5 14 3 8 7 5 6 5 10 19 15 11 8 6 9 8 7 7
32 32 33 35 31 32 30 33 35 29 32 37 22 24 27 29 23 21 25 28 10 3 7 5 4 5 9 6 2 3 6 4 2 9 11 8 3 6 6 10 14 1 6 11 4 6 13
32 32 31 33 31 31 31 32 36 36 40 31 18 23 19 37 15 34 38 13 5 5 1 6 6 6 10 6 5 5 10 10 7 6 8 8 15 2 3 4 5 9 5 3 7 8 8
32 31 28 32 32 31 33 35 38 40 39 20 16 18 21 24 36 43 29 3 4 4 5 2 5 5 7 7 5 8 9 10 14 3 3 7 5 17 9 8 6 11 13 6 5 4 5
32 31 29 31 33 33 36 37 42 45 32 14 12 10 14 29 45 41 12 2 7 6 6 8 7 5 7 7 3 8 12 15 8 17 8 4 6 2 3 16 10 5 10 20 12 13 5
31 31 30 31 31 32 34 34 42 35 15 14 1 7 12 43 44 24 7 6 5 3 7 3 7 11 10 9 9 8 7 4 13 12 13 3 4 4 5 6 10 8 5 4 5 5 6
31 31 29 30 30 31 33 33 38 36 17 16 5 4 14 37 31 8 5 5 4 4 5 5 7 8 7 6 9 8 5 5 10 7 16 7 5 2 5 10 12 10 10 6 5 6 3
30 31 30 30 30 31 32 33 36 33 16 11 2 4 24 42 8 5 5 5 5 4 1 2 4 6 8 7 7 5 8 8 8 11 10 10 4 6 15 4 14 14 14 14 4 5 9
30 30 29 29 30 30 31 33 35 36 24 2 3 3 25 28 6 8 3 3 2 4 5 6 7 6 8 5 4 8 6 8 13 12 14 9 5 4 4 6 7 7 13 18 16 4 11
29 29 27 28 28 30 31 31 35 38 32 4 3 4 5 5 1 12 10 6 4 4 5 5 4 8 6 6 8 3 5 4 13 10 11 11 4 7 7 3 2 7 16 21 20 11 10
29 29 27 26 27 28 31 33 34 39 40 9 2 4 5 9 7 14 9 4 9 5 5 10 4 10 8 4 6 7 6 6 7 10 6 6 6 9 16 17 11 10 11 21 22 24 13
28 28 27 25 26 28 29 34 37 37 37 2 2 3 4 7 12 10 14 9 6 10 7 6 7 9 12 9 7 4 5 5 5 10 9 6 3 3 7 17 22 17 17 18 25 18 20
29 27 27 26 25 27 29 33 35 32 22 3 7 5 3 13 12 12 10 9 10 5 7 8 11 10 10 14 15 16 7 8 5 8 9 4 2 2 9 3 10 7 24 20 22 17 15
28 27 26 24 24 26 27 29 31 27 18 10 4 3 2 6 12 14 9 10 8 6 7 3 6 9 3 2 4 6 7 7 6 9 11 7 4 3 3 2 1 5 10 17 17 13 11
29 26 26 23 24 24 24 26 28 25 19 17 8 4 1 4 12 12 10 4 3 4 8 12 7 5 4 4 3 1 3 3 6 8 13 9 4 3 1 2 3 5 6 11 8 8 16
28 27 24 22 22 23 24 27 29 26 26 25 16 5 3 4 7 7 11 5 3 4 2 4 0 3 3 2 3 4 4 4 3 5 5 4 2 3 4 3 3 1 9 9 11 6 19
27 26 24 23 22 22 23 24 26 26 26 24 11 11 3 3 1 4 3 5 5 2 1 1 2 3 6 5 5 5 4 2 2 3 4 2 2 5 2 2 5 3 3 7 6 5 7
26 24 23 24 22 22 24 25 26 26 26 24 16 8 2 1 1 3 3 4 3 3 3 3 2 3 4 5 3 3 4 5 1 2 3 5 3 3 2 1 3 1 2 6 3 2 4
24 23 22 22 23 22 23 24 25 25 25 23 6 14 4 1 1 2 4 5 7 6 4 3 2 1 3 3 3 2 2 3 4 3 1 3 5 4 6 4 3 3 2 2 1 4 2

GFSGBSN_925_spd_006.txt.gz
Wind_Speed
26 26 26 27 27 27 28 27 29 33 26 22 22 20 21 19 13 12 12 9 7 6 5 6 5 4 4 3 6 1 2 2 8 20 13 8 3 4 4 3 1 5 3 4 4 7 6
26 27 27 28 28 28 28 29 27 30 30 20 22 22 21 22 16 14 13 10 8 6 5 4 4 5 1 5 5 8 4 4 10 15 11 8 4 5 3 4 3 2 3 5 5 6 6
26 27 28 29 28 29 29 30 30 30 29 31 20 24 22 23 19 15 13 11 10 8 7 5 3 3 1 10 2 5 4 3 3 6 5 8 7 1 1 3 1 3 4 6 6 5 6
26 28 29 30 28 28 29 30 30 31 30 29 29 22 22 23 21 17 13 11 10 8 8 6 4 2 6 5 6 13 8 1 7 4 2 7 6 4 3 4 4 3 2 2 4 7 6
26 28 30 30 31 31 30 31 31 30 31 30 27 25 20 20 25 19 15 12 8 6 5 5 2 2 7 4 4 8 7 6 6 6 4 2 3 3 2 3 3 5 4 4 5 2 4
26 29 29 31 32 32 33 33 31 31 29 30 27 28 21 19 24 22 17 12 8 7 5 3 0 2 3 3 3 4 7 10 3 5 3 3 2 3 3 4 6 5 6 4 5 2 3
26 26 29 30 33 33 34 33 31 31 30 28 27 28 25 18 20 27 22 13 4 1 6 7 5 3 1 2 4 3 6 8 4 4 5 2 4 10 14 10 7 1 3 8 5 7 7
26 27 29 28 30 33 36 33 31 30 30 28 24 27 24 20 19 32 31 7 7 4 4 13 6 7 6 3 3 2 12 5 4 5 4 2 13 8 4 5 6 8 11 13 8 9 9
27 29 31 30 32 33 35 34 30 32 32 27 25 26 23 21 21 37 31 14 17 6 0 4 7 6 3 5 3 7 9 5 3 6 8 10 3 4 11 5 6 5 11 6 11 11 14
29 31 32 31 32 33 33 33 30 32 32 25 26 27 23 22 14 34 14 23 15 8 4 4 4 6 6 5 5 12 14 6 3 10 8 9 8 7 4 6 6 14 7 12 11 4 4
30 32 31 31 32 32 32 31 32 30 29 31 30 29 25 20 6 18 19 27 15 6 2 3 4 4 7 12 3 1 10 3 7 7 6 5 3 5 13 12 7 5 6 8 8 6 5
31 32 32 30 32 32 32 31 31 31 31 36 38 31 21 16 17 24 32 31 13 5 6 5 4 5 9 6 1 4 5 1 2 5 7 6 3 4 5 4 12 0 4 6 4 6 10
32 31 32 30 30 32 32 31 33 34 37 41 30 25 17 20 5 37 45 13 5 4 1 6 5 7 8 7 5 6 11 9 6 4 7 5 16 4 4 4 5 8 5 2 5 6 7
32 32 31 30 30 30 30 30 31 35 41 39 29 14 13 19 19 50 29 4 4 6 5 3 6 7 6 5 5 6 10 8 13 3 1 5 6 13 11 14 6 10 10 4 5 3 4
33 32 31 30 29 30 31 31 32 33 41 34 10 11 8 18 33 46 13 5 8 6 7 8 10 6 7 5 2 6 8 8 8 14 7 3 5 1 3 7 11 4 8 13 6 6 4
34 33 31 30 28 28 30 31 33 36 39 22 1 5 6 11 37 29 7 6 5 4 7 3 5 5 7 7 7 7 7 4 12 15 12 2 6 4 3 5 10 7 0 3 5 5 5
34 32 30 31 27 29 30 31 33 36 37 29 4 3 10 9 23 5 5 4 4 4 6 5 4 4 4 5 6 5 4 4 6 4 15 5 5 0 3 9 12 8 6 5 2 3 5
33 31 30 31 27 28 30 30 32 34 32 14 4 0 18 41 6 3 4 6 4 4 1 3 3 4 6 7 6 6 8 6 6 9 9 9 3 6 15 5 12 13 11 12 5 6 4
32 31 30 31 27 28 29 31 33 32 27 14 2 1 18 29 3 4 4 3 3 3 4 5 4 5 4 6 3 8 4 6 9 11 11 10 5 3 4 2 3 9 13 15 13 3 8
32 31 30 30 27 27 28 31 33 35 35 23 3 3 5 5 3 8 8 4 3 2 4 4 4 4 4 5 5 2 4 4 13 9 10 12 5 8 9 4 2 6 11 16 16 8 14
31 30 29 29 27 26 28 31 35 36 36 8 2 3 3 5 4 11 4 6 4 1 1 6 4 8 5 4 6 8 8 5 7 11 9 8 7 12 21 22 11 6 12 17 21 20 11
29 30 29 29 26 27 28 30 33 35 29 7 3 2 1 7 9 11 6 6 11 8 4 4 6 7 8 7 6 2 3 6 5 9 10 5 6 5 10 15 19 15 18 16 21 24 24
28 28 29 28 26 27 28 30 32 33 22 5 5 5 2 12 9 9 8 5 6 7 6 6 10 8 9 13 13 14 9 7 4 5 8 3 3 3 6 9 8 10 22 21 15 20 19
27 26 28 27 25 26 27 28 29 31 24 9 8 4 0 6 9 9 11 10 4 5 5 0 6 7 2 2 3 2 6 11 11 13 11 6 3 2 5 4 3 2 5 22 24 11 21
28 25 24 25 26 25 26 26 27 28 25 16 10 3 1 3 9 10 7 6 8 1 2 5 8 5 2 3 3 3 2 3 6 10 14 10 4 3 3 3 5 3 2 5 11 12 15
28 26 23 23 23 23 23 26 27 30 28 26 16 5 3 3 8 6 8 5 3 3 1 3 1 1 3 3 2 2 2 1 4 3 2 5 4 1 4 3 4 3 1 6 7 5 17
26 25 24 23 23 23 23 24 26 29 29 27 9 14 4 2 1 6 6 5 4 3 1 2 2 1 4 3 4 3 2 2 3 3 3 2 2 4 4 3 5 2 2 5 2 5 5
23 23 23 21 21 22 23 24 24 26 28 24 12 11 4 2 0 1 5 5 3 3 3 3 0 3 3 4 4 3 3 4 2 4 4 6 4 3 0 2 3 3 4 3 3 4 3
25 21 22 21 20 21 21 22 23 23 25 23 8 20 11 1 2 1 2 3 4 6 4 4 1 1 3 3 2 2 3 2 3 3 1 3 5 3 6 4 3 3 4 4 3 3 0

GFSGBSN_925_spd_009.txt.gz
Wind_Speed
23 24 25 25 25 25 25 26 27 27 27 26 28 22 20 19 21 15 11 9 9 7 5 5 3 2 1 3 4 1 1 3 9 18 13 6 3 4 3 2 1 3 2 3 4 5 5
25 25 25 25 26 25 25 26 27 27 28 28 28 27 21 19 20 19 13 11 9 8 6 4 2 3 4 5 5 7 2 2 7 18 10 6 4 4 2 2 3 1 3 5 6 8 6
25 25 26 27 27 27 27 27 27 27 28 27 27 28 25 18 18 22 16 12 10 10 7 4 3 4 2 9 3 2 5 4 8 10 6 8 6 3 4 1 1 2 5 8 8 7 7
25 26 27 27 28 27 28 29 29 30 29 28 28 28 26 20 16 20 19 15 10 10 10 6 5 4 5 3 11 16 5 4 5 7 7 10 7 3 2 1 4 2 2 3 3 4 6
26 25 25 28 28 29 29 30 31 30 29 28 26 27 24 24 15 17 23 17 12 8 6 8 5 4 6 1 4 7 12 7 7 6 6 9 6 4 2 2 2 3 4 5 5 4 2
23 24 24 27 29 30 31 31 32 30 28 28 29 27 24 24 18 11 23 19 14 10 9 6 3 1 3 2 4 8 10 11 4 6 3 3 3 3 3 5 5 4 4 5 5 2 3
26 26 28 30 28 28 31 33 33 31 27 27 29 26 23 24 22 13 28 19 6 2 6 7 5 2 2 4 7 4 10 8 4 4 5 2 5 10 12 8 4 1 4 7 5 10 11
29 29 28 29 28 31 29 30 32 30 29 29 28 25 22 22 26 21 38 6 10 11 5 10 3 4 5 1 4 2 13 5 5 4 5 3 10 9 2 4 8 10 15 17 11 7 10
29 29 31 31 31 31 30 30 31 30 28 28 25 23 21 22 26 20 31 15 27 17 5 2 6 5 4 3 2 8 8 4 4 5 7 5 4 2 10 7 9 13 16 15 17 9 14
30 31 31 31 31 31 30 31 30 30 24 28 24 23 26 22 16 11 21 24 22 15 4 4 4 5 7 5 4 8 13 5 2 10 7 9 9 6 4 6 8 15 8 11 13 6 8
30 31 31 31 31 31 30 30 29 29 28 27 27 29 29 20 14 4 13 33 27 4 2 4 4 6 6 11 5 0 6 3 7 6 5 3 4 3 10 8 7 6 5 7 9 9 8
31 33 33 32 31 31 29 30 30 30 28 27 33 33 21 14 17 16 27 29 9 5 6 5 5 7 8 4 3 4 8 0 3 5 6 5 1 4 6 5 11 1 3 6 3 6 10
33 32 32 33 31 31 29 30 31 32 31 35 41 36 25 16 7 21 31 11 4 3 1 8 6 8 9 6 5 6 9 9 5 4 4 3 14 5 4 3 2 6 3 3 5 7 8
33 32 34 32 32 31 29 31 32 33 36 38 37 26 18 18 22 7 26 4 4 5 3 5 10 10 5 8 5 7 10 7 10 3 2 4 4 10 8 14 6 9 9 5 5 5 5
34 33 33 32 32 30 29 31 33 35 38 44 23 5 7 18 18 12 9 3 6 6 8 10 11 5 3 3 2 4 7 5 9 13 6 3 5 2 6 4 9 4 10 11 6 11 5
32 33 33 32 33 30 30 31 31 35 37 35 19 2 3 16 13 4 3 6 2 4 11 9 5 4 9 9 7 8 7 4 6 12 10 2 5 4 1 4 6 7 1 3 5 5 6
34 33 33 32 32 30 30 31 31 34 36 31 11 1 8 9 15 3 2 2 5 3 5 4 4 5 6 6 8 6 4 3 6 5 13 5 5 1 2 10 12 8 5 6 2 4 4
32 32 32 31 30 31 30 31 30 35 38 12 2 2 14 18 6 2 1 6 4 3 3 3 4 5 4 6 5 5 5 5 6 8 9 8 3 6 13 8 14 16 13 17 8 6 5
32 32 32 31 31 29 30 31 32 36 35 20 1 1 12 11 3 3 4 4 4 3 2 2 3 3 3 5 4 6 4 5 8 9 10 8 5 4 6 1 4 9 16 16 14 5 15
32 31 31 32 30 29 32 31 33 36 38 14 1 1 3 2 2 5 4 3 5 3 2 3 4 5 4 3 4 3 4 3 11 8 8 11 5 8 11 12 1 6 14 20 15 8 12
31 30 30 31 30 29 32 34 36 40 40 3 3 2 1 3 2 4 4 3 6 3 1 3 3 3 5 4 5 5 6 3 5 10 8 9 8 11 21 23 17 12 13 18 20 23 12
30 30 29 30 30 29 31 34 37 42 33 5 3 1 1 5 6 6 3 3 4 3 4 3 2 7 7 5 4 3 3 5 5 6 9 6 5 4 18 18 19 22 18 18 22 21 23
29 29 28 27 28 28 29 31 34 38 32 4 5 3 2 9 7 4 3 5 7 5 2 2 5 3 7 9 9 9 9 7 4 6 11 4 3 3 13 7 9 6 14 21 19 18 13
29 28 28 27 26 27 28 29 31 33 32 14 4 3 1 4 6 8 8 5 5 4 3 1 4 4 1 2 2 4 6 10 11 14 10 4 3 3 8 7 3 2 4 13 20 20 21
27 27 27 25 25 26 25 26 28 30 30 22 9 3 2 2 5 8 8 7 3 3 3 1 3 4 1 2 2 3 1 3 7 13 12 14 4 3 3 4 6 2 6 1 8 7 20
27 25 24 24 23 24 25 25 26 28 32 32 10 4 2 1 7 6 4 5 3 3 1 2 1 1 2 3 2 2 3 2 4 2 6 7 4 2 3 4 4 3 5 3 2 2 4
25 25 23 23 22 22 23 24 25 27 30 32 8 11 3 2 2 6 6 6 4 3 1 1 2 2 2 2 2 4 3 2 3 3 4 3 2 4 4 4 6 4 4 4 3 5 6
23 23 22 22 22 22 21 22 23 23 25 28 17 11 8 2 2 1 5 5 3 4 3 2 1 1 2 2 3 3 4 4 2 3 4 6 5 4 2 2 5 1 2 1 3 4 3
21 22 22 22 23 22 20 21 22 23 23 23 11 27 25 5 2 2 2 1 6 7 4 3 1 2 2 3 2 2 3 2 3 3 1 3 5 2 6 5 3 4 5 4 3 3 3

GFSGBSN_925_spd_012.txt.gz
Wind_Speed
21 22 23 24 24 24 24 24 24 26 27 27 26 25 26 26 21 19 20 15 13 11 8 5 6 4 3 5 4 4 1 5 8 18 15 9 8 6 8 4 6 11 11 9 10 10 13
23 24 24 24 24 24 24 24 25 25 27 27 27 27 27 27 21 19 20 17 14 12 9 6 5 4 4 10 3 4 1 1 5 18 17 12 5 4 3 4 8 2 6 10 9 14 16
24 24 22 23 24 24 25 25 25 26 26 26 27 25 26 26 25 18 17 21 16 13 12 7 6 4 4 6 3 3 6 4 5 12 11 7 7 6 5 4 2 6 10 12 15 13 13
22 21 22 23 26 27 25 25 26 26 27 26 25 24 25 25 26 20 15 24 18 16 13 9 6 3 4 2 6 7 3 6 6 7 8 11 7 3 3 1 3 5 5 5 2 2 7
23 24 24 23 26 24 25 26 26 26 27 27 24 23 25 26 24 24 17 25 20 17 12 11 6 2 3 1 4 8 11 10 10 9 8 10 7 3 4 5 5 8 7 9 9 4 6
25 27 25 25 27 25 26 25 25 26 27 26 24 24 26 26 22 25 19 21 17 17 14 11 6 3 5 2 5 7 10 14 7 11 7 5 3 5 7 8 5 5 7 7 10 3 6
26 27 26 28 28 27 28 27 25 25 25 26 26 25 25 22 20 21 22 17 7 4 9 7 9 2 5 7 7 5 12 12 9 11 10 7 6 11 14 14 9 2 6 10 9 7 15
27 28 29 29 28 27 28 27 26 26 25 22 23 25 22 20 20 21 25 4 17 9 8 8 8 5 2 4 4 8 12 9 10 12 9 5 12 13 6 10 12 14 16 16 14 13 11
29 29 31 30 30 29 27 27 25 26 24 23 24 24 21 21 24 23 13 17 24 5 4 9 11 6 4 6 4 13 14 8 12 11 16 8 3 1 12 12 12 15 17 14 15 15 18
31 32 31 31 30 29 28 27 25 25 25 23 20 18 21 24 17 11 7 19 21 6 3 8 10 7 9 6 4 11 17 6 4 12 10 9 9 6 7 9 12 14 8 13 13 10 6
30 31 32 31 31 28 28 27 26 25 26 27 22 23 24 21 12 8 7 23 14 7 7 10 7 9 12 12 11 6 11 2 7 9 6 3 6 9 12 11 12 7 4 7 9 11 11
32 32 31 31 29 28 28 26 26 27 29 29 28 30 29 22 13 16 9 20 7 4 6 7 7 10 14 9 6 7 10 1 3 5 6 7 1 5 6 8 13 3 7 9 11 8 8
30 29 30 30 29 28 29 27 27 29 30 32 37 43 38 21 7 15 10 4 5 6 7 9 9 13 15 11 9 11 13 9 6 5 7 5 16 6 8 9 8 11 5 3 4 6 9
31 31 31 30 29 29 28 28 28 30 31 33 40 31 5 16 20 13 5 3 4 5 6 5 13 16 8 17 6 11 13 10 10 4 3 4 4 15 11 16 4 18 14 5 7 10 12
32 30 30 30 29 29 29 29 29 31 34 42 32 15 7 13 21 16 5 4 2 6 11 13 14 9 6 12 6 7 10 8 11 14 6 5 5 3 7 8 12 5 9 13 18 20 13
31 30 30 29 29 29 29 30 31 31 36 44 18 8 6 19 18 11 2 3 1 3 17 16 7 7 9 13 8 10 11 6 8 16 14 3 4 7 3 8 11 14 0 5 6 6 18
30 29 30 29 29 29 29 31 30 33 37 38 5 2 14 20 18 4 1 2 4 11 10 3 7 8 8 12 8 12 6 3 8 11 17 7 5 3 3 12 13 10 8 6 6 9 8
29 29 29 30 29 28 29 30 33 35 37 24 4 1 15 23 4 1 1 1 5 6 0 4 8 10 13 13 11 9 9 5 8 11 10 12 5 8 14 14 14 16 16 19 9 12 7
29 29 28 29 28 29 30 30 33 38 45 14 2 1 4 8 3 4 2 1 3 2 3 3 4 3 6 9 6 8 5 3 10 12 12 11 5 4 5 3 8 10 19 22 18 10 20
28 28 27 27 28 30 31 31 34 40 43 5 2 3 2 2 0 8 8 3 5 5 3 6 6 5 7 6 2 7 7 4 11 13 5 10 6 8 10 13 8 8 12 19 18 11 18
28 27 27 27 26 29 30 32 36 42 37 7 1 3 3 3 3 9 3 3 8 3 3 3 4 3 5 4 5 4 6 3 4 8 9 7 6 11 20 23 22 23 26 20 22 28 17
26 26 26 26 27 27 29 32 36 39 33 6 3 3 3 3 7 10 2 3 3 4 3 3 3 8 7 3 5 3 5 6 5 10 12 6 7 4 16 20 23 23 23 21 18 24 26
26 26 26 24 25 25 27 30 32 34 35 5 4 3 3 5 6 7 6 7 6 6 2 4 6 5 6 5 7 8 9 4 4 6 13 5 2 2 8 14 22 9 7 11 7 12 20
25 26 24 22 22 23 25 27 28 30 28 16 4 3 2 4 6 5 6 5 8 7 4 3 5 3 1 2 4 6 11 12 13 14 11 6 4 2 8 12 4 5 5 10 13 16 17
23 24 24 22 21 21 22 23 25 26 27 25 11 2 2 1 7 7 5 5 5 5 3 3 2 2 1 2 3 5 3 4 7 13 16 15 7 3 3 4 11 4 8 6 4 6 5
21 21 21 22 22 21 21 22 23 24 25 28 8 14 2 3 7 8 8 7 7 4 2 3 2 1 2 2 2 3 2 1 1 3 2 8 11 4 1 4 4 7 6 2 2 3 12
19 19 20 21 21 21 20 21 22 24 24 23 6 16 4 2 4 10 10 8 5 5 3 1 2 1 1 3 3 4 3 1 2 3 4 4 2 6 6 5 6 4 5 3 5 7 14
18 18 19 19 19 19 20 20 21 22 22 23 12 9 7 3 6 4 6 4 3 4 4 4 3 2 2 2 3 3 3 2 3 2 3 6 5 4 4 3 3 2 3 3 4 8 8
18 18 19 18 19 19 20 20 19 19 19 18 7 16 19 4 4 2 2 1 2 5 4 3 1 3 3 3 3 2 3 3 3 2 3 4 5 2 5 3 2 2 7 5 3 6 4

GFSGBSN_925_spd_015.txt.gz
Wind_Speed
19 20 19 19 19 20 21 22 21 21 23 23 23 23 22 22 24 24 20 17 18 15 12 10 8 6 3 5 6 5 5 7 13 16 17 13 14 13 11 9 9 13 16 13 12 13 15
20 20 20 21 21 22 22 22 22 22 22 24 25 24 23 21 23 23 22 17 19 16 13 10 7 7 9 12 6 5 4 4 11 21 18 13 6 4 5 6 10 2 10 14 13 15 16
21 22 22 24 23 24 23 22 22 23 24 24 25 25 23 23 24 24 24 17 15 18 13 11 8 8 9 11 2 4 7 4 5 17 14 10 5 4 6 5 9 9 14 14 17 18 15
22 23 25 25 25 25 23 22 24 23 23 24 25 25 23 22 23 23 23 20 14 19 15 13 10 7 6 4 6 3 7 8 6 8 10 10 6 7 5 3 5 6 10 10 7 4 11
24 25 25 25 26 28 26 24 24 25 24 24 25 23 23 24 25 23 22 22 16 22 18 14 8 9 7 3 7 14 10 10 10 9 9 10 6 5 4 9 8 10 9 12 9 6 6
26 26 27 28 29 29 27 25 24 25 24 24 22 22 20 22 23 20 19 24 15 22 17 11 2 5 8 7 8 9 12 11 10 13 11 7 5 6 10 11 7 8 13 9 10 4 8
27 29 28 31 30 31 29 26 25 25 24 23 20 21 19 18 20 17 16 8 6 7 12 8 11 1 8 10 11 10 16 16 11 13 7 7 6 12 16 15 16 6 9 10 10 7 15
29 29 31 30 32 30 27 25 25 25 23 22 21 22 19 16 18 18 14 2 10 5 7 8 5 6 8 11 7 11 19 11 12 12 11 5 14 16 12 9 11 12 14 14 14 13 12
29 29 31 32 30 30 27 26 26 24 22 22 23 19 17 17 21 18 14 18 23 14 5 12 10 11 7 9 7 17 17 11 15 15 16 11 3 4 14 11 11 13 14 13 14 14 16
28 29 29 29 30 29 27 26 25 24 22 23 21 20 17 19 16 10 10 10 19 13 3 9 9 7 7 6 4 16 17 8 5 14 14 12 8 5 8 11 11 12 9 10 11 8 6
29 29 30 30 30 28 26 26 24 23 23 25 21 20 20 15 15 9 9 2 11 7 6 13 10 8 12 8 15 11 17 3 10 8 8 4 6 12 12 14 10 6 3 4 6 9 13
30 30 30 30 29 28 26 25 25 25 27 26 25 28 32 32 15 17 11 11 6 3 4 8 6 11 15 12 6 12 9 5 1 6 10 9 2 7 9 6 11 3 3 6 6 4 7
30 30 29 29 28 28 27 26 26 27 27 26 30 37 29 20 11 15 11 7 3 5 12 9 9 13 16 13 10 14 14 11 8 5 9 10 16 8 10 7 7 9 2 2 4 5 9
29 29 28 28 28 29 28 27 29 27 27 32 40 26 11 9 19 20 8 5 6 11 7 7 14 17 9 15 11 14 14 12 15 11 4 8 6 19 14 14 5 13 10 5 6 8 14
27 28 28 29 28 29 28 30 27 28 31 35 32 10 4 7 15 17 4 5 2 10 12 12 17 12 9 17 8 12 14 12 14 14 7 5 4 2 7 6 11 6 9 15 12 16 12
27 29 28 28 28 28 29 32 28 31 35 36 15 9 7 15 17 9 1 1 1 5 17 19 7 7 9 18 9 12 14 13 11 17 12 1 2 6 6 5 11 12 1 2 5 5 10
27 29 28 27 28 29 29 31 31 33 37 28 3 2 6 16 14 1 3 1 5 16 8 0 7 9 10 15 11 14 16 5 17 14 16 6 4 5 3 11 9 8 12 6 7 8 6
27 27 28 27 27 29 30 32 33 37 36 6 4 3 10 13 2 2 1 3 11 8 4 2 3 4 15 16 11 12 9 3 6 9 12 9 2 6 12 9 8 13 14 16 8 9 8
27 27 27 27 28 28 31 32 35 39 29 4 3 2 7 5 3 4 2 1 5 5 2 4 3 2 5 11 6 6 6 5 8 12 10 10 5 3 3 3 8 11 17 16 18 16 23
26 26 27 26 27 29 30 32 36 42 26 5 1 2 2 2 3 8 3 8 5 2 3 4 8 8 9 11 3 8 5 4 9 11 9 7 5 8 8 9 10 7 15 19 16 9 20
25 25 25 25 25 27 29 31 35 40 22 3 3 3 2 2 5 9 2 3 7 4 1 2 3 1 4 4 4 4 5 5 5 7 6 5 5 10 17 22 20 21 24 24 20 20 17
24 25 25 24 25 25 27 30 33 36 22 6 3 3 4 3 10 9 1 6 4 5 1 2 3 6 3 4 1 4 5 7 5 9 11 4 3 2 12 21 20 19 23 18 17 19 19
24 23 23 23 24 24 26 28 30 32 22 5 3 4 3 3 7 7 6 4 2 3 4 4 3 5 3 2 3 2 4 4 0 4 10 4 2 2 6 10 20 9 4 6 8 11 9
20 21 20 21 23 24 24 25 26 27 26 8 3 3 3 4 7 8 3 3 4 2 3 2 3 1 3 3 5 7 8 8 10 11 8 4 4 2 6 12 3 3 2 6 10 16 10
18 19 18 19 20 22 22 22 24 25 25 17 8 4 2 1 6 8 8 4 2 6 1 4 2 3 2 4 3 3 2 3 7 15 11 11 4 2 3 6 17 4 6 3 4 8 11
16 17 17 17 17 19 21 22 22 23 24 23 8 14 3 3 8 6 7 8 5 7 4 2 2 2 1 2 2 2 2 2 3 4 0 8 12 4 1 4 4 6 10 1 3 2 15
16 16 17 17 16 17 20 20 21 21 22 22 6 14 3 3 4 5 7 7 6 6 1 2 3 2 2 2 2 2 3 3 3 4 6 4 3 6 5 4 7 14 7 2 4 7 12
16 16 17 16 17 17 18 20 19 18 20 18 11 11 6 3 8 6 10 6 5 7 4 4 3 2 3 3 1 2 3 1 3 4 4 8 6 4 4 4 6 2 4 4 6 7 8
16 16 17 16 16 16 18 20 20 19 16 15 6 14 10 4 5 8 9 6 6 5 2 4 2 2 2 2 3 2 2 3 6 3 3 4 6 2 5 3 5 5 9 9 6 8 7

GFSGBSN_925_spd_018.txt.gz
Wind_Speed
20 21 22 22 25 24 24 23 24 23 23 23 23 23 24 23 23 21 22 22 18 17 17 12 10 8 3 5 6 2 7 16 14 14 19 13 12 10 11 8 11 11 15 12 9 9 6
22 23 24 24 24 25 26 25 26 23 25 26 26 25 24 24 23 23 23 22 21 17 14 12 11 8 4 11 6 8 6 8 11 20 17 15 6 6 4 9 9 4 8 11 12 9 8
23 23 26 26 26 26 28 27 25 23 25 26 27 27 27 24 22 23 23 23 21 14 15 13 12 10 9 11 3 8 6 4 7 19 14 14 2 2 4 2 7 6 9 11 13 13 9
24 26 27 28 29 30 31 29 27 24 23 26 25 25 26 26 24 23 23 24 21 16 12 16 14 11 6 11 7 5 8 9 5 5 19 6 5 1 1 3 2 4 9 7 9 19 13
24 27 30 31 31 32 33 30 26 23 25 24 23 23 23 23 22 21 22 20 20 20 11 17 9 9 6 9 9 11 7 11 9 6 10 9 3 3 4 2 4 7 6 11 8 7 5
27 29 28 30 32 32 31 28 26 24 25 23 22 22 21 21 21 21 18 18 19 13 10 14 9 7 9 8 10 15 12 8 8 9 9 7 4 4 4 6 5 5 9 8 8 4 3
27 28 29 30 31 31 31 28 26 25 24 23 22 20 21 22 20 17 16 8 3 3 12 6 12 1 14 14 13 11 14 12 7 10 5 9 5 8 12 11 11 11 8 12 8 9 8
28 28 29 30 31 31 30 28 26 25 23 22 21 22 21 19 16 19 17 3 5 5 2 13 5 6 15 15 9 11 17 8 5 9 4 3 7 10 7 6 4 7 7 11 11 11 7
29 31 30 31 30 30 29 27 26 25 23 22 21 21 20 18 18 18 9 12 8 12 3 7 5 9 11 5 8 14 14 9 9 12 9 7 1 10 11 8 4 7 7 9 11 11 10
29 31 30 29 30 30 27 26 25 26 26 24 22 19 18 17 13 10 12 6 7 4 2 9 3 7 7 5 6 15 14 5 6 14 10 7 4 4 5 9 6 6 4 5 6 6 4
30 31 29 28 29 28 28 27 26 26 26 26 25 21 20 18 14 8 8 7 12 1 5 12 7 12 10 5 13 11 17 2 9 8 6 2 4 6 5 4 5 2 6 5 5 6 7
29 30 29 29 29 28 29 29 28 29 27 26 26 28 30 24 23 17 12 4 9 2 5 5 6 12 13 9 4 11 6 2 3 5 9 4 5 2 4 4 3 6 1 2 4 1 4
28 30 30 28 29 29 29 29 31 28 29 29 33 36 22 12 5 15 11 4 4 4 11 8 9 12 16 12 8 11 9 7 5 5 5 5 8 3 3 2 2 4 3 1 3 3 7
27 30 30 29 29 29 30 29 31 30 33 35 37 19 11 2 10 20 11 2 2 8 4 7 15 16 11 14 7 10 10 9 10 6 6 5 4 14 9 8 5 10 6 3 5 3 4
27 30 30 29 28 30 30 30 32 34 37 40 25 11 8 9 20 21 3 2 4 4 10 11 18 9 10 12 7 9 10 7 10 11 4 5 2 6 11 7 7 6 7 2 5 5 3
27 29 30 29 29 28 31 33 34 37 44 28 3 4 6 9 14 4 2 1 4 4 17 14 6 8 8 15 8 11 12 12 11 15 9 4 0 1 7 1 5 7 4 2 0 3 6
27 28 29 29 28 31 31 33 35 41 41 9 6 3 2 11 4 2 3 3 1 16 6 3 9 8 10 14 7 10 10 1 16 11 12 5 1 3 5 8 9 6 7 2 3 3 4
25 28 29 29 28 30 31 34 35 40 29 10 3 3 1 3 3 2 0 4 4 8 5 4 3 7 12 13 9 10 8 4 11 9 9 7 3 3 10 8 13 10 8 13 3 6 5
25 27 28 28 27 30 31 34 37 41 28 7 3 2 2 4 1 2 3 2 4 6 6 3 5 6 14 11 6 7 8 6 2 5 10 7 3 2 2 3 8 6 8 8 11 10 16
25 26 28 27 27 28 31 34 39 40 26 3 1 2 1 2 4 4 3 5 3 4 7 8 5 4 7 8 4 7 5 2 4 4 6 9 2 5 3 2 2 3 5 8 9 6 12
24 24 25 26 27 28 29 33 37 40 23 3 1 3 2 1 3 6 5 5 5 3 4 2 2 2 7 5 4 4 8 7 5 5 4 0 3 4 9 13 13 13 16 16 16 18 13
22 22 24 24 24 26 27 30 35 38 23 5 3 3 5 2 7 4 3 3 2 4 5 2 3 5 1 4 6 6 6 6 5 7 5 3 2 4 9 15 16 15 17 18 18 19 18
20 20 21 22 23 24 24 27 31 35 31 6 6 4 3 1 6 5 3 5 4 3 3 5 4 3 3 7 5 4 5 3 5 7 8 5 2 1 4 9 11 6 5 5 9 12 11
18 19 19 20 21 22 23 24 25 27 29 12 6 4 2 2 4 6 6 4 4 4 5 2 1 2 1 2 4 4 4 5 5 5 6 5 4 2 4 9 2 2 8 6 8 14 13
17 17 18 18 19 19 22 22 22 22 23 20 9 6 3 3 6 2 3 5 3 4 5 3 4 3 3 3 2 3 3 2 6 9 10 6 4 2 2 2 8 3 3 3 2 6 6
16 17 17 17 17 18 19 20 19 19 21 20 5 16 3 3 3 10 3 5 3 4 3 3 3 4 3 1 1 2 1 3 4 4 3 10 7 2 1 3 3 3 4 6 5 4 3
17 17 16 17 17 17 16 18 18 18 18 17 4 16 4 3 3 7 3 4 2 3 3 3 4 3 2 2 1 1 2 3 2 5 5 3 3 7 6 3 7 7 1 5 2 5 8
18 15 18 16 17 18 17 16 16 16 16 15 10 7 6 3 9 7 8 7 1 2 2 3 3 0 2 2 1 1 2 1 2 3 5 6 6 3 3 3 6 0 2 2 3 5 5
20 15 18 18 17 17 17 18 16 14 14 12 5 10 9 3 5 11 24 24 13 4 1 3 1 3 1 3 1 2 2 4 5 3 4 3 4 4 7 5 6 4 6 1 3 3 5

GFSGBSN_925_spd_021.txt.gz
Wind_Speed
22 22 23 25 25 26 26 27 27 26 24 22 22 23 23 23 23 22 21 21 22 23 20 18 13 11 5 5 6 4 4 21 18 16 14 7 5 3 5 6 6 5 5 9 9 9 5
25 25 26 26 28 30 30 31 31 28 25 22 22 24 23 23 22 21 22 22 22 23 21 12 13 11 5 8 7 8 9 16 15 18 14 12 6 7 4 5 5 3 4 4 5 7 6
24 25 28 30 29 29 30 30 30 26 22 21 22 21 23 22 21 21 22 22 21 24 23 18 15 11 7 10 6 13 10 13 13 20 7 19 6 3 3 2 2 2 3 7 6 7 6
25 27 26 27 28 29 29 29 28 26 25 23 21 21 20 21 20 20 20 20 21 21 22 18 15 12 5 14 8 12 11 7 7 9 21 7 5 3 1 2 2 4 2 2 7 11 8
26 27 26 26 27 29 29 29 27 25 24 23 21 20 18 18 19 19 21 20 21 19 20 15 13 8 5 7 19 15 11 8 8 6 12 10 5 3 2 4 2 1 3 6 7 6 5
25 28 28 28 29 29 29 28 27 26 25 23 22 19 18 19 19 18 17 20 23 16 12 7 6 4 4 7 11 18 13 10 5 10 7 3 3 2 3 3 6 5 4 4 5 3 1
26 27 28 27 27 29 29 27 26 25 24 23 21 20 19 18 18 16 18 12 3 3 9 3 8 4 6 13 17 16 17 7 5 4 4 4 3 6 8 5 5 2 2 4 5 6 4
26 28 29 27 27 28 27 26 25 25 24 23 21 19 21 18 16 16 17 2 3 6 7 8 11 4 17 14 6 12 15 5 5 7 6 4 3 5 6 7 8 6 5 5 7 4 6
26 28 28 28 28 27 27 28 26 25 25 24 23 22 18 15 17 11 7 8 6 6 2 10 5 9 5 3 5 12 8 4 6 7 8 5 2 10 6 3 2 2 3 4 5 6 5
26 26 28 28 29 28 27 28 28 26 28 25 23 21 18 15 9 7 6 4 4 4 2 6 7 5 4 2 4 8 10 5 3 9 7 1 1 3 4 4 3 1 4 1 4 4 4
27 27 29 29 29 29 29 29 28 30 27 27 26 25 24 20 9 0 5 9 6 5 3 8 5 13 5 1 13 8 2 3 8 9 5 6 4 5 1 2 4 3 5 5 4 4 4
27 29 30 30 29 29 28 31 29 30 29 31 31 32 30 19 19 10 10 11 2 2 3 5 6 9 7 7 3 5 4 4 0 5 8 4 2 3 5 2 3 4 4 4 4 3 2
26 29 31 31 30 30 29 31 33 32 33 33 35 32 16 6 3 14 14 6 2 3 1 6 9 9 12 4 7 7 5 3 4 5 3 5 2 2 3 4 2 5 5 3 3 1 6
26 29 31 32 30 30 32 32 34 35 38 43 21 12 14 4 10 19 12 3 4 5 6 6 11 13 6 8 4 6 7 4 3 4 4 5 4 8 5 6 6 5 5 4 6 3 4
26 27 29 31 30 32 31 34 35 39 45 20 13 11 17 15 16 17 1 3 4 4 6 11 14 9 7 4 7 4 4 5 4 4 5 4 3 4 6 3 5 4 5 3 1 2 2
26 27 28 29 29 31 32 35 36 39 26 15 12 7 14 11 7 1 1 3 3 2 17 10 4 3 6 7 5 6 8 7 5 9 3 1 3 2 3 3 3 6 4 2 2 1 5
24 27 29 29 29 30 32 34 37 38 18 11 7 3 10 6 5 2 2 5 2 15 4 2 5 7 8 6 4 6 12 4 11 10 7 2 3 1 5 6 7 3 2 2 2 4 4
24 26 27 28 29 30 32 34 37 34 22 12 2 3 8 13 3 0 2 2 5 5 3 3 5 7 10 10 5 6 8 1 12 12 7 4 4 3 9 6 8 4 5 5 3 5 4
22 24 25 27 29 31 32 34 36 35 19 7 2 2 5 6 3 3 5 1 5 7 5 4 6 5 13 6 5 4 5 3 9 8 9 5 1 0 4 3 2 4 7 6 8 0 13
20 23 24 25 27 28 31 33 38 35 11 4 1 2 3 2 1 2 4 4 4 6 4 5 5 11 5 4 2 7 3 2 4 3 7 8 4 6 5 3 4 3 4 6 9 5 10
18 20 21 23 25 26 28 33 38 40 10 2 2 1 1 2 2 2 2 3 3 3 4 6 6 4 6 3 4 4 5 4 4 2 3 3 2 2 6 8 5 7 10 11 11 16 11
17 17 19 21 23 24 26 29 34 40 9 7 2 3 4 4 1 2 2 2 3 3 5 4 5 7 8 4 1 5 7 4 4 2 3 2 2 1 6 10 8 6 11 14 15 18 19
17 16 16 19 21 22 24 26 28 32 23 6 5 3 2 5 2 1 3 4 1 2 4 3 2 5 6 3 4 3 4 4 8 7 6 5 4 1 4 5 7 3 6 10 5 8 9
16 15 15 16 18 20 21 22 23 25 26 7 6 3 2 4 1 3 1 3 2 3 3 2 4 4 2 2 3 3 3 2 6 6 6 6 4 1 3 5 1 1 5 7 9 11 10
14 15 15 14 15 16 19 19 19 20 21 17 9 4 2 3 4 6 2 2 3 3 1 3 3 1 2 2 2 2 1 2 4 6 8 5 4 2 2 2 6 3 4 5 5 7 4
14 16 14 15 14 15 14 16 17 18 18 18 6 10 2 2 2 6 4 5 4 2 1 2 2 3 2 1 1 3 3 1 3 3 5 7 4 3 1 2 3 3 2 4 4 4 4
14 17 14 15 16 15 15 15 13 15 16 15 4 12 3 3 3 3 2 2 4 4 3 3 2 1 1 2 2 3 2 3 4 7 4 4 3 5 4 3 6 7 4 6 2 4 2
13 17 12 17 17 17 15 16 15 13 12 12 11 6 5 3 8 5 3 2 5 2 3 3 3 2 1 2 2 1 1 2 0 4 6 6 6 4 4 4 7 5 4 3 4 1 1
14 15 13 14 16 17 16 15 15 15 12 9 4 12 10 4 5 8 18 25 16 14 3 3 2 2 4 3 1 1 1 1 1 2 3 3 6 4 7 5 6 4 6 1 1 2 2

GFSGBSN_925_spd_024.txt.gz
Wind_Speed
21 20 22 27 27 25 26 28 28 26 25 23 20 18 20 21 20 19 17 15 19 21 21 23 22 16 10 6 8 4 7 22 21 20 17 7 5 5 6 7 4 3 3 5 6 8 4
21 23 25 25 24 25 25 26 26 26 24 23 20 19 20 20 20 17 17 18 19 19 21 22 21 11 6 10 11 15 7 23 22 22 14 10 7 7 4 4 7 2 7 5 3 4 4
23 23 24 26 27 26 28 26 26 25 23 22 21 19 19 19 18 16 17 16 18 18 20 21 19 12 7 12 5 11 16 23 21 23 7 15 13 4 6 0 4 3 3 3 4 4 4
23 24 26 26 26 26 27 27 26 24 23 22 19 18 17 17 15 15 17 18 19 18 19 19 19 12 5 15 10 11 12 13 16 20 15 14 12 3 4 2 3 5 4 1 4 4 6
23 25 25 27 26 25 27 26 24 23 23 22 20 19 16 16 16 16 17 17 20 19 17 15 12 7 4 5 11 14 13 8 11 8 12 12 6 2 2 5 3 4 2 4 7 8 6
23 25 25 26 26 26 26 25 24 22 23 20 19 19 18 17 17 17 16 20 24 17 8 7 7 2 4 5 13 15 10 8 3 12 7 4 2 3 2 4 6 6 3 3 5 4 3
23 26 26 26 27 27 26 26 26 24 22 20 21 19 18 18 15 15 16 11 4 2 3 1 4 4 7 8 16 12 9 7 4 3 4 5 2 5 7 4 2 4 2 3 4 6 5
25 26 26 28 27 27 26 25 26 25 22 24 21 20 19 17 13 17 8 0 2 3 3 10 8 7 11 12 9 10 8 4 5 4 8 4 4 7 9 8 6 2 2 5 6 3 4
25 27 28 30 28 28 27 27 27 26 25 23 20 19 17 15 12 10 7 5 6 4 1 3 5 5 7 6 4 9 10 3 6 9 4 7 3 6 6 4 3 2 3 2 4 6 1
26 27 29 30 29 28 28 27 28 27 25 24 23 23 20 16 7 6 3 4 6 4 2 7 4 4 3 6 4 4 6 4 2 9 6 3 2 6 5 4 4 2 2 3 3 4 4
25 27 29 30 29 29 30 31 31 30 29 28 28 24 21 17 9 8 5 6 5 1 3 10 6 3 3 0 14 7 3 3 4 7 5 2 4 6 5 3 4 3 5 4 2 3 4
24 27 27 30 30 30 31 31 33 33 35 37 33 21 18 4 5 13 12 8 2 2 1 5 6 8 7 3 3 5 3 4 4 5 7 1 1 3 4 4 5 6 5 6 4 2 2
24 26 28 29 30 31 32 33 35 38 40 27 19 15 10 6 4 15 11 2 4 2 3 6 9 10 9 4 6 4 4 4 4 5 4 0 2 1 4 6 4 6 6 3 4 2 6
23 25 28 28 29 30 32 34 36 39 26 20 21 25 20 14 14 14 7 1 4 4 2 11 8 13 6 5 7 6 5 3 2 4 3 4 2 5 2 4 5 3 6 4 4 3 4
23 24 27 28 29 29 32 34 35 34 19 14 22 25 26 16 15 10 2 5 2 4 4 8 14 10 3 3 6 4 1 4 4 4 5 4 1 2 2 3 6 4 2 3 2 2 3
22 24 25 27 29 30 32 33 34 33 21 13 7 9 12 8 4 3 4 5 3 5 14 6 5 1 4 4 4 3 6 4 3 7 2 4 4 2 2 4 2 4 5 3 2 1 4
20 23 24 26 28 29 30 32 35 34 21 9 4 3 3 8 2 2 2 3 2 0 2 1 4 4 7 5 5 4 10 3 7 4 6 0 4 3 5 4 7 3 1 3 3 4 3
18 21 23 26 28 29 30 33 34 33 22 9 3 3 3 9 3 2 1 2 4 5 3 2 4 5 8 5 4 4 8 4 8 5 6 3 4 3 7 3 4 4 6 5 4 3 3
16 19 21 24 26 28 30 33 35 33 16 7 2 2 2 3 3 2 2 3 4 5 4 1 3 4 5 6 5 3 4 4 9 6 8 4 2 2 3 4 2 3 5 5 2 3 6
14 16 19 22 25 26 29 32 36 28 12 4 2 3 3 3 0 2 4 4 4 4 3 4 5 11 4 4 1 4 2 4 3 3 8 6 3 5 5 5 3 3 5 7 7 3 3
12 13 17 20 22 24 27 30 32 30 12 3 3 2 1 3 3 2 2 2 5 5 5 5 3 3 4 3 4 4 2 3 5 3 3 4 3 2 5 7 5 6 8 8 9 14 8
10 11 14 17 20 23 24 28 31 33 8 7 2 3 4 3 5 4 3 1 4 3 5 4 5 3 3 3 3 6 6 3 4 0 3 1 1 2 5 6 8 7 11 12 14 16 17
9 12 11 13 17 19 21 24 27 31 17 6 5 4 2 4 5 3 2 1 2 2 3 3 4 5 7 3 3 3 3 7 7 7 3 5 4 2 4 4 5 5 9 11 5 7 7
9 13 10 11 13 15 17 19 21 23 24 5 5 2 2 4 1 2 5 3 1 2 3 3 4 3 2 2 3 4 6 6 6 4 5 5 4 2 4 5 1 3 1 5 8 7 9
10 13 11 11 12 11 14 14 16 18 19 10 8 3 2 4 4 6 7 3 2 3 2 2 3 0 1 3 3 3 3 2 5 5 6 4 4 1 2 3 6 4 3 5 6 7 5
11 13 14 10 11 12 10 10 12 12 14 16 4 9 1 3 4 5 4 1 3 1 4 1 2 2 3 2 2 4 4 4 3 2 4 4 4 3 2 1 3 4 0 3 4 4 4
13 12 15 9 13 12 11 10 10 9 9 11 2 9 2 2 3 3 4 2 2 2 2 1 2 2 3 2 2 3 3 3 5 6 5 3 3 5 4 3 7 7 3 4 2 4 4
11 13 14 13 12 13 13 12 10 9 8 5 7 1 3 3 7 6 5 4 4 2 4 3 3 2 2 2 3 3 2 3 2 4 6 7 5 3 4 4 7 5 3 3 4 3 3
11 14 14 16 13 12 13 13 12 12 10 8 5 6 6 4 5 15 23 30 16 6 3 3 3 3 4 3 1 1 1 1 2 2 2 4 6 4 7 5 5 3 5 4 1 3 3

GFSGBSN_925_spd_027.txt.gz
Wind_Speed
20 23 23 23 24 27 25 25 25 25 24 24 22 20 19 18 18 16 16 15 15 17 20 19 20 17 11 6 8 5 4 19 28 27 22 10 5 5 7 6 3 4 2 3 4 7 3
19 24 23 25 25 27 24 26 26 24 23 23 22 20 18 17 17 15 15 15 17 17 18 18 17 17 8 11 10 16 13 23 25 22 17 13 7 4 4 3 7 5 7 7 4 5 3
22 23 23 25 27 26 24 26 26 22 23 23 22 20 17 17 16 14 15 16 16 18 18 16 16 14 7 13 5 7 10 24 24 22 7 14 6 4 3 4 5 2 3 1 4 4 5
21 24 25 27 25 26 25 26 24 24 21 23 21 20 19 16 15 15 17 17 18 18 17 15 15 8 4 22 15 1 8 17 21 19 15 19 12 1 3 3 3 6 3 3 3 5 5
24 26 26 27 27 27 26 26 27 24 22 23 20 18 18 16 16 16 17 19 20 20 17 13 9 6 3 3 7 13 5 7 13 14 8 16 7 4 2 6 3 2 4 4 5 4 4
24 26 26 27 29 28 27 26 25 26 23 21 21 18 17 16 17 14 16 20 24 15 8 5 7 1 3 4 7 8 7 14 4 8 8 4 3 4 3 3 7 5 4 2 4 2 3
24 26 27 29 31 30 28 27 25 25 27 22 21 19 18 16 15 13 19 8 4 2 2 1 2 4 6 6 14 7 6 6 3 3 7 7 4 11 10 7 4 6 3 3 3 4 4
25 27 28 30 30 29 28 29 28 28 28 26 21 18 16 13 12 9 5 1 4 1 3 3 10 7 4 7 5 7 13 4 5 3 6 5 4 3 5 5 1 2 1 3 5 2 2
24 27 28 28 30 29 29 31 31 31 29 28 25 21 18 16 9 6 6 6 5 1 1 2 2 3 3 8 4 7 7 3 3 4 4 6 4 12 7 3 4 1 4 3 4 4 2
24 26 27 27 30 30 31 31 32 33 34 32 28 25 20 11 4 4 4 0 4 3 4 1 3 2 2 6 5 5 3 2 2 9 7 6 4 7 8 7 5 4 2 3 3 3 3
23 25 27 29 29 29 31 33 36 36 31 25 21 13 13 6 13 7 2 4 2 1 5 5 3 4 3 4 11 0 2 1 3 5 4 1 4 9 5 4 4 3 4 4 3 3 2
22 24 27 29 28 30 31 34 35 34 27 26 20 14 8 11 7 7 6 5 1 3 3 2 3 6 6 4 4 4 1 2 4 8 6 3 1 2 2 4 1 6 5 6 4 2 2
22 24 27 28 28 30 31 33 34 31 25 24 21 20 16 7 6 12 9 1 3 2 3 4 7 7 8 5 5 3 0 4 4 5 2 4 3 3 4 6 5 4 5 2 4 3 5
20 23 25 27 28 29 30 32 32 29 23 18 19 18 18 17 17 14 4 2 4 4 3 10 11 13 5 4 5 2 4 3 4 5 3 3 1 4 2 3 5 2 4 4 4 1 4
21 21 22 24 26 28 30 32 32 29 22 11 9 12 12 6 8 4 0 4 1 3 3 8 12 7 4 4 3 4 2 4 3 3 5 4 1 1 1 2 4 3 1 1 5 3 3
20 21 21 23 25 27 29 32 33 31 20 13 6 4 7 7 4 4 4 3 2 3 9 4 5 0 3 3 3 2 4 3 3 3 2 5 4 1 1 3 4 3 7 4 3 1 3
17 20 22 23 25 27 29 30 33 33 21 12 2 2 1 13 4 4 3 3 2 4 4 4 4 5 5 4 4 3 6 2 4 4 2 3 3 1 4 4 6 3 1 4 4 3 3
15 19 20 23 25 27 29 30 32 34 24 9 3 3 9 11 3 2 2 1 4 4 2 2 3 4 4 4 3 2 6 4 5 6 5 2 4 3 5 0 4 3 5 5 4 3 2
15 16 20 21 24 26 30 32 32 32 21 7 2 2 5 6 3 3 3 3 2 3 1 3 2 2 2 4 4 2 5 2 7 6 8 5 1 2 3 2 3 3 4 4 4 3 5
14 15 17 20 22 24 27 31 33 32 16 5 2 3 4 4 1 3 5 4 4 2 1 3 3 4 4 3 1 6 3 3 7 6 8 6 3 4 5 4 3 2 4 6 6 3 3
13 15 15 17 20 22 24 28 32 32 13 3 3 1 1 4 3 4 2 4 4 5 4 3 3 5 4 3 2 3 2 2 4 3 3 4 3 2 4 6 4 6 5 7 8 8 6
12 14 14 15 18 20 21 24 29 32 13 6 2 2 1 3 4 5 4 3 5 4 4 4 4 1 0 5 4 7 6 2 3 2 3 2 3 1 4 4 5 5 9 10 10 11 14
11 12 15 14 15 17 19 20 23 28 15 7 6 4 1 1 4 3 2 4 3 2 3 3 4 4 4 2 1 5 3 5 5 7 3 4 5 2 4 5 5 6 11 12 5 6 10
11 12 14 11 14 15 16 18 19 20 21 5 6 4 2 3 1 2 4 3 4 2 1 3 2 3 2 3 3 4 7 5 6 3 4 5 4 2 3 4 1 5 4 6 12 7 12
11 11 12 12 11 15 15 14 16 15 16 8 9 4 2 3 4 6 2 4 3 3 2 1 2 0 1 3 3 3 3 2 3 4 4 4 3 2 1 2 7 4 4 6 6 6 8
11 13 11 14 9 13 13 11 12 13 12 15 3 9 2 3 3 4 4 2 2 1 4 0 1 2 3 2 2 4 4 4 3 2 4 4 5 2 3 2 4 3 1 3 4 4 5
10 10 11 12 13 10 12 11 10 10 8 11 4 6 1 3 4 2 3 3 3 1 3 2 2 1 3 2 2 3 3 2 5 6 4 3 2 5 4 3 7 6 4 4 2 4 1
10 11 13 12 16 15 10 11 11 9 10 7 8 5 1 2 5 4 3 3 4 2 3 2 3 1 2 3 3 3 3 4 3 3 6 6 6 3 4 4 7 5 4 3 4 3 3
12 13 13 13 17 16 12 11 11 11 11 10 7 8 10 4 5 20 26 29 18 16 3 4 2 3 4 3 1 2 2 2 3 3 1 3 6 4 7 5 4 3 4 4 2 3 4

GFSGBSN_925_spd_030.txt.gz
Wind_Speed
18 24 25 25 25 26 26 24 25 25 24 23 23 21 21 18 16 15 13 14 15 14 16 17 16 14 12 5 8 2 6 11 28 24 17 9 7 5 6 6 5 4 3 5 5 5 3
24 23 25 26 28 27 27 25 25 25 23 21 23 20 19 17 16 14 13 13 15 15 14 15 14 12 7 8 10 20 15 6 28 25 17 12 6 5 5 5 5 6 6 5 4 4 3
23 24 27 27 28 29 29 27 25 26 23 22 21 20 16 17 14 14 13 14 15 15 15 14 12 11 10 8 6 3 8 16 26 25 11 18 10 4 6 4 5 4 2 1 5 4 5
23 24 27 29 29 32 30 27 25 26 24 24 23 19 16 15 14 14 15 16 17 14 13 11 11 7 6 8 19 11 10 17 24 20 22 19 9 4 3 3 4 6 3 2 3 6 5
23 25 27 29 30 32 31 28 28 27 26 25 23 21 18 16 14 14 13 16 17 16 13 9 8 5 5 3 7 19 11 13 22 16 19 21 6 3 3 6 4 2 4 4 5 5 2
23 25 27 30 29 31 29 30 30 30 28 26 24 22 18 16 13 13 15 19 15 5 6 5 9 3 2 4 6 9 6 18 10 12 7 5 4 4 2 4 7 6 3 2 4 2 2
23 25 27 29 28 30 31 32 30 31 31 30 26 22 16 13 11 9 12 6 4 3 0 3 1 3 4 3 17 5 9 9 6 12 7 8 4 14 12 6 4 5 4 4 3 2 2
23 26 28 29 27 28 30 31 33 36 36 32 31 22 19 14 10 5 6 1 3 0 4 0 8 5 6 5 5 1 5 5 2 12 6 5 7 6 8 8 6 5 4 3 4 1 1
22 24 27 30 30 28 30 31 36 36 34 30 29 20 15 12 8 3 4 3 4 1 1 1 6 7 3 1 5 3 2 2 4 4 11 5 4 4 12 9 7 2 4 2 3 4 2
22 23 26 28 28 28 29 31 34 36 35 35 30 23 9 5 2 3 2 4 3 1 4 3 4 0 8 4 5 3 6 1 3 6 12 5 2 6 7 5 4 2 2 2 2 2 2
21 24 26 28 28 28 29 31 33 35 35 34 29 19 11 6 11 2 1 1 1 2 4 2 2 2 4 5 8 2 3 6 5 6 1 3 8 5 8 5 5 3 4 4 2 3 3
20 23 25 27 28 28 28 31 33 33 33 30 28 16 11 10 6 3 1 2 0 4 5 4 3 6 6 4 3 4 2 3 3 10 6 4 5 4 4 4 1 9 5 5 4 3 2
19 21 24 25 27 27 29 30 31 31 29 23 26 19 11 4 3 6 3 3 5 5 2 1 6 5 7 4 5 4 2 4 3 4 4 4 2 1 3 7 4 4 5 2 4 3 4
19 21 23 25 27 27 28 29 29 30 23 15 17 14 17 12 6 2 5 4 8 3 6 5 6 12 6 6 5 3 3 3 5 4 3 3 2 2 2 3 5 2 5 4 4 1 3
16 19 22 25 26 29 29 29 29 29 23 14 9 7 9 7 2 6 2 5 0 2 4 8 8 7 5 6 4 4 4 2 2 2 5 4 3 2 3 2 3 3 2 2 5 2 2
17 18 20 23 26 27 30 29 29 28 26 13 6 2 5 7 7 4 2 3 2 3 3 5 4 2 3 2 2 2 3 1 4 2 2 2 4 2 2 3 6 2 6 2 3 2 2
16 18 19 22 25 27 30 32 30 30 28 7 3 3 3 13 2 3 3 3 1 2 3 3 2 3 4 4 3 4 4 1 2 3 5 3 3 1 3 2 6 2 1 4 4 3 3
15 17 19 21 23 26 29 32 33 32 26 8 3 3 6 8 4 2 2 5 6 4 2 3 4 3 3 2 2 2 7 2 4 6 5 2 4 2 2 1 1 2 5 4 4 4 1
14 16 18 20 22 25 28 30 33 33 23 6 2 2 4 3 3 3 5 3 2 3 3 0 2 1 2 4 3 2 3 1 6 4 6 5 1 3 4 3 2 3 4 4 4 3 5
14 16 16 19 21 24 27 30 32 32 18 5 2 3 4 4 1 2 5 4 4 2 2 3 3 3 3 2 4 4 2 4 6 6 7 5 3 4 5 5 4 2 4 5 5 3 3
14 15 16 17 19 21 25 27 31 33 14 2 3 2 0 3 1 2 2 2 3 4 4 1 2 3 4 3 2 3 2 2 4 2 3 4 3 1 4 4 3 4 4 8 8 6 6
13 15 15 16 17 19 22 25 28 33 13 6 3 2 2 3 3 0 3 3 4 4 2 2 5 3 3 4 5 7 5 3 3 2 4 1 3 1 4 3 4 5 9 9 11 11 12
12 14 14 16 14 18 19 20 23 27 16 6 6 3 0 3 4 1 2 2 3 4 2 3 4 3 3 1 2 3 2 5 5 7 3 4 5 2 4 3 5 5 8 12 7 6 9
12 14 14 14 12 15 19 17 17 19 22 6 6 4 2 3 1 2 4 4 2 3 2 2 2 3 2 3 2 6 7 6 6 3 4 5 4 3 2 4 1 3 4 6 11 5 11
12 14 15 13 11 15 14 16 14 14 15 12 7 3 2 3 4 6 5 5 7 1 1 0 2 0 1 3 3 3 2 1 2 2 3 3 4 2 2 2 6 3 3 6 5 3 9
12 12 11 13 13 12 10 11 13 12 12 13 6 9 2 2 3 4 5 3 3 2 2 2 1 1 4 2 2 3 4 4 3 2 3 4 4 3 2 2 3 4 0 3 3 1 2
13 12 13 13 12 15 12 9 9 10 8 11 4 6 2 1 2 3 2 3 3 2 2 2 3 2 2 2 2 3 3 4 5 6 5 4 2 5 4 3 6 6 3 3 1 3 2
12 11 18 16 15 14 15 10 8 8 8 8 7 6 1 2 6 3 3 1 4 3 2 3 2 1 2 3 3 3 3 5 2 3 6 7 7 4 5 4 7 5 4 4 3 3 3
12 18 19 16 14 13 15 16 11 7 8 8 4 8 11 4 5 13 23 25 17 18 5 4 3 4 4 3 1 2 2 2 3 3 1 4 6 4 7 5 3 3 2 3 4 4 3

GFSGBSN_925_spd_033.txt.gz
Wind_Speed
22 22 23 25 26 28 28 30 26 23 25 25 22 21 18 15 13 13 12 10 10 10 10 11 10 9 8 4 9 5 8 6 28 27 20 9 13 8 13 6 5 2 4 4 2 1 2
22 23 24 26 27 28 32 30 27 25 26 25 23 21 19 15 15 11 9 9 10 10 10 9 8 8 5 8 6 15 14 6 30 27 19 12 10 4 7 6 5 8 4 3 1 2 1
23 23 25 26 29 28 29 28 26 26 28 25 23 21 17 16 14 11 10 9 10 11 9 9 8 6 8 13 3 9 6 8 34 25 13 12 18 5 6 5 4 6 4 2 4 4 3
22 23 25 27 29 28 31 29 30 30 28 27 24 21 18 15 14 11 11 10 11 11 10 9 6 6 6 15 17 19 8 7 27 24 20 17 13 5 2 4 4 5 3 4 2 7 4
23 25 26 29 30 27 29 29 29 30 30 29 27 22 17 15 13 11 11 13 13 15 12 7 5 5 5 4 7 16 6 9 20 21 23 19 9 3 3 6 4 2 4 4 3 7 3
23 25 26 29 30 30 29 31 31 33 32 30 26 23 15 13 9 9 10 14 8 1 4 3 4 4 4 3 4 7 2 8 11 16 14 10 3 4 2 4 8 6 4 3 6 2 2
22 24 27 29 31 29 30 30 32 34 35 34 30 26 15 10 6 5 6 3 3 4 1 4 3 4 4 2 4 4 4 13 11 12 7 9 4 14 12 3 4 6 5 3 2 1 1
21 23 25 29 30 30 30 31 31 34 36 35 33 22 9 7 4 2 3 3 1 1 2 2 8 6 9 2 4 3 2 7 7 12 9 6 7 7 9 5 7 5 5 3 1 2 0
21 24 25 26 29 29 30 31 30 32 35 36 34 24 6 7 6 3 4 2 2 0 2 4 5 5 1 3 5 4 3 7 15 13 14 11 5 12 10 5 7 3 4 3 2 2 2
21 23 26 27 27 28 30 30 30 30 33 32 29 27 14 7 5 4 2 4 3 1 2 4 5 2 3 1 4 3 2 2 4 13 9 3 1 13 13 12 9 5 3 4 4 2 2
20 22 24 27 28 27 29 30 30 29 28 27 27 19 13 11 3 3 4 2 1 1 4 1 3 3 1 3 4 9 7 8 7 10 5 3 7 8 11 7 4 4 5 4 3 4 2
18 21 23 25 27 28 29 30 29 28 24 23 25 18 11 9 8 6 4 5 3 4 7 2 3 9 2 4 3 3 6 6 5 8 10 4 4 3 3 6 5 10 6 6 4 2 1
17 20 22 24 26 28 29 29 28 27 23 18 15 17 18 12 1 5 8 4 4 6 3 5 5 3 5 5 4 3 4 3 3 4 4 3 3 3 6 6 3 2 4 1 2 1 3
16 20 22 24 26 27 29 30 29 28 26 19 9 9 9 10 5 7 4 3 10 5 7 3 5 11 6 7 4 2 3 4 5 6 3 3 3 1 1 3 6 2 4 3 4 3 2
15 17 21 23 25 26 27 29 31 31 29 22 9 6 4 7 7 9 1 7 3 2 2 4 4 6 3 5 4 3 3 2 2 3 4 4 3 2 4 2 1 4 2 3 6 2 1
15 17 20 22 24 26 27 28 30 31 30 15 6 6 2 8 8 4 4 4 2 3 1 3 3 1 3 1 3 2 2 1 3 1 1 4 5 2 1 3 7 2 6 3 2 3 3
13 15 18 21 23 26 28 29 29 31 30 12 3 3 4 11 2 4 3 4 2 3 2 1 3 3 3 3 2 2 4 2 1 2 4 3 3 0 3 1 6 2 2 5 3 2 3
13 14 17 19 22 26 27 29 30 31 29 10 2 3 6 5 4 2 2 3 3 3 2 3 3 3 3 3 3 2 5 1 3 5 3 1 4 3 1 1 1 1 4 4 3 4 1
14 15 17 18 21 24 27 28 31 32 24 7 2 2 5 4 3 2 4 4 2 4 3 3 1 1 1 3 3 2 4 2 5 4 6 5 1 3 2 2 1 3 3 3 4 2 5
14 15 16 18 19 22 25 28 30 32 20 5 2 2 4 4 2 3 1 1 4 2 2 2 2 2 3 3 4 3 2 2 4 1 7 6 3 4 4 4 3 3 4 5 5 3 3
13 15 17 18 17 20 23 25 29 32 16 4 3 2 2 2 3 3 1 1 2 4 1 0 2 1 3 2 2 2 2 3 2 5 3 4 3 2 2 2 3 3 4 8 7 4 5
13 15 17 15 17 19 22 22 25 31 13 7 2 3 2 1 2 3 1 2 0 2 1 0 4 3 1 4 5 7 5 2 3 2 3 2 3 2 3 1 4 5 8 8 11 8 9
12 14 16 16 16 17 20 19 21 25 17 6 5 3 2 1 3 1 1 3 2 4 1 1 7 4 2 2 3 3 2 3 5 7 3 4 5 2 4 1 4 6 11 14 6 5 10
11 13 15 16 15 14 17 17 16 18 21 5 5 3 2 2 0 1 3 3 4 6 2 1 2 3 3 5 5 6 7 6 6 3 3 5 5 3 3 2 1 4 4 7 14 6 12
12 14 14 13 13 14 14 15 14 12 14 12 8 3 2 3 3 3 6 4 7 4 2 2 2 2 3 2 3 3 2 2 2 2 3 2 4 2 2 3 6 2 3 6 6 1 11
11 14 13 15 14 13 16 12 11 11 10 11 7 7 2 2 3 4 3 2 3 3 4 2 2 1 3 2 2 4 4 4 3 1 4 4 4 3 2 2 4 4 2 4 3 1 3
12 13 13 16 16 13 13 15 9 8 8 9 4 6 2 0 3 2 3 2 2 1 2 4 1 1 2 2 2 3 4 4 5 7 5 3 2 5 4 3 6 6 3 4 3 3 2
13 14 16 17 15 15 14 13 15 8 4 7 6 7 2 2 5 4 3 2 3 3 2 3 1 1 2 4 3 4 4 5 4 5 7 8 7 4 4 3 8 5 4 5 2 1 3
15 11 13 15 15 15 16 12 14 16 4 5 4 7 8 3 5 14 20 18 15 9 2 3 3 3 4 3 1 3 3 2 5 3 1 4 6 5 7 6 4 3 1 1 4 4 2

GFSGBSN_925_spd_036.txt.gz
Wind_Speed
21 22 23 24 25 29 28 29 27 26 26 26 25 21 19 17 13 12 11 8 6 5 5 6 7 5 2 8 11 6 4 3 28 24 24 18 22 14 18 15 12 13 7 8 5 7 6
20 22 23 24 26 28 25 28 29 28 26 25 25 19 17 17 12 10 9 8 6 5 6 7 5 5 8 12 8 15 12 4 24 28 26 22 18 14 13 12 14 12 5 13 9 7 5
21 23 25 26 28 29 26 27 28 28 30 28 26 23 16 14 14 12 7 8 7 6 7 6 5 5 10 13 5 4 10 5 22 29 22 21 16 15 10 7 7 7 14 7 10 9 8
22 24 25 27 28 28 27 27 28 31 30 29 27 24 18 11 11 10 6 7 8 8 7 6 4 4 6 13 23 10 3 5 19 25 24 15 23 12 8 6 10 11 6 10 11 15 6
22 24 25 28 27 27 28 27 31 31 31 30 28 25 16 9 4 4 5 7 10 11 10 4 3 5 6 5 11 9 7 6 26 22 22 16 19 12 7 14 9 14 11 17 5 8 9
21 23 25 27 28 27 27 30 30 30 32 32 29 23 11 2 1 1 3 7 2 3 7 5 3 4 8 10 12 13 13 12 23 19 14 14 7 12 13 15 15 17 16 12 14 5 9
22 24 25 26 26 27 28 29 30 30 31 33 31 19 9 8 3 3 3 3 2 3 4 3 1 4 8 10 15 12 13 14 16 18 10 15 8 16 21 18 3 10 16 9 8 4 6
21 22 24 26 27 27 27 28 30 29 29 33 30 19 15 11 9 7 6 3 2 3 2 1 5 8 15 9 7 4 5 5 16 21 15 9 13 17 14 11 9 14 13 10 5 4 5
19 21 23 25 27 26 26 27 29 27 26 27 22 18 13 11 9 9 8 4 3 3 1 5 1 5 5 7 5 3 5 2 18 18 20 10 12 13 14 12 12 9 11 8 3 5 1
18 20 21 24 26 27 26 27 27 26 24 23 18 14 13 5 5 4 5 5 2 2 1 3 2 3 0 3 5 5 4 2 4 9 10 7 5 18 17 16 13 9 4 7 5 4 4
17 19 20 22 25 27 27 26 26 25 24 21 21 14 13 14 2 4 5 5 5 2 3 2 5 6 4 6 6 7 2 1 7 13 5 4 6 17 18 18 14 3 7 7 4 2 2
16 18 20 21 24 26 27 26 25 25 24 20 14 14 8 6 7 3 4 6 3 3 8 5 3 2 6 2 3 6 6 6 7 9 14 5 3 3 3 7 7 15 10 7 3 0 3
15 18 20 22 24 26 28 29 27 25 24 22 13 6 10 5 0 3 7 2 1 6 2 5 4 7 6 5 4 4 4 3 5 5 3 0 4 3 4 8 6 5 10 3 4 3 2
13 17 20 22 24 26 27 29 30 29 27 25 9 6 5 5 3 4 2 2 9 5 8 2 6 9 4 2 3 4 4 5 5 8 4 3 4 3 1 0 5 9 5 3 4 4 3
13 16 19 21 23 27 28 29 30 31 32 23 9 2 3 6 7 3 2 6 2 1 2 4 4 5 2 2 4 4 3 4 4 0 2 4 4 2 4 7 4 4 4 2 4 1 2
13 16 19 21 23 26 29 31 32 32 33 19 4 3 1 5 4 2 3 5 2 2 3 2 3 2 3 3 2 2 3 1 3 2 2 3 6 2 3 1 8 2 8 2 1 5 5
13 15 18 20 22 25 27 31 32 34 32 14 3 1 1 8 1 2 4 3 2 2 3 3 2 2 3 3 2 2 3 2 1 2 2 5 3 3 3 4 6 4 3 1 0 2 2
13 15 17 20 23 25 28 31 32 33 32 11 3 1 6 3 2 2 2 1 1 2 1 1 2 2 1 2 2 2 3 2 3 4 4 2 4 4 1 2 4 3 3 5 3 4 1
13 14 17 18 20 24 27 30 32 32 26 8 3 2 4 4 2 3 4 4 3 0 1 1 1 0 1 2 1 2 2 2 4 2 5 6 3 5 2 1 1 5 7 4 3 1 5
11 14 17 17 19 22 27 28 30 32 26 5 3 1 2 3 2 2 2 1 1 1 1 1 2 2 4 3 2 4 4 1 1 1 4 3 2 1 3 3 4 5 10 11 7 4 5
10 12 16 19 20 20 24 25 28 32 23 3 3 2 1 1 3 2 1 1 2 2 2 3 2 3 4 4 4 4 3 3 2 4 2 1 2 1 2 2 4 3 6 13 11 10 6
9 11 15 16 15 17 21 23 25 32 19 3 2 2 2 0 2 3 2 2 1 1 1 3 3 6 5 3 3 6 7 5 3 4 3 1 3 1 2 3 7 8 11 12 16 16 16
10 12 13 15 17 15 18 21 22 26 22 6 5 3 2 1 1 2 1 0 0 3 2 3 5 4 3 2 3 1 4 5 6 8 5 5 5 2 1 1 4 8 16 19 11 9 14
7 11 14 13 16 16 19 18 17 18 22 8 5 4 2 1 1 1 3 4 4 3 3 2 3 2 4 8 9 8 7 7 7 5 5 6 4 2 1 2 4 3 3 3 17 11 17
6 9 12 13 15 15 14 16 15 15 14 11 9 4 3 2 3 2 3 4 9 4 3 2 1 2 6 2 3 4 2 4 3 3 5 4 4 2 2 3 8 5 5 6 6 1 15
7 9 11 14 15 14 13 14 17 10 11 11 7 10 2 2 1 3 3 3 3 3 2 1 2 1 1 2 2 4 4 3 4 5 2 4 5 4 2 2 3 3 2 5 3 4 3
11 10 12 12 15 12 13 16 12 15 7 9 4 6 2 3 2 2 1 2 4 2 3 3 3 2 0 3 5 5 4 1 5 7 6 6 3 10 8 5 7 6 1 4 4 4 3
12 10 10 12 13 17 12 15 11 12 6 7 7 4 0 2 7 4 3 4 3 3 3 5 3 2 1 5 3 3 5 5 4 5 6 10 7 5 6 5 8 5 4 4 4 2 1
9 8 8 10 11 13 13 11 8 10 10 7 4 5 5 4 5 9 16 17 16 12 3 2 4 4 2 4 3 2 3 4 5 4 4 6 6 5 8 5 1 5 1 2 0 2 1

GFSGBSN_925_spd_039.txt.gz
Wind_Speed
22 22 23 24 26 27 28 28 28 28 28 29 29 26 21 17 15 14 11 9 5 4 3 3 4 4 5 9 14 6 12 17 22 23 24 17 23 18 17 18 16 16 10 15 8 5 8
22 23 24 25 27 27 26 27 28 30 30 29 27 24 20 16 13 11 10 9 5 3 3 3 3 7 7 13 9 8 6 4 22 25 27 24 20 18 11 9 19 12 12 11 11 7 6
22 22 24 25 27 26 28 27 30 30 31 30 31 25 20 14 12 8 8 6 4 4 4 4 3 5 11 13 5 2 9 7 7 29 21 24 19 18 8 6 10 9 16 8 13 11 6
21 23 24 26 27 26 26 29 31 32 32 34 30 25 18 10 5 4 5 3 4 3 4 4 3 5 7 10 20 14 5 8 8 28 24 20 17 17 6 4 11 10 13 13 11 11 8
21 22 24 25 26 26 27 28 31 32 32 35 32 22 12 4 4 2 0 3 6 7 6 4 6 9 9 1 13 16 12 5 14 24 21 15 13 15 10 14 11 13 12 17 12 15 11
20 22 24 25 27 26 27 27 30 31 31 32 30 17 9 9 5 4 2 3 1 3 5 6 7 6 9 9 12 13 13 8 13 18 12 7 7 13 12 13 16 18 20 17 16 10 15
19 21 23 25 27 27 27 27 29 29 29 26 23 17 14 9 6 5 3 1 3 3 6 4 6 3 8 8 9 11 5 3 21 15 13 9 8 19 26 23 17 13 17 14 13 8 8
18 21 23 24 26 28 28 27 28 27 27 24 17 12 14 10 11 7 4 2 6 2 1 1 4 8 14 8 3 4 2 1 21 14 18 6 8 18 17 19 16 9 14 13 4 9 7
17 20 22 24 26 28 28 28 28 27 26 23 18 11 9 6 7 10 11 6 3 4 1 4 4 9 3 6 5 7 4 1 19 20 18 14 9 13 12 14 13 12 14 14 6 9 9
16 20 22 24 26 27 28 28 28 27 25 24 19 14 11 0 0 2 3 4 3 5 1 3 3 1 5 8 4 6 7 2 3 19 17 8 7 15 15 17 15 12 4 7 6 9 5
15 18 20 23 25 27 28 28 28 28 27 25 21 16 9 4 2 1 2 3 4 2 3 4 2 4 1 5 9 7 4 5 2 7 4 4 13 16 17 17 16 6 11 8 5 6 3
13 17 19 21 23 26 29 29 29 29 28 28 25 14 12 6 1 2 2 4 3 2 8 5 6 5 5 9 4 5 4 7 4 7 9 5 3 3 2 4 5 12 12 8 4 2 4
12 15 18 21 24 26 28 31 30 29 31 31 29 15 8 6 5 2 3 3 2 5 3 5 4 6 7 5 3 3 4 5 3 5 2 3 4 3 3 9 10 9 14 5 5 4 4
11 14 17 20 22 25 28 31 34 33 32 35 26 15 8 7 5 4 3 3 7 5 6 4 4 5 3 2 4 3 2 3 5 6 3 4 2 1 4 3 7 13 14 2 7 6 7
10 13 16 18 22 24 27 30 33 36 38 39 16 6 5 2 3 4 4 5 2 3 2 3 3 2 3 5 6 5 6 5 4 4 2 4 4 4 1 2 2 4 6 3 2 1 2
10 13 16 19 20 23 26 30 33 35 40 32 10 6 5 2 1 5 1 4 1 1 2 3 1 3 3 5 4 5 1 2 4 2 3 4 6 6 9 5 4 2 1 3 2 4 5
10 12 15 15 20 22 26 28 32 34 38 21 4 4 3 3 3 3 4 2 3 1 3 4 2 1 1 4 3 3 2 3 1 3 0 4 4 5 7 7 9 4 2 4 4 2 3
9 11 14 17 20 22 28 30 30 33 36 15 5 3 1 1 1 0 4 5 2 1 2 2 0 2 1 3 4 2 3 3 3 2 3 3 4 5 2 2 4 5 5 10 3 4 1
8 11 14 18 18 21 24 28 30 31 28 9 6 3 1 2 1 3 3 5 2 4 2 2 2 1 2 4 2 3 3 2 2 1 3 5 4 4 3 4 4 6 10 7 1 3 5
7 11 14 17 19 20 22 25 27 30 26 4 3 3 2 2 1 2 4 4 3 2 2 1 1 2 5 6 0 6 6 2 2 2 5 0 2 2 1 3 4 5 11 12 9 4 5
8 11 14 17 19 19 21 25 28 32 18 2 2 2 3 3 2 3 3 1 3 2 2 2 3 6 5 3 5 4 7 6 3 4 2 2 2 1 3 1 3 4 7 13 13 12 7
8 11 14 15 18 19 21 22 23 30 13 5 4 4 6 5 6 6 2 2 2 0 2 1 4 3 4 3 4 6 8 7 6 8 5 2 2 1 2 4 6 9 11 11 16 17 18
5 9 12 15 16 16 17 20 22 25 18 7 7 5 2 2 4 5 1 2 1 4 2 3 3 3 4 2 5 4 2 4 4 7 10 6 5 2 1 2 3 10 18 19 15 11 17
6 8 11 13 15 16 16 17 20 20 19 9 6 2 3 3 3 4 6 5 4 5 5 4 4 4 4 5 7 5 2 3 6 5 6 7 5 3 1 3 5 2 3 2 19 13 15
6 8 11 12 14 16 17 15 16 14 14 10 7 4 3 5 7 5 7 7 9 5 4 4 1 3 5 2 3 4 3 3 4 4 7 8 7 3 3 6 10 10 6 5 7 8 18
8 10 11 12 13 14 12 17 13 13 10 6 5 6 2 3 4 7 9 7 4 4 4 2 2 2 4 3 2 3 4 4 4 5 4 6 8 5 3 3 4 4 3 4 5 4 4
10 12 10 10 12 14 12 13 13 12 7 4 2 6 1 2 2 5 4 6 6 4 5 3 4 2 2 4 4 4 4 0 4 6 6 7 7 9 8 4 6 3 5 5 4 4 5
7 7 8 9 10 11 14 12 12 12 11 3 3 4 2 2 9 7 5 6 6 5 4 5 3 4 1 5 3 4 6 7 5 5 7 10 6 6 7 5 7 8 5 4 5 6 6
7 8 8 8 11 12 12 12 11 14 8 9 4 2 3 4 6 15 17 18 17 12 5 3 3 4 5 4 5 4 6 4 8 4 10 6 6 4 6 4 4 5 3 6 2 2 2

GFSGBSN_925_spd_042.txt.gz
Wind_Speed
21 22 23 25 26 26 27 27 28 30 31 33 32 32 27 22 18 12 9 7 7 3 2 1 1 1 6 8 14 6 15 26 22 24 22 13 19 16 15 16 11 17 12 15 17 8 2
20 21 23 25 26 26 27 28 30 32 33 34 34 30 24 19 13 8 6 6 3 2 1 1 2 5 8 10 10 4 6 19 21 28 23 18 13 13 7 9 13 9 14 9 7 5 1
19 21 22 23 25 26 27 28 29 32 33 35 36 29 19 15 11 4 3 2 2 2 1 1 3 6 10 11 4 3 3 1 22 29 17 22 18 10 4 3 6 5 6 8 4 6 2
18 20 22 24 26 26 26 27 29 31 31 33 31 23 18 12 8 5 1 1 2 1 2 2 3 8 7 9 17 10 5 10 9 16 19 24 17 9 3 4 1 6 2 8 8 9 4
18 19 21 23 25 26 26 27 28 30 30 29 27 25 19 14 10 5 3 1 4 5 4 2 3 4 5 3 12 10 12 7 7 18 24 18 4 3 6 5 4 5 7 12 9 12 5
17 19 20 22 24 26 26 26 26 28 29 25 22 21 18 14 12 9 6 2 1 3 2 2 5 4 3 5 5 11 9 7 4 13 15 7 4 5 4 7 11 15 14 14 13 11 14
16 19 20 22 23 25 26 26 25 26 26 25 21 19 17 13 11 9 6 5 1 2 4 2 3 11 6 18 9 7 5 2 5 7 9 8 6 18 22 17 7 9 12 13 14 9 11
14 17 20 21 23 24 25 25 26 25 25 24 22 18 16 12 10 12 8 2 4 1 3 2 4 6 8 8 3 3 1 7 8 13 14 7 11 11 13 12 15 9 5 15 2 8 5
13 16 18 20 22 24 25 26 26 26 25 23 21 19 16 10 6 5 9 4 4 4 1 4 3 3 2 3 5 9 3 1 10 13 13 9 6 14 17 16 15 11 8 9 4 6 2
13 15 18 20 22 24 26 26 26 26 26 24 22 20 16 11 5 1 3 1 1 3 2 5 3 2 2 3 3 3 2 5 3 14 11 7 6 7 8 15 15 9 8 5 8 5 3
11 14 16 19 23 24 27 26 26 26 27 27 23 22 12 7 7 3 2 2 2 0 2 3 3 4 2 4 4 6 8 2 5 9 4 1 8 5 12 12 8 5 11 7 5 4 4
10 13 15 18 21 24 26 27 29 29 28 27 28 19 9 5 5 2 1 3 3 2 4 1 2 4 5 5 3 5 5 5 4 7 8 4 4 2 2 3 5 7 10 8 2 2 2
10 12 15 17 20 23 26 29 31 31 32 32 30 16 7 3 1 1 3 1 2 4 1 3 4 5 6 2 4 2 4 4 3 5 3 5 3 3 3 7 6 9 9 3 1 1 4
9 12 14 16 19 22 25 28 32 32 33 39 24 8 2 7 1 1 1 3 4 2 2 3 5 7 3 2 4 3 7 3 1 3 4 3 2 1 2 0 5 7 7 4 5 4 4
8 12 15 17 21 22 25 28 31 34 38 34 16 1 1 2 5 4 2 4 1 2 2 3 6 2 3 5 6 5 3 4 5 3 3 3 3 2 2 4 2 3 2 4 3 3 3
9 12 15 18 19 23 26 30 32 34 38 25 13 6 2 6 4 4 2 4 2 2 3 4 1 1 3 5 4 7 5 2 7 6 6 5 5 2 3 1 4 3 4 2 1 2 4
9 12 15 19 20 23 25 29 31 33 38 20 3 3 3 1 5 3 2 0 4 2 3 4 4 1 3 3 3 2 5 4 2 6 6 5 4 6 6 5 6 2 1 3 2 2 2
7 11 14 17 20 21 24 26 30 32 35 16 5 2 7 8 1 2 2 3 1 2 2 0 2 4 3 2 1 4 5 5 3 3 5 3 5 3 2 5 5 4 4 2 2 3 1
7 10 13 17 20 21 23 27 30 31 29 9 4 2 5 5 1 2 1 3 2 1 1 1 1 3 2 2 1 5 6 1 2 2 2 4 3 4 3 3 4 5 7 8 3 3 4
7 10 14 17 19 22 24 27 30 33 25 6 3 3 1 3 2 4 3 5 3 1 2 2 4 3 2 1 3 4 6 2 3 4 4 4 2 2 3 2 5 5 8 10 5 3 3
7 10 15 17 19 21 22 25 29 34 14 5 2 2 1 3 4 7 5 5 3 3 3 2 4 6 5 3 3 3 6 4 2 3 1 3 3 3 4 4 4 2 6 10 9 7 4
5 10 13 16 18 20 21 22 26 32 17 7 4 3 5 4 3 5 3 1 3 3 2 3 3 3 3 3 1 2 5 5 3 4 4 2 2 2 2 4 3 5 7 8 11 12 11
5 8 11 14 18 19 18 20 23 27 21 7 6 6 2 6 4 3 4 8 7 5 3 2 6 2 4 5 6 6 5 2 4 6 5 4 3 2 1 3 3 6 15 16 10 8 13
3 7 10 13 15 16 17 21 17 18 18 9 6 3 3 4 5 5 7 7 6 6 4 8 5 4 2 3 2 0 2 3 5 4 5 5 3 2 1 2 2 5 3 4 18 11 10
4 7 10 12 15 16 15 18 18 17 16 10 10 6 3 3 6 7 11 8 8 7 5 3 6 4 4 4 2 3 2 2 4 4 4 4 4 2 3 4 7 6 4 4 6 9 14
5 9 11 10 13 13 14 14 15 17 15 9 9 9 3 3 4 5 5 6 5 6 4 2 5 6 3 2 2 3 3 5 4 5 3 6 3 2 3 3 3 3 4 2 3 2 2
4 7 8 9 10 11 13 13 12 15 15 9 5 10 5 3 2 5 4 4 4 3 3 2 6 3 3 2 2 2 2 3 4 5 5 3 3 5 5 3 6 3 6 2 2 2 3
2 6 9 9 10 11 15 14 10 12 13 10 8 5 5 3 6 2 3 4 4 3 2 5 3 2 2 2 2 3 3 5 3 3 6 7 5 4 4 4 7 4 4 1 4 5 5
4 6 10 10 9 9 13 11 13 11 9 9 3 2 9 4 5 20 16 16 11 7 3 3 1 2 3 3 3 3 3 2 6 3 6 4 6 4 6 5 4 5 3 4 4 5 4

GFSGBSN_925_spd_045.txt.gz
Wind_Speed
18 19 21 22 23 23 24 25 24 28 29 31 32 28 23 17 14 8 4 3 4 1 1 1 2 6 7 2 8 17 14 34 29 26 26 12 13 7 7 6 8 4 3 10 8 11 8
18 19 21 21 23 23 23 24 25 27 28 29 29 25 22 17 12 7 5 4 3 2 2 1 3 5 2 4 7 8 8 28 24 27 22 16 12 10 5 11 7 8 8 6 4 7 8
17 18 20 20 22 22 23 23 24 26 27 27 27 25 23 19 16 10 5 3 3 1 1 0 1 2 4 11 2 14 3 8 20 26 12 17 12 13 6 6 6 3 12 7 4 3 4
16 18 19 20 21 22 23 22 23 25 25 24 23 25 21 17 14 10 6 3 3 1 2 1 1 3 5 12 11 8 6 4 1 12 21 22 17 8 4 3 4 5 6 5 10 9 5
15 17 19 19 20 21 21 22 22 23 23 23 20 20 20 17 14 11 7 5 4 5 3 1 1 3 5 10 3 5 10 6 5 13 20 11 8 5 2 7 3 5 4 5 6 11 5
14 15 17 18 19 20 21 22 22 22 21 21 21 18 17 16 15 12 10 7 4 0 3 5 7 2 4 7 8 2 4 6 5 19 7 6 5 6 5 6 15 13 12 9 8 8 7
13 15 16 18 19 20 21 22 22 22 22 20 19 18 17 13 13 11 10 3 4 2 1 0 3 4 7 12 2 4 3 2 5 8 6 5 10 19 18 6 5 6 7 5 7 7 7
12 13 16 17 19 20 21 22 22 22 21 21 19 16 15 8 8 10 5 4 3 3 4 1 3 4 6 1 1 7 7 5 6 6 16 4 8 5 8 6 7 5 8 8 1 6 10
11 13 15 16 18 19 20 22 22 22 22 20 19 18 12 9 6 3 4 3 2 4 1 5 2 4 2 1 3 4 2 1 6 3 14 8 6 8 8 7 8 6 5 4 5 3 3
11 11 13 15 18 19 21 22 24 23 23 23 20 19 14 6 4 3 2 2 3 3 1 4 1 4 1 2 4 2 2 1 3 14 8 4 3 11 9 9 5 5 5 3 12 5 4
9 12 14 16 18 21 23 25 25 27 26 26 24 20 11 3 3 2 2 2 2 1 4 5 3 3 6 6 3 3 4 5 7 6 3 1 2 5 6 3 2 5 7 7 5 4 3
9 11 14 17 18 20 23 27 29 29 30 31 26 22 7 5 5 3 2 0 1 1 5 1 5 3 4 9 2 5 3 4 1 6 10 4 3 4 2 2 2 4 9 8 5 4 1
9 11 14 16 18 22 23 26 29 30 32 35 34 17 6 7 5 6 2 1 3 5 1 4 4 5 3 3 3 2 3 3 3 6 3 4 3 2 4 5 7 4 7 2 2 1 5
8 11 14 17 20 22 25 26 31 32 34 39 29 4 7 9 9 5 4 0 8 4 1 2 3 3 3 4 2 4 6 3 2 5 4 3 3 1 1 3 3 9 3 5 6 5 4
8 11 14 18 21 23 25 27 29 34 37 41 22 4 7 11 11 8 2 4 6 3 3 1 2 2 4 5 5 4 1 5 4 4 4 5 2 1 2 2 2 5 3 2 2 1 3
8 11 14 18 21 23 25 28 30 33 37 32 16 4 4 14 13 6 2 4 3 3 3 2 2 1 1 4 3 5 3 1 4 3 4 4 5 1 3 1 2 2 1 2 2 2 4
7 10 14 18 20 22 24 29 32 34 40 27 2 2 7 10 12 1 2 3 3 2 2 2 4 2 2 2 1 3 5 6 8 4 5 5 4 3 4 4 5 2 0 2 3 4 3
8 10 14 17 20 22 25 27 31 34 35 19 6 2 9 14 1 3 2 3 2 3 2 2 1 3 4 1 2 4 4 2 8 8 7 3 4 3 2 4 9 1 5 4 4 4 3
6 10 13 17 19 22 25 28 32 33 25 9 3 2 5 5 1 2 2 2 0 2 1 2 1 1 2 2 2 5 4 3 5 2 5 5 2 3 1 2 4 4 5 3 2 2 4
5 8 12 15 19 21 24 27 31 35 21 5 2 3 3 1 4 2 1 4 3 2 1 1 1 2 1 1 1 3 3 1 2 2 1 3 4 6 7 5 5 5 10 10 5 2 3
4 7 12 16 19 21 23 25 29 34 16 5 3 2 1 3 4 6 4 3 2 2 1 2 1 3 2 3 3 4 3 2 2 0 2 3 4 2 2 3 3 4 7 15 11 7 7
2 6 11 14 16 18 23 25 25 31 17 8 3 3 4 3 4 5 6 6 5 5 3 1 1 5 3 3 2 1 6 4 4 1 3 2 1 2 3 4 4 4 7 8 12 11 7
3 5 9 12 14 16 20 24 23 25 22 9 8 6 1 5 5 2 4 5 7 5 4 4 4 3 2 0 2 1 2 4 7 7 5 3 4 3 3 3 1 7 14 15 8 7 15
2 4 7 11 13 15 15 20 23 21 18 10 6 3 3 4 4 4 7 9 10 8 3 6 5 1 4 6 4 3 5 5 6 5 6 5 4 3 2 3 1 6 1 8 17 7 11
1 4 7 8 10 12 15 17 20 18 16 12 12 4 2 3 5 6 10 5 7 7 1 2 4 3 5 4 2 2 2 4 4 5 4 4 4 2 3 3 6 3 3 5 7 8 13
0 4 6 6 8 10 13 14 13 15 16 10 7 11 2 1 2 5 4 4 3 4 5 5 4 7 4 2 1 3 3 4 2 2 2 2 4 3 2 2 4 2 2 2 2 5 1
1 4 5 4 7 9 13 12 11 13 13 10 4 10 3 2 2 4 2 3 4 3 3 2 6 7 4 1 1 2 3 3 3 5 4 2 1 4 4 2 6 6 3 3 3 3 2
2 2 5 5 6 9 12 12 13 12 11 11 4 5 4 1 5 2 4 3 4 3 2 4 2 3 3 1 1 2 2 4 2 4 6 6 5 4 4 4 7 3 3 4 3 2 2
4 3 7 8 5 5 10 11 8 10 10 7 2 6 5 3 5 17 17 13 9 1 1 4 1 1 2 2 2 3 2 1 5 3 2 3 6 4 7 5 5 5 3 1 3 4 2

GFSGBSN_925_spd_048.txt.gz
Wind_Speed
16 17 18 19 20 20 19 20 20 22 22 22 22 23 22 21 15 9 6 5 4 3 2 3 1 2 5 4 8 12 19 23 29 29 24 9 11 7 6 6 6 3 13 13 12 13 12
14 16 18 18 19 20 20 20 20 21 21 20 20 20 20 19 15 10 7 6 5 4 2 1 4 2 1 4 10 10 25 16 34 30 26 11 9 8 4 6 10 7 3 7 11 12 16
13 15 17 17 18 20 20 20 19 19 19 19 18 17 17 16 15 11 6 5 5 2 2 1 2 4 3 6 5 19 9 9 26 29 18 19 11 8 6 5 3 3 8 3 10 14 7
12 14 16 17 18 19 19 19 20 19 18 18 18 16 15 14 12 9 6 4 2 0 2 2 2 1 5 7 11 7 4 3 11 13 23 21 14 7 2 3 5 5 6 5 4 9 7
11 13 15 16 18 19 19 19 19 19 19 18 17 17 15 14 11 11 8 5 4 4 3 1 2 1 6 14 4 4 3 5 6 8 13 19 5 4 2 6 4 3 6 8 6 12 5
10 11 14 16 17 19 20 19 20 20 19 19 19 16 17 14 11 11 8 5 3 2 1 1 7 4 3 6 7 3 3 5 2 11 7 8 5 5 4 7 16 19 9 11 8 11 7
9 10 13 15 16 17 19 20 21 21 20 19 19 20 15 15 12 10 7 2 4 2 2 1 4 4 6 12 5 4 4 6 4 2 4 6 7 17 12 4 6 10 5 5 2 7 7
9 9 12 14 16 17 19 20 21 21 22 21 20 19 18 14 12 9 2 5 2 2 3 2 3 4 9 4 1 2 4 4 2 11 6 6 12 6 9 4 7 9 7 5 1 4 8
8 9 11 13 16 18 19 21 22 23 24 23 22 20 19 12 10 5 3 5 5 4 1 4 1 2 5 1 2 3 2 8 5 13 12 7 8 10 8 4 5 2 6 5 5 3 2
8 9 11 13 16 18 21 22 24 25 25 25 24 21 19 9 5 3 3 5 4 1 2 2 2 1 2 1 3 3 3 3 4 11 8 4 2 9 8 4 4 3 6 5 7 5 4
8 10 12 13 16 19 21 23 25 25 25 26 25 23 18 6 4 3 2 5 2 1 3 4 2 2 3 4 6 4 5 2 9 8 6 2 7 10 7 7 5 5 5 8 4 5 4
8 10 12 14 16 18 22 23 25 27 27 27 27 24 8 6 7 4 5 5 2 5 3 3 1 4 2 3 3 3 2 3 1 6 9 5 3 4 2 2 3 5 6 8 5 3 1
7 9 12 15 17 19 22 23 26 28 29 30 32 16 6 5 2 9 6 2 4 5 0 1 1 5 6 2 4 4 2 4 2 5 4 5 3 2 2 5 3 3 7 2 2 1 7
6 8 12 15 18 21 22 24 27 29 30 33 24 6 5 8 9 5 3 4 7 5 2 2 4 4 2 1 4 3 3 2 3 5 4 3 5 1 3 3 3 4 4 5 6 4 4
5 8 11 15 18 21 22 24 26 28 32 34 13 4 3 8 12 7 0 4 6 6 4 6 3 1 2 2 4 3 2 4 1 3 5 4 2 0 3 2 1 4 2 1 4 2 3
5 7 11 15 18 20 22 24 27 30 34 24 4 2 0 8 9 4 1 3 2 3 1 2 4 6 4 6 5 4 6 6 4 5 3 5 4 2 3 2 1 1 3 1 2 2 4
4 7 11 14 17 20 23 25 26 30 30 15 3 3 3 8 6 1 2 4 2 3 0 1 1 1 1 5 5 5 7 3 7 5 4 6 4 3 4 6 7 3 3 3 0 3 3
3 7 10 14 16 20 22 24 27 30 27 12 2 2 9 8 1 1 1 4 2 1 1 2 1 3 3 3 4 3 5 2 8 6 6 2 5 4 3 5 7 3 4 6 4 5 3
3 6 9 13 16 20 23 24 27 29 21 4 2 1 7 3 1 3 4 2 2 1 1 3 2 3 3 3 3 3 3 3 4 4 6 5 1 3 3 1 1 5 6 5 4 2 6
2 5 8 12 15 18 25 27 27 28 18 1 3 2 1 2 1 1 4 3 2 2 1 1 2 3 2 2 4 2 2 4 3 3 3 5 3 5 6 4 4 5 11 10 8 4 6
4 4 8 11 14 17 22 26 27 28 16 1 3 2 1 3 3 4 1 7 2 2 1 1 1 1 2 1 2 2 2 2 4 2 2 3 4 3 3 2 4 4 6 17 16 15 9
4 2 6 11 13 17 20 24 26 28 10 9 3 3 4 3 4 5 7 7 8 4 1 1 1 5 2 3 1 4 4 2 3 1 2 3 1 2 4 4 4 4 7 11 18 15 12
5 1 5 9 13 15 18 21 22 25 16 7 5 3 1 4 5 2 4 5 8 10 4 4 2 2 4 2 2 3 4 4 6 7 4 3 4 3 4 3 2 7 13 14 11 10 16
5 1 4 8 11 12 15 16 18 19 19 9 4 2 2 2 4 3 7 7 10 9 4 7 5 1 2 6 2 2 5 6 5 2 4 5 4 3 2 2 2 6 2 7 15 10 16
7 2 3 5 8 9 13 13 13 15 14 15 11 3 2 2 2 4 11 5 5 7 5 3 5 3 6 4 3 3 3 2 3 5 4 4 4 2 3 3 7 5 3 5 6 8 16
7 3 2 4 7 8 12 12 11 13 12 8 13 7 3 3 0 2 2 3 2 5 7 4 4 10 4 2 1 3 4 4 2 2 4 4 2 3 1 3 5 3 2 3 5 5 3
9 6 5 5 6 10 11 11 10 12 10 6 7 12 3 2 3 2 3 1 2 2 3 5 7 7 4 2 1 2 2 5 4 5 4 3 2 5 4 3 6 7 5 2 2 4 4
11 7 4 3 4 5 9 9 8 10 10 7 5 7 4 2 4 2 3 2 3 0 1 4 3 2 3 1 1 2 1 3 2 4 5 6 5 3 4 3 7 3 2 5 4 3 3
12 6 3 1 2 3 5 8 7 9 9 6 1 4 3 1 3 9 5 3 6 5 2 2 1 3 3 2 2 3 2 1 2 3 2 3 7 5 7 5 5 5 5 4 3 2 1

GFSGBSN_925_spd_051.txt.gz
Wind_Speed
13 14 15 16 17 17 17 18 17 18 18 18 18 19 18 18 15 12 10 8 5 4 2 2 1 3 2 3 6 9 9 3 16 17 18 11 7 7 12 15 5 3 10 8 12 12 7
11 13 15 16 16 16 18 18 19 18 19 18 18 17 17 16 14 11 9 7 5 2 2 1 3 1 1 4 9 11 17 15 17 20 25 17 9 10 4 8 10 6 4 10 13 10 8
11 12 14 15 15 17 18 18 19 19 19 19 19 18 15 14 12 10 9 7 6 4 2 2 2 3 3 6 14 12 15 13 15 25 16 18 15 9 5 5 5 4 6 5 7 11 7
11 11 12 13 15 16 17 20 19 20 20 20 19 17 15 14 11 10 10 9 7 7 6 2 1 1 4 7 7 12 14 5 15 26 29 24 13 5 2 3 5 4 4 5 8 12 4
10 10 12 13 14 15 16 18 19 20 20 19 19 18 16 15 12 11 9 10 8 8 8 4 1 2 6 1 3 7 3 1 9 9 19 22 7 3 1 7 5 2 6 6 7 18 8
9 10 11 12 14 15 17 18 19 20 20 21 18 19 18 15 13 12 11 9 6 5 1 4 5 2 2 3 6 1 6 6 3 7 7 12 5 4 2 6 15 18 6 13 8 11 9
8 10 10 13 14 16 17 19 20 21 20 20 20 20 17 17 13 13 10 2 3 3 1 4 3 3 4 13 1 3 4 7 6 4 12 13 7 19 14 4 4 8 5 7 1 4 11
8 9 11 13 15 16 18 19 21 22 22 21 20 20 18 16 12 10 4 1 1 1 4 3 5 3 7 3 0 3 7 4 4 1 5 13 13 7 8 6 5 9 5 4 2 3 11
8 9 10 13 15 17 19 21 22 23 23 23 21 20 18 15 10 5 1 1 1 3 2 4 1 1 5 1 2 3 3 5 2 10 3 15 11 10 7 4 7 3 7 4 5 3 3
9 9 10 13 15 17 18 21 23 24 24 24 23 20 19 10 4 1 2 5 2 3 3 4 1 1 3 3 3 2 4 3 3 6 3 4 9 12 8 4 4 4 4 5 5 4 4
9 9 10 13 15 17 20 22 24 24 25 26 24 22 18 5 1 2 0 7 2 3 4 3 1 1 3 3 3 3 4 2 5 7 4 6 17 16 10 6 5 2 5 6 3 4 3
9 9 10 12 15 17 20 23 24 25 26 27 28 24 12 5 7 3 5 6 2 4 2 3 1 2 3 3 1 4 5 2 4 4 3 5 3 4 3 3 5 7 6 7 5 3 2
8 8 9 12 15 17 20 22 25 26 28 31 31 22 6 9 3 10 8 3 4 4 1 2 3 4 6 5 4 1 2 4 3 4 3 8 3 2 4 7 2 4 5 2 1 1 5
7 6 9 12 15 18 21 23 25 27 29 33 28 6 8 5 10 11 5 2 5 3 3 1 4 3 2 2 2 2 5 2 1 3 4 3 5 2 4 3 5 5 6 5 6 4 3
5 5 8 12 15 18 21 24 25 27 31 32 12 4 8 7 12 7 2 3 6 5 3 2 5 3 4 3 4 4 2 2 2 2 4 5 3 3 3 2 2 4 3 3 6 2 3
4 3 7 12 15 18 21 23 25 27 30 24 2 2 2 8 10 3 1 3 2 3 3 0 3 1 1 5 5 3 6 3 3 2 1 3 5 1 1 1 3 3 3 2 3 3 4
3 2 6 11 14 18 21 23 24 27 27 16 3 2 1 11 5 1 1 4 3 4 2 0 3 2 3 3 3 5 8 2 4 4 3 3 4 3 3 5 6 1 2 3 2 4 4
3 1 5 10 13 17 22 24 23 26 25 8 2 2 3 5 2 1 2 5 2 1 2 3 1 2 1 4 2 3 6 3 7 6 6 4 4 4 4 1 2 4 4 6 4 4 3
5 2 4 10 12 17 21 24 25 26 20 5 2 1 1 2 1 3 6 1 2 3 2 2 3 3 2 2 4 1 2 5 7 6 7 6 1 3 2 3 2 5 8 4 2 2 7
7 3 3 9 12 15 20 24 25 28 16 1 2 1 2 1 2 2 4 5 2 2 1 2 1 4 2 3 5 4 3 2 3 2 3 4 3 5 6 4 4 6 10 14 10 4 5
9 4 4 9 11 14 19 23 26 29 14 3 3 1 2 1 0 4 2 6 3 3 2 4 4 5 3 2 2 3 2 3 3 3 3 4 4 3 4 4 5 6 7 17 18 17 8
10 5 5 9 9 13 17 21 25 29 15 6 1 2 2 2 2 3 6 6 7 5 5 3 3 6 3 3 3 4 4 3 3 1 3 2 1 2 3 2 4 4 8 11 18 19 19
12 7 5 7 7 10 14 18 22 26 18 6 4 3 2 5 4 2 3 2 4 6 3 6 3 3 3 4 5 5 4 2 3 7 3 3 4 3 3 4 3 7 12 12 7 7 16
13 8 5 3 4 8 11 13 18 19 17 7 4 1 2 1 3 2 5 3 4 2 2 5 5 2 2 6 3 2 5 5 4 3 3 4 4 2 2 3 2 6 4 6 13 14 12
14 9 5 3 3 7 10 12 13 13 12 15 8 2 2 2 1 3 7 4 5 5 4 3 3 2 7 4 3 3 4 3 1 4 4 3 4 2 3 2 7 5 1 4 5 6 10
15 10 7 6 6 8 9 11 13 13 11 5 15 8 3 3 1 3 2 3 2 4 5 4 5 10 4 3 2 2 3 4 2 0 2 3 4 4 1 2 4 4 2 2 3 4 2
16 12 10 9 7 7 8 8 11 13 12 8 8 15 4 2 2 2 3 2 2 2 1 2 7 8 5 2 1 1 3 3 3 4 3 3 1 4 4 3 7 7 6 3 2 5 4
19 15 11 9 7 5 6 6 9 11 10 8 4 9 6 1 4 3 3 1 1 0 0 3 1 2 3 1 0 1 2 2 1 3 5 6 5 3 3 3 7 3 2 4 5 4 4
20 15 12 9 8 5 4 5 7 8 9 6 3 6 5 3 2 4 3 2 2 4 1 3 3 1 3 2 2 2 2 2 0 2 2 2 5 4 7 5 4 4 5 4 3 3 3

GFSGBSN_925_spd_054.txt.gz
Wind_Speed
10 12 14 16 17 18 18 18 18 19 19 19 20 19 18 18 17 14 12 11 9 7 7 4 6 5 3 1 4 11 11 10 11 18 12 7 8 5 7 6 7 2 4 9 7 7 5
10 11 13 15 17 17 19 19 19 18 18 19 19 18 17 17 15 13 12 10 9 7 7 6 5 5 3 3 9 12 12 13 6 12 8 11 6 5 4 7 8 7 2 8 11 10 9
10 10 12 15 15 17 17 18 18 19 19 19 19 19 17 15 14 12 11 10 8 7 6 7 5 4 2 7 11 10 10 8 10 17 11 16 10 8 5 4 2 1 10 2 3 9 5
10 11 10 13 15 16 17 18 19 19 20 20 20 19 18 17 15 13 12 11 9 7 6 6 4 3 4 5 10 8 11 11 13 23 20 16 13 5 2 5 6 2 4 7 5 7 2
10 10 10 12 14 16 17 18 19 20 20 20 20 20 18 17 16 14 13 12 9 5 5 5 4 2 5 4 4 8 6 5 12 21 20 18 5 4 3 7 4 5 7 5 5 13 8
10 10 10 11 13 15 17 18 19 20 21 20 20 21 20 18 16 15 15 10 5 5 1 1 5 4 4 3 5 5 2 1 6 14 8 7 3 6 3 6 17 14 5 2 5 10 8
10 9 9 11 13 15 18 19 19 20 21 21 21 21 22 19 16 13 13 3 4 2 1 4 3 5 5 11 0 2 2 4 4 10 9 2 7 17 7 2 3 8 5 6 2 5 4
11 10 9 10 12 15 18 19 19 21 21 21 21 21 21 19 17 11 6 2 3 2 3 3 5 5 8 4 1 2 1 4 2 11 4 7 11 13 7 4 4 8 7 4 2 2 9
11 10 9 9 13 15 18 19 20 21 21 22 21 20 19 19 12 8 2 2 5 3 1 3 3 3 4 2 1 2 2 5 7 3 2 2 6 9 6 5 6 3 8 5 6 4 2
11 9 9 9 12 14 17 19 21 21 21 22 22 20 20 18 6 2 2 6 4 2 3 1 2 2 2 1 4 3 3 4 3 3 3 4 9 14 8 7 6 3 5 6 8 6 4
11 9 9 9 12 14 17 19 21 22 21 23 22 21 17 7 4 2 2 8 2 1 3 0 2 2 3 1 5 3 2 3 6 5 4 6 20 15 10 7 5 3 5 5 3 5 4
11 9 8 8 11 15 17 19 21 22 22 24 25 21 10 3 7 3 7 5 0 5 2 0 0 1 0 4 4 6 4 2 5 6 9 4 3 4 5 3 4 8 6 7 5 3 2
11 9 8 8 10 14 17 19 20 22 23 25 25 15 5 7 1 8 8 1 4 5 1 1 3 2 4 2 5 3 4 6 4 6 3 8 3 3 3 7 3 3 5 2 2 1 4
10 9 7 7 10 14 16 18 20 21 24 25 19 5 9 4 5 11 3 3 5 6 1 2 2 4 0 3 3 3 5 2 3 2 4 4 6 1 4 4 7 4 4 4 5 4 3
10 8 5 6 10 12 15 18 19 21 23 23 3 10 6 4 10 4 1 3 5 4 1 4 1 2 2 1 4 3 1 2 3 4 4 4 4 2 6 1 2 3 2 3 6 3 3
9 6 4 5 9 11 15 18 19 21 22 15 4 4 3 6 7 1 0 3 1 3 1 2 0 2 2 2 1 1 3 3 3 2 1 2 5 4 2 2 5 3 6 3 3 3 4
9 5 3 5 8 11 15 18 20 20 19 5 2 3 3 7 3 2 2 4 4 5 2 2 2 2 2 2 4 2 3 1 3 4 3 4 3 2 2 3 4 2 2 4 3 4 4
10 6 3 4 7 10 14 17 19 21 14 4 3 2 3 3 1 0 2 3 3 2 3 3 2 1 2 4 3 1 4 2 4 4 4 1 5 4 2 3 2 3 5 5 4 5 1
11 7 3 4 6 9 14 17 19 20 12 4 2 2 2 2 2 1 4 3 2 3 3 4 4 4 3 3 4 2 2 6 4 3 4 4 2 4 2 2 3 4 5 3 2 2 5
13 9 4 1 5 9 13 16 19 19 9 4 3 1 1 1 1 2 3 3 3 3 2 2 2 3 3 4 5 4 2 3 1 2 10 5 3 4 5 4 4 5 10 13 10 5 7
15 11 5 2 4 8 12 17 20 18 6 4 3 1 2 1 1 3 1 2 2 4 4 5 4 5 2 2 3 3 3 3 4 6 5 3 1 2 3 2 3 4 7 14 16 21 10
18 13 7 4 3 7 11 15 19 18 6 8 3 2 2 1 2 1 4 3 3 4 3 3 4 5 2 4 3 2 3 0 3 2 4 2 2 3 4 3 4 4 7 9 17 19 17
20 14 9 5 3 6 10 13 17 19 7 6 2 2 3 3 2 1 0 1 4 4 2 4 2 1 4 1 2 3 4 1 2 6 3 4 5 3 4 2 2 6 14 14 6 7 16
21 16 11 6 4 6 8 10 13 16 19 10 3 3 3 2 2 2 4 3 5 6 3 4 6 3 1 6 3 2 5 5 6 3 4 5 4 3 3 1 1 5 3 6 13 11 12
22 17 12 8 6 6 7 9 11 12 15 22 7 3 2 2 1 3 7 4 4 5 4 3 4 1 6 4 3 3 4 2 0 3 2 2 4 2 3 2 7 3 1 4 5 5 4
23 18 15 11 9 7 7 9 11 12 10 15 17 7 3 4 3 2 2 4 3 4 5 3 3 11 5 2 3 2 2 3 1 1 2 3 4 3 2 1 4 5 1 3 3 4 3
23 19 17 15 11 9 7 8 10 10 10 13 11 12 5 3 2 3 2 0 1 1 2 2 6 7 4 1 2 2 1 2 2 3 3 2 1 4 4 2 6 6 5 2 2 4 5
25 22 19 16 12 9 7 7 8 8 10 8 10 12 5 3 1 3 3 2 2 2 1 4 2 2 3 2 2 1 1 0 1 2 4 5 4 4 2 3 6 3 1 3 4 4 4
27 24 20 16 13 9 7 7 7 7 8 7 6 8 9 6 2 2 1 2 2 2 2 1 3 1 2 1 2 1 1 1 1 2 2 2 4 2 6 5 3 2 4 4 3 4 5

GFSGBSN_925_spd_057.txt.gz
Wind_Speed
9 10 10 13 13 15 15 17 17 18 17 17 18 18 17 16 15 14 12 10 9 8 7 7 7 7 3 1 4 7 13 10 4 17 14 7 9 5 4 5 7 5 5 11 10 7 8
9 9 9 10 13 13 15 16 16 17 17 17 17 17 17 16 14 13 12 10 9 8 6 6 6 7 1 3 2 11 9 10 5 12 11 7 8 4 4 5 7 8 5 7 9 8 7
10 9 9 10 11 13 14 15 17 18 18 17 17 17 17 17 17 14 12 11 10 9 7 6 5 4 1 7 10 10 6 7 5 14 5 8 2 4 4 5 4 4 7 4 3 8 5
11 10 9 9 10 12 14 15 17 18 18 18 18 18 17 16 16 15 14 12 11 11 8 5 3 1 4 6 9 8 5 8 11 14 14 12 7 1 1 3 4 5 5 5 7 7 4
12 11 9 9 10 12 14 15 16 19 18 17 19 18 17 18 16 15 14 13 12 8 6 5 3 2 6 5 5 13 6 4 3 15 17 11 7 4 2 8 4 2 6 6 3 10 5
15 11 9 9 11 12 14 15 17 18 19 19 18 19 18 18 16 14 13 13 6 6 2 4 2 2 4 2 6 8 2 3 4 12 9 5 5 7 3 8 14 10 7 4 5 9 8
18 11 10 9 11 13 15 15 18 19 20 19 19 19 18 16 14 10 13 3 2 2 1 5 3 3 4 11 4 3 3 2 4 9 5 5 1 13 13 3 5 9 9 8 3 8 7
16 11 10 9 11 13 15 16 18 19 20 19 19 19 18 16 15 7 7 1 3 1 4 5 5 4 8 4 2 1 1 3 7 11 8 3 7 8 6 5 8 11 8 3 2 5 5
15 11 9 8 11 13 15 17 18 19 19 19 19 18 18 16 12 5 2 3 2 1 1 2 3 2 3 3 1 2 2 3 12 10 6 3 8 6 4 5 9 3 11 5 5 5 1
16 11 9 9 10 12 15 17 18 18 20 19 18 18 17 13 1 2 2 4 2 1 4 1 2 1 1 0 4 2 2 3 5 7 3 3 13 11 6 4 5 3 7 7 9 4 3
16 11 9 8 9 12 15 17 18 18 19 19 19 19 15 5 1 1 0 6 1 1 4 0 1 1 2 2 2 3 1 2 7 8 3 1 13 14 5 5 4 3 6 5 4 5 3
14 11 10 8 8 12 13 17 18 18 19 20 20 17 7 4 5 1 6 3 1 5 2 1 2 2 2 3 1 2 1 5 3 4 5 2 3 3 5 3 3 8 6 7 4 3 2
14 12 9 8 7 11 13 16 17 17 18 19 18 6 7 9 3 7 7 2 4 4 3 2 1 4 4 2 4 2 3 2 4 6 3 4 4 3 2 7 4 4 6 3 2 2 4
15 13 9 7 6 10 11 14 15 16 17 17 5 7 9 4 6 11 4 2 6 3 2 3 3 4 2 3 3 3 3 4 1 3 4 3 6 2 1 4 6 3 4 4 5 4 3
17 13 9 6 6 8 9 13 15 15 16 10 7 10 5 6 10 4 0 4 4 3 1 3 1 3 2 4 3 1 1 3 3 3 2 4 3 2 5 2 2 3 2 4 6 2 1
18 13 10 6 6 6 9 12 13 15 14 2 6 4 4 5 5 1 1 1 2 3 3 3 1 1 1 2 1 3 1 1 5 3 5 2 6 5 1 1 6 3 5 2 2 3 4
18 14 10 7 5 5 8 10 12 15 10 8 4 3 3 4 2 1 1 3 3 5 2 1 1 2 1 1 3 2 3 1 1 3 3 2 3 2 3 1 5 3 1 4 3 3 3
20 15 12 7 4 5 7 9 12 13 6 6 4 2 4 2 1 1 1 2 2 2 1 0 1 1 4 4 2 2 2 2 3 3 3 1 4 4 2 1 0 2 3 4 4 4 0
20 17 13 7 4 4 5 8 11 11 2 5 3 2 2 1 1 1 3 3 1 3 2 2 2 1 0 3 4 2 1 5 4 2 4 4 2 4 2 4 3 3 4 4 4 3 5
22 19 14 8 5 2 4 8 11 9 2 3 3 2 1 1 1 1 2 4 4 3 3 3 2 2 2 3 5 3 3 4 2 2 8 5 3 4 5 4 4 5 7 11 7 6 10
25 20 15 9 6 2 3 7 10 7 3 4 3 1 1 2 1 1 1 3 3 5 6 7 4 4 2 3 2 3 3 2 4 2 3 3 3 3 2 4 4 4 6 11 14 18 12
27 21 16 11 7 3 2 6 9 7 5 5 4 4 2 1 1 1 3 3 3 3 3 3 4 4 4 5 3 1 3 1 2 4 2 3 2 2 2 2 3 4 7 9 15 17 19
28 23 17 13 9 4 3 6 9 10 6 4 3 2 3 3 1 2 1 2 1 6 1 3 1 1 6 2 1 4 4 0 3 6 3 3 4 2 2 4 4 6 6 9 4 5 13
28 23 18 14 10 6 5 7 9 12 6 7 5 4 3 1 2 3 1 1 1 2 3 3 4 2 0 3 1 2 5 5 6 5 3 5 3 2 1 3 2 4 1 1 9 7 8
31 26 20 15 10 8 8 8 9 12 13 15 7 3 3 3 2 3 3 2 2 3 4 3 5 3 5 3 3 3 4 2 4 4 4 2 4 3 3 2 6 2 1 3 3 4 3
32 27 22 17 13 12 10 10 10 8 10 17 11 6 4 6 2 1 2 4 2 3 3 3 4 9 4 2 2 3 3 3 2 2 3 4 4 3 2 2 4 4 2 2 2 3 3
33 28 24 19 17 15 12 10 10 9 8 7 9 5 6 4 1 3 4 2 2 1 0 3 6 6 3 2 1 2 1 2 3 5 4 2 2 4 3 2 5 5 4 4 1 3 4
37 31 27 22 19 16 12 10 9 8 5 3 8 8 5 3 2 4 3 3 2 3 2 4 1 2 3 2 2 1 2 1 2 1 3 5 5 3 2 2 4 2 2 3 4 6 7
37 34 29 24 20 16 13 11 10 8 6 3 6 11 12 7 4 6 8 6 4 3 3 2 1 1 1 1 2 1 1 1 2 1 3 1 3 3 6 5 2 3 1 3 4 3 6

GFSGBSN_925_spd_060.txt.gz
Wind_Speed
14 12 12 11 11 12 12 13 14 15 14 15 14 15 14 15 14 10 9 9 8 7 7 7 7 7 3 5 5 3 9 6 1 9 13 9 15 16 19 20 19 13 19 12 16 10 13
16 14 12 12 10 12 13 13 14 15 16 16 15 15 15 14 14 14 9 9 8 7 7 7 7 7 3 7 1 9 12 8 2 17 18 7 12 12 17 17 20 18 9 13 12 8 6
17 14 12 13 12 12 14 14 15 16 16 16 15 16 16 14 14 13 12 9 10 8 8 8 6 4 6 8 2 9 8 4 5 13 12 12 8 7 13 14 13 10 19 14 10 16 6
17 15 13 14 12 13 14 15 16 16 16 17 18 15 17 13 13 13 13 10 10 8 8 7 5 4 5 4 7 9 6 6 8 12 17 7 7 5 10 6 12 14 15 11 15 21 12
20 18 15 12 12 13 14 15 16 17 17 18 18 16 17 16 15 14 13 11 10 8 5 5 4 4 5 4 4 9 5 4 12 6 14 4 5 5 7 16 11 14 15 22 13 18 11
25 19 15 14 12 12 13 15 17 17 18 19 18 17 17 17 14 14 12 11 4 3 0 2 3 6 4 5 7 8 6 7 7 12 8 4 2 9 11 14 16 18 15 20 14 13 14
28 22 15 14 13 11 13 15 17 17 18 19 18 17 17 15 15 13 9 1 3 3 4 3 1 4 6 4 6 3 3 6 4 12 6 6 3 10 21 17 3 15 11 16 13 11 15
31 25 17 14 13 11 12 14 15 16 18 19 18 17 16 15 15 11 6 2 1 2 1 3 6 7 9 2 1 5 1 4 6 10 12 5 2 5 11 10 7 17 17 14 6 11 13
31 26 17 13 13 11 11 14 16 16 17 19 18 17 17 15 13 6 4 1 3 1 1 1 2 4 4 2 1 1 0 2 3 7 10 9 1 11 16 12 14 16 18 14 11 10 3
30 22 17 13 13 11 12 12 15 16 18 18 18 17 16 13 4 1 2 5 3 1 1 2 2 1 2 3 3 4 5 2 4 11 10 2 4 14 21 13 14 13 9 12 15 11 5
30 21 17 13 12 10 11 12 13 14 16 17 19 17 14 6 2 2 2 7 3 2 1 1 1 3 2 3 2 2 5 4 8 10 5 4 14 13 20 13 7 4 12 11 9 7 3
28 20 16 13 12 10 10 12 13 13 15 17 19 16 4 5 4 2 7 4 2 2 4 1 1 1 2 3 2 5 3 5 8 7 5 4 13 3 6 6 1 14 14 11 6 4 5
28 21 17 14 11 10 9 10 11 11 14 15 15 4 7 7 3 6 6 2 1 3 1 1 1 3 3 4 4 2 4 6 4 5 1 6 9 5 1 9 10 9 16 5 5 4 4
29 23 17 14 10 9 9 7 9 10 12 12 2 5 7 2 5 7 1 2 4 1 3 0 1 3 2 2 3 4 5 4 1 2 3 3 5 9 4 10 8 14 10 3 6 5 4
31 24 17 14 11 9 7 7 8 8 9 5 8 4 2 5 7 1 3 1 2 1 2 2 2 3 2 4 3 3 2 4 3 1 3 3 3 1 2 2 5 6 5 3 4 2 2
33 27 20 15 12 8 7 7 6 7 6 6 4 2 2 5 2 1 1 2 1 2 1 2 3 3 2 3 2 2 2 1 5 2 2 4 6 4 4 3 8 4 9 3 1 4 4
35 29 20 16 12 8 7 5 4 5 2 12 3 3 2 2 1 2 1 1 2 3 2 1 4 2 1 2 4 3 2 2 3 2 2 1 2 2 7 3 8 4 4 1 1 2 2
34 27 21 18 13 10 7 5 3 3 3 12 4 2 2 0 1 1 0 1 3 2 1 1 3 4 1 2 4 2 3 2 5 7 3 3 4 3 4 1 2 3 7 12 6 5 2
35 29 23 19 15 11 7 4 2 2 9 8 3 2 1 0 1 1 1 1 2 2 2 1 2 2 1 1 3 3 3 3 4 4 5 5 3 5 3 0 1 5 7 7 4 2 6
37 31 25 21 16 12 8 4 2 2 10 7 3 3 1 1 1 2 2 2 3 2 2 3 2 1 1 1 2 4 4 4 3 2 5 1 2 2 6 2 4 8 13 12 10 5 12
38 31 27 22 17 13 9 5 2 3 13 7 0 2 1 4 5 3 1 1 2 2 3 5 3 3 1 1 2 4 4 3 3 3 2 1 3 1 4 4 2 2 10 15 15 19 13
38 32 28 23 18 14 10 5 3 6 14 4 4 4 2 3 2 4 1 2 2 2 4 3 4 5 1 3 4 2 4 3 3 1 2 2 3 1 2 2 2 4 9 10 15 19 19
38 33 28 24 20 15 10 7 4 8 15 4 3 2 1 2 3 4 3 2 2 2 4 6 2 2 7 4 2 5 4 3 1 5 3 2 4 2 2 2 3 6 9 11 7 8 10
39 34 28 25 21 16 12 9 6 7 15 6 5 5 3 3 3 3 4 3 3 3 1 3 5 1 2 7 2 1 6 5 4 5 0 5 4 1 2 4 4 3 2 2 7 7 9
38 33 29 26 22 17 14 12 10 8 8 8 10 3 3 5 5 6 6 3 6 3 2 2 4 4 6 2 3 3 2 4 4 4 2 1 2 2 2 2 5 3 2 1 1 5 3
41 35 31 27 23 19 16 14 13 12 12 15 12 8 3 7 2 2 3 1 3 3 3 1 2 4 2 1 2 4 3 2 3 3 3 2 3 1 2 1 2 2 1 1 2 5 11
43 37 32 29 25 21 19 16 13 10 9 8 8 9 6 5 1 2 2 2 2 2 3 1 5 5 6 1 2 1 2 1 4 3 3 2 2 4 4 3 3 3 3 2 4 3 12
47 40 35 31 28 24 20 17 15 14 8 7 10 7 5 4 4 2 1 2 2 1 2 2 2 1 2 2 1 1 1 2 1 1 1 3 2 2 2 4 3 9 2 4 4 7 10
46 41 37 33 29 25 21 18 15 13 13 11 8 17 16 6 5 5 7 6 4 2 3 2 2 2 2 1 1 1 2 3 3 3 2 2 2 2 3 2 4 7 2 5 7 10 11

GFSGBSN_925_spd_063.txt.gz
Wind_Speed
16 15 14 12 13 13 13 12 13 14 16 17 17 15 15 14 14 15 13 11 11 10 8 8 8 10 8 6 9 2 7 7 8 9 12 10 12 15 24 24 21 20 13 19 19 17 15
15 16 18 15 13 13 13 13 14 14 15 17 18 17 16 15 15 14 15 13 12 11 9 8 8 9 8 11 3 5 9 8 8 10 9 14 9 17 17 22 22 18 10 15 20 13 12
21 18 18 17 14 13 15 14 14 15 15 16 18 20 15 15 15 13 15 16 13 11 9 9 7 6 9 12 5 7 9 8 8 10 11 17 12 9 11 20 21 11 16 16 14 8 16
29 22 21 19 16 14 16 14 15 15 15 16 18 19 16 17 17 15 15 14 15 11 10 8 6 7 8 4 8 11 8 7 9 6 8 5 7 10 10 13 19 23 21 4 16 20 9
34 28 24 24 18 14 15 15 15 16 15 16 17 18 18 17 16 15 15 14 15 12 8 7 7 6 9 2 6 11 8 6 11 6 5 2 6 7 19 17 16 19 16 15 8 12 9
29 33 29 27 18 15 14 15 15 15 15 16 17 17 17 17 14 16 16 13 11 4 4 5 7 6 6 6 11 7 7 6 9 10 9 3 1 8 16 17 18 23 21 20 13 15 14
35 32 31 27 19 15 13 14 15 15 15 16 17 17 17 15 14 15 12 5 4 5 8 6 5 9 4 8 6 4 4 5 7 11 4 4 1 10 25 24 16 18 19 16 19 13 18
37 38 31 29 20 15 13 13 14 15 15 15 17 16 16 14 16 13 7 5 3 4 3 5 7 7 8 1 3 2 4 4 4 3 9 5 1 4 7 18 6 15 16 10 10 10 11
31 28 31 30 19 14 13 13 13 14 14 15 16 16 16 14 14 8 8 5 2 3 4 3 4 6 4 5 2 2 1 2 1 4 11 7 3 3 6 12 10 14 16 15 12 7 12
30 35 31 30 17 14 12 13 12 13 13 15 15 16 15 12 6 2 4 6 2 3 3 3 1 1 2 3 3 3 1 1 4 9 15 6 1 2 4 14 12 13 13 9 9 12 9
30 31 28 28 17 14 12 12 10 13 12 13 15 16 14 6 4 3 1 4 2 3 2 1 1 4 3 3 4 4 3 6 3 7 4 4 8 6 8 16 12 12 9 12 12 15 2
30 32 30 28 18 14 11 10 11 11 10 13 15 13 3 4 6 1 3 2 3 3 1 2 2 2 3 2 4 4 1 4 7 6 11 5 4 0 7 9 4 13 13 10 6 7 5
32 30 34 25 18 14 12 10 9 8 8 12 10 2 5 4 2 3 4 3 3 2 2 3 2 2 6 3 4 4 5 7 3 4 5 4 6 8 10 11 11 16 17 6 5 4 6
34 29 33 25 20 15 12 11 6 6 6 8 2 4 3 1 1 4 4 3 2 1 1 3 5 3 2 3 3 4 5 3 1 6 2 2 5 7 5 8 8 15 14 4 6 6 8
34 31 36 28 21 17 14 10 6 5 4 2 9 3 1 1 3 1 3 4 2 1 3 1 4 3 2 1 2 2 2 5 4 2 0 2 3 2 3 3 6 10 6 3 2 3 0
35 34 41 32 24 19 15 10 7 5 4 10 5 4 2 3 1 3 3 0 1 0 2 3 4 4 3 4 4 4 5 1 4 1 3 4 4 4 4 4 2 4 8 3 1 3 4
34 36 42 34 25 20 16 12 8 6 6 15 6 3 3 3 3 3 2 1 1 3 2 3 3 2 2 3 5 3 3 2 3 4 1 6 4 2 8 7 10 4 4 3 2 3 3
33 39 43 33 26 21 17 14 11 8 11 16 4 2 3 1 2 2 1 2 1 1 2 0 1 5 3 1 4 2 3 3 4 4 6 2 4 4 2 2 7 10 11 13 5 4 3
35 44 43 34 29 23 19 16 13 12 20 11 3 2 2 3 2 3 2 2 2 0 2 1 1 1 2 2 3 4 5 2 3 3 3 3 4 5 4 3 3 7 10 7 10 3 5
38 45 42 34 29 24 22 18 15 14 21 6 4 3 2 3 4 4 4 3 4 2 2 1 1 2 2 3 1 7 6 4 3 3 2 3 4 3 3 2 6 10 14 14 12 5 10
38 48 39 34 28 26 22 19 16 14 21 8 3 3 4 4 7 7 4 3 6 3 0 1 3 1 0 4 4 5 5 8 5 2 3 3 2 2 4 5 3 3 11 15 13 17 13
42 46 40 34 30 26 23 19 15 16 24 5 4 4 3 4 3 8 5 6 6 3 3 3 3 4 1 5 5 3 6 3 4 5 2 1 2 2 1 2 2 5 7 8 14 16 16
49 45 40 35 30 27 24 19 16 21 21 5 3 1 4 5 8 8 6 6 5 2 4 5 2 5 8 7 5 4 3 3 2 3 5 2 4 2 2 1 3 6 8 10 8 8 7
47 45 37 34 31 27 23 19 16 22 20 5 6 6 4 5 8 7 6 4 5 3 2 2 3 1 3 2 2 2 4 4 4 3 1 4 4 1 0 2 3 4 1 2 3 4 5
50 46 39 34 30 28 22 17 15 19 27 6 7 4 3 6 6 5 9 5 8 2 3 3 6 3 2 2 3 5 4 4 4 3 2 3 2 1 2 4 3 3 3 1 2 6 8
44 44 40 35 31 28 23 18 15 17 21 10 8 5 1 7 4 6 8 7 5 5 4 2 1 4 3 3 2 4 4 2 4 3 1 2 2 3 2 2 3 7 4 1 3 6 7
44 45 41 36 32 29 25 21 17 17 18 14 6 10 3 4 4 2 3 5 1 0 2 3 2 1 3 4 5 4 3 2 4 5 5 5 4 7 6 4 1 5 3 2 5 3 6
45 45 43 38 32 29 26 23 19 17 17 13 8 8 3 4 6 4 2 2 2 2 4 3 3 3 1 4 1 1 2 2 3 4 1 4 3 3 3 3 6 5 3 4 3 2 8
48 47 43 38 32 30 27 23 23 15 15 16 7 10 13 6 6 12 11 8 7 6 2 1 2 3 2 1 1 1 1 1 2 2 1 2 4 3 3 2 5 3 4 4 3 8 10

GFSGBSN_925_spd_066.txt.gz
Wind_Speed
21 20 19 17 15 13 13 14 14 16 16 18 17 17 18 15 14 14 15 17 16 13 11 11 11 13 11 7 10 3 3 5 6 2 12 8 8 6 15 14 16 16 15 16 12 5 9
26 26 22 20 18 17 14 14 14 16 17 18 17 17 19 14 14 15 14 16 18 15 13 11 10 12 12 13 1 2 6 7 8 3 3 5 7 7 13 16 19 13 15 15 11 18 21
27 28 29 24 23 20 15 14 15 16 17 16 17 17 17 16 15 15 15 16 16 18 12 11 10 10 12 14 8 7 9 8 9 6 11 13 15 15 7 16 20 10 17 4 5 6 10
28 28 28 31 26 24 16 15 15 16 16 17 17 17 16 16 16 15 16 15 16 15 14 10 9 11 9 13 6 9 10 8 7 4 7 10 10 11 4 11 15 22 14 8 5 2 8
33 29 27 27 30 25 19 14 15 16 15 17 17 16 15 16 16 15 16 18 15 14 12 8 7 9 10 3 6 6 9 7 7 4 3 10 5 2 5 7 15 17 7 16 3 1 3
32 32 29 29 31 30 21 14 14 16 15 15 16 16 15 16 15 14 17 17 12 10 7 9 12 5 6 7 8 6 8 7 6 8 5 3 3 2 4 9 15 19 10 7 11 5 14
34 32 31 29 33 33 23 14 14 15 14 14 15 15 15 14 12 15 15 8 3 4 10 7 2 9 11 9 6 4 4 6 5 3 2 4 4 8 14 13 8 12 15 10 8 12 10
36 33 31 30 23 32 23 14 14 14 13 14 13 15 13 12 13 11 8 4 7 3 7 12 7 9 10 8 4 2 2 5 4 4 7 5 3 0 14 20 16 17 18 17 16 12 9
38 37 31 29 26 31 20 15 14 13 11 12 13 13 12 12 13 7 7 11 4 6 4 5 4 5 2 6 2 3 3 3 1 4 9 1 1 4 11 18 12 13 13 7 11 12 12
38 39 35 31 31 30 17 15 16 12 10 11 11 11 11 9 4 2 6 3 1 3 2 4 2 0 2 4 1 3 2 3 3 4 12 6 3 6 13 12 14 8 9 19 15 6 4
42 40 36 29 29 29 18 16 15 10 9 10 10 11 9 7 4 2 2 2 1 2 2 2 1 2 5 2 1 1 4 5 6 7 5 5 2 7 6 5 2 5 7 8 9 5 3
43 44 32 31 27 31 20 17 14 10 8 7 10 9 2 5 5 2 2 1 1 2 1 2 0 2 2 1 3 6 5 7 2 11 15 10 4 6 7 6 8 8 11 10 6 1 2
47 44 37 34 29 31 20 19 15 10 6 6 6 5 7 5 3 3 3 1 2 2 3 3 2 3 4 4 2 4 4 6 3 3 4 4 3 5 3 3 3 10 8 3 3 3 2
44 43 50 35 30 34 23 21 16 10 7 3 6 8 5 2 3 4 2 2 2 2 1 7 5 1 3 5 2 4 3 4 5 8 4 2 2 1 3 1 5 9 5 4 4 4 3
32 37 39 34 33 36 26 22 16 12 8 6 12 5 4 3 6 2 1 2 2 1 3 1 8 1 2 2 2 5 2 3 3 2 2 2 4 4 4 4 3 7 1 3 3 2 4
31 36 40 29 33 37 27 24 17 14 11 15 7 6 5 7 4 3 2 3 1 0 3 4 3 3 2 4 1 2 3 3 4 1 3 3 4 6 3 3 3 4 2 2 3 2 3
33 39 52 36 34 36 28 24 19 16 14 20 3 3 5 7 3 2 2 2 4 3 2 4 2 2 3 3 2 3 3 2 1 3 6 7 3 3 2 1 4 3 1 2 1 3 1
44 46 53 43 41 36 31 24 21 19 20 19 4 3 7 7 2 3 2 5 2 2 2 1 1 4 3 8 2 3 3 3 2 1 2 4 4 3 0 4 5 6 4 3 3 3 0
50 53 60 26 44 38 31 27 23 23 31 11 3 3 4 3 2 4 3 5 2 4 0 2 2 3 2 4 4 4 5 2 3 1 2 0 3 3 1 2 2 4 5 4 2 3 2
57 58 64 47 44 38 32 27 26 25 28 11 4 4 3 3 4 4 5 6 6 1 2 1 2 3 4 5 3 7 5 4 2 1 3 3 3 3 1 0 5 5 8 7 4 3 4
53 59 23 46 43 37 32 29 27 26 27 8 2 4 5 4 5 8 2 5 7 4 1 2 3 3 3 4 9 4 6 6 4 4 2 1 1 2 4 5 5 2 6 9 7 8 4
50 50 22 44 42 37 33 31 29 27 30 3 3 3 2 2 6 9 5 6 7 5 4 3 2 3 3 6 4 7 6 4 4 6 3 3 1 3 2 2 3 0 4 5 6 7 10
50 54 29 41 39 34 32 31 29 29 33 6 2 1 1 4 4 7 7 4 6 3 2 6 5 8 7 5 7 6 5 2 3 4 4 2 4 2 2 2 4 5 6 8 4 2 1
50 52 24 41 41 36 33 31 29 31 29 3 6 4 2 4 5 6 5 4 4 2 4 2 5 3 2 2 3 5 1 3 5 5 3 2 2 2 1 2 1 3 4 5 2 4 4
50 48 21 36 38 33 31 29 28 30 24 5 7 1 2 4 4 6 7 8 6 1 3 4 5 4 1 3 2 4 2 3 4 4 1 3 3 1 2 3 3 3 2 3 2 4 7
55 36 35 37 35 33 30 27 26 27 31 11 10 3 2 4 3 4 7 11 5 4 3 3 2 1 3 3 2 2 3 4 4 3 2 1 2 2 2 1 2 5 4 3 2 4 4
45 13 32 34 31 30 28 25 23 25 30 15 7 4 4 4 5 6 3 2 2 2 3 3 2 1 1 2 2 2 2 2 4 6 5 2 2 4 4 2 2 4 3 1 3 2 4
41 26 14 30 28 26 24 23 23 25 26 15 9 6 6 3 5 7 5 2 2 2 1 2 3 1 1 2 1 2 2 0 1 0 2 5 4 2 1 1 4 5 1 3 2 4 6
40 23 21 31 30 27 25 23 23 25 23 19 8 15 18 6 5 16 17 14 10 8 3 2 2 5 3 1 1 1 1 1 1 2 2 2 2 1 2 3 4 3 5 5 5 4 5

GFSGBSN_925_spd_069.txt.gz
Wind_Speed
26 28 28 27 24 22 19 17 16 16 15 16 16 15 15 16 13 12 14 13 14 15 14 11 10 10 10 2 8 3 2 3 5 5 5 8 11 6 15 10 4 15 5 13 12 5 3
30 29 29 31 31 26 24 19 17 16 16 14 16 15 14 15 13 13 13 13 14 15 15 9 8 7 3 7 7 5 2 5 6 5 1 7 5 0 5 5 15 8 17 8 9 11 3
30 31 31 29 31 33 28 23 19 16 16 15 16 16 14 14 14 14 14 14 13 14 14 12 7 4 4 14 9 15 6 8 5 11 7 13 1 7 9 3 9 10 8 8 7 10 5
33 32 33 31 29 31 32 29 21 16 16 14 15 15 13 12 14 14 15 14 14 14 11 11 5 3 5 14 14 12 10 4 7 5 5 10 5 2 4 9 3 9 5 10 3 10 7
38 34 33 33 32 29 31 32 24 17 15 14 14 14 13 12 14 14 13 15 17 11 11 7 4 6 6 7 6 4 7 7 6 5 7 8 2 4 4 4 2 5 7 15 5 1 6
39 40 35 35 33 32 31 34 26 16 15 13 13 13 12 12 13 12 15 17 10 7 4 6 6 4 6 4 3 7 5 5 3 8 4 3 3 2 5 5 11 11 8 12 5 6 5
39 38 44 35 34 33 32 30 23 13 16 13 11 11 11 10 10 12 12 6 4 1 5 6 5 4 7 3 11 3 5 4 3 2 3 2 2 6 9 9 7 10 16 8 7 9 5
45 43 41 44 36 34 31 26 20 14 13 12 10 10 9 9 9 9 8 2 4 2 5 11 10 6 8 4 2 2 0 3 4 3 7 4 6 6 8 12 10 11 11 8 5 11 4
44 44 46 43 43 36 30 26 23 13 14 11 10 8 6 7 8 3 6 6 3 3 1 1 4 3 3 5 1 2 4 2 2 4 7 3 3 6 8 10 9 10 13 9 5 8 2
42 44 42 48 41 43 31 26 24 14 13 12 10 6 5 4 2 3 2 2 2 1 3 2 2 1 3 4 0 1 3 3 1 6 4 3 2 7 10 9 7 3 11 17 14 7 3
39 37 39 42 46 37 30 29 23 16 9 12 8 7 5 6 1 2 5 3 3 1 2 1 1 3 3 1 2 3 3 3 4 6 5 2 3 8 15 7 9 4 18 19 19 10 3
40 39 41 46 42 39 37 29 22 18 13 9 10 7 6 8 7 4 3 6 1 3 3 1 2 3 3 2 3 5 4 6 6 8 8 4 3 4 3 6 11 8 16 8 5 5 2
38 40 42 43 39 39 38 32 27 20 14 7 8 11 13 10 4 6 7 2 2 2 3 4 2 2 2 1 2 4 3 2 3 4 5 5 4 1 5 1 7 17 7 3 3 3 3
38 42 41 51 34 34 49 37 29 21 12 10 11 14 10 5 9 8 4 1 4 5 4 4 3 1 3 5 3 2 2 5 6 4 3 4 4 8 8 5 3 3 4 4 5 4 3
39 47 39 50 36 33 49 40 28 21 16 13 17 11 7 6 11 6 2 1 5 4 2 4 6 2 2 3 0 4 2 2 2 4 4 3 4 6 2 4 2 3 4 3 5 2 4
44 37 39 49 39 32 28 35 29 24 19 21 13 10 8 9 10 3 1 1 2 1 1 4 1 2 3 4 2 2 2 4 3 3 0 3 5 6 4 3 7 5 1 3 3 3 3
45 47 36 47 40 35 31 31 31 27 26 26 7 4 10 10 6 1 2 3 2 4 2 2 3 3 3 2 2 3 2 2 2 2 4 2 3 3 2 6 3 4 3 2 3 3 3
46 47 41 47 49 31 39 38 36 30 33 23 6 3 14 14 2 2 2 5 3 4 2 2 1 5 6 8 3 2 3 2 3 2 2 2 4 3 0 4 3 1 1 3 2 3 2
46 46 45 49 52 38 25 42 38 36 42 14 5 3 10 6 3 3 3 3 2 3 3 2 3 1 3 5 4 4 4 1 4 4 1 1 2 3 5 5 3 0 4 4 3 2 2
47 46 45 53 51 35 49 44 40 37 43 12 3 4 2 2 2 3 5 5 4 1 1 2 1 2 0 1 3 3 4 1 3 4 3 2 2 4 5 4 4 5 6 5 5 3 2
47 46 48 49 50 23 49 44 42 39 39 9 3 4 5 5 5 5 2 8 7 4 2 1 1 2 1 3 4 4 4 3 2 1 3 3 3 3 4 5 2 1 4 7 6 5 5
45 43 47 48 51 21 47 43 41 42 35 5 4 4 2 3 4 8 5 6 9 3 2 2 3 6 7 5 2 6 7 3 3 2 0 2 1 3 3 2 4 2 4 3 5 4 5
42 44 47 49 47 31 43 42 42 35 31 5 4 2 4 3 5 5 4 4 7 7 3 4 3 5 6 2 2 2 2 4 5 7 4 3 4 2 2 1 0 4 6 5 2 2 3
39 40 49 48 40 36 37 38 39 36 28 4 5 4 3 2 4 5 6 4 10 4 4 4 7 4 1 1 2 2 4 5 6 4 4 5 4 2 2 3 1 4 1 1 6 5 4
37 43 50 56 15 40 36 35 32 35 27 4 5 3 3 3 3 6 7 7 6 6 5 4 3 1 1 1 3 4 2 3 4 5 2 2 3 1 3 3 2 2 2 2 3 1 4
35 43 47 14 27 33 29 27 27 25 24 7 6 3 4 6 2 4 5 5 4 3 2 3 1 0 2 1 1 4 4 4 3 0 3 2 2 3 1 2 4 3 0 3 3 1 4
33 36 39 31 23 27 26 23 18 21 23 8 5 4 6 4 4 4 3 5 4 4 4 3 2 2 3 2 1 2 2 3 4 6 3 1 1 3 1 1 2 3 4 3 3 2 5
30 36 39 26 24 23 21 19 15 20 25 10 4 3 5 3 6 7 5 4 3 2 4 2 3 3 2 1 2 1 2 2 2 4 6 5 4 3 2 1 3 5 3 1 3 4 6
27 34 35 5 24 21 20 15 14 23 21 13 6 19 20 7 3 17 19 15 7 2 4 2 3 2 2 3 1 2 1 2 3 3 1 2 4 4 4 4 5 2 10 5 6 5 3

GFSGBSN_925_spd_072.txt.gz
Wind_Speed
28 30 30 30 31 31 30 31 28 22 19 15 14 15 13 13 13 13 13 12 12 12 11 13 7 5 6 1 7 8 5 2 4 5 3 4 8 11 5 8 10 16 7 13 8 4 4
34 33 30 32 31 31 31 30 32 26 21 17 15 14 14 15 13 14 13 12 12 11 12 11 5 3 1 5 4 8 7 2 1 6 3 1 3 12 10 8 18 7 15 10 8 7 5
36 35 35 34 32 33 31 32 33 32 25 19 15 14 14 15 14 14 13 13 12 11 11 10 7 3 3 12 4 7 9 7 8 9 5 3 2 7 7 4 2 11 10 8 7 9 6
35 36 36 36 38 33 35 33 33 34 32 17 16 13 13 14 13 15 13 13 13 11 11 8 3 2 6 12 12 12 11 9 6 10 6 8 9 9 6 8 4 11 3 10 7 14 3
35 35 35 36 36 38 32 35 34 35 29 16 13 13 13 12 12 14 12 14 15 11 8 6 2 4 6 8 4 6 7 8 10 5 5 11 6 6 6 4 5 6 6 12 5 8 7
34 36 36 37 38 36 36 34 32 27 26 14 15 13 11 12 11 11 13 15 9 4 3 3 3 3 5 1 2 6 5 4 1 6 2 2 1 2 2 5 6 11 5 14 2 6 3
36 36 39 37 38 39 40 38 36 24 24 18 16 12 8 11 10 8 11 3 3 0 3 6 5 3 3 3 6 3 1 6 4 2 4 2 1 2 7 5 4 4 4 9 5 4 5
36 35 34 36 35 36 37 38 39 28 24 19 12 11 9 7 8 6 8 2 2 1 3 8 10 7 8 2 3 2 2 3 3 4 5 1 5 8 7 7 2 3 8 2 9 8 4
36 41 33 34 35 37 40 39 38 28 24 18 15 13 10 5 5 6 7 7 2 1 2 3 4 5 1 4 3 2 1 3 4 6 8 4 2 9 14 12 6 5 13 9 6 10 4
41 39 35 35 37 39 41 40 38 32 24 18 13 12 7 6 3 5 3 6 4 2 4 2 2 1 4 2 3 1 0 0 4 6 4 5 2 11 14 8 10 6 13 16 10 1 3
39 38 39 35 37 37 42 39 33 37 25 18 15 12 10 12 6 4 4 5 5 2 4 3 3 2 3 3 2 1 1 2 3 3 3 2 1 13 14 8 15 4 16 15 13 5 0
36 37 37 35 38 37 43 39 30 23 28 17 15 13 11 10 6 6 5 6 3 5 3 1 2 1 3 4 3 6 6 3 5 7 3 3 2 3 2 4 2 4 10 14 5 3 2
37 37 39 40 37 39 41 45 23 22 23 20 17 15 16 14 4 11 9 3 4 4 3 4 1 2 3 1 4 4 2 3 1 2 2 3 2 3 1 2 2 7 10 3 3 2 4
37 39 40 41 39 36 41 37 43 32 28 21 17 22 15 9 11 13 6 2 4 5 4 3 3 4 1 5 3 3 2 4 2 2 2 3 6 3 2 1 7 4 3 4 4 4 4
40 40 41 41 43 38 40 45 42 38 31 23 26 19 12 12 13 11 2 2 7 6 6 6 2 3 4 3 1 3 3 2 3 3 3 3 6 5 2 1 3 2 3 1 6 2 4
40 42 42 41 42 43 43 45 33 37 33 32 21 12 9 15 15 5 2 4 3 3 5 5 3 5 4 2 2 4 1 4 4 3 1 0 4 3 5 4 7 8 2 3 4 3 3
41 42 42 41 42 36 45 36 30 22 33 35 11 4 12 18 11 1 3 5 4 3 3 3 3 3 2 2 1 0 3 3 4 4 3 2 4 5 4 5 2 4 2 5 4 3 4
40 42 42 41 42 39 39 36 27 30 31 23 7 3 19 19 3 2 3 4 4 5 2 1 3 4 6 6 4 2 3 1 4 1 3 3 4 4 1 5 3 1 1 3 4 3 2
40 39 40 42 40 42 42 39 20 37 39 7 3 3 12 6 3 3 4 3 2 4 4 3 3 3 5 7 3 2 2 3 6 4 2 1 1 3 5 4 3 1 1 3 4 3 2
40 39 40 42 41 39 43 41 20 42 46 8 3 4 2 2 0 2 3 4 4 1 2 2 2 1 3 2 3 4 2 2 5 3 3 3 3 4 6 5 3 3 4 3 4 3 3
40 40 40 41 39 44 47 38 37 52 49 16 1 3 5 7 7 5 4 7 4 3 1 1 2 1 4 3 3 4 4 2 4 5 4 3 3 2 2 2 3 2 3 5 5 4 4
39 39 39 38 43 46 43 45 53 56 49 4 4 4 2 3 5 10 3 7 6 3 3 2 4 1 3 4 2 5 5 2 3 0 1 3 1 2 5 3 5 0 1 3 4 3 3
38 39 38 38 39 42 31 31 54 53 32 2 3 3 5 6 5 6 4 6 8 8 4 4 6 6 7 2 1 3 5 3 5 5 2 3 3 3 2 5 5 5 3 3 1 1 4
39 37 38 42 46 40 12 42 44 44 20 2 3 4 4 2 4 5 6 3 7 3 6 2 4 4 2 1 0 5 6 6 7 5 3 3 3 2 2 3 1 4 4 2 7 5 6
38 34 39 47 52 4 39 40 40 27 7 3 3 2 3 3 3 4 7 6 5 7 4 4 3 2 2 4 4 4 4 3 4 4 4 4 3 2 4 3 3 1 1 2 2 2 4
35 37 39 40 48 29 33 33 36 28 9 5 9 6 4 5 2 3 4 3 4 3 3 3 3 2 3 3 2 3 4 3 3 1 2 4 4 3 2 3 4 4 2 1 3 3 1
33 34 38 35 27 28 28 31 26 30 15 1 6 8 8 4 4 3 3 4 4 4 4 2 3 2 3 2 2 2 2 4 4 6 4 2 1 4 2 1 5 4 3 2 4 4 3
28 26 33 21 9 21 24 26 23 17 17 6 4 6 5 3 4 4 4 3 3 2 4 3 4 2 2 2 2 2 2 3 2 3 4 5 5 3 2 2 6 3 2 5 2 3 3
23 23 28 14 14 18 20 23 13 14 24 8 5 21 19 6 3 9 17 15 7 2 4 3 3 2 3 4 1 2 1 1 3 2 2 1 4 4 6 4 3 4 4 1 2 4 1

GFSGBSN_925_spd_075.txt.gz
Wind_Speed
27 28 28 29 28 28 28 29 32 35 34 32 23 17 15 15 14 13 13 12 12 12 10 11 13 4 2 1 8 7 6 5 4 4 4 2 5 4 8 2 9 20 11 11 11 9 5
29 30 29 29 30 30 31 31 29 32 35 36 25 18 15 15 16 13 11 13 11 12 7 11 10 4 2 4 4 4 11 7 5 7 6 4 2 3 5 11 10 5 16 16 10 12 9
29 31 30 30 30 30 30 30 29 29 30 36 31 18 15 16 15 14 10 11 9 9 9 10 9 4 2 11 1 7 10 11 11 11 5 6 6 1 3 5 14 18 9 15 12 7 7
26 31 32 32 31 30 31 33 33 30 33 36 25 17 14 15 12 10 13 8 8 10 11 10 7 4 5 7 7 11 12 10 15 13 11 9 5 4 5 4 7 17 11 12 11 8 6
28 29 31 31 32 30 31 32 34 34 31 37 24 16 17 14 12 11 12 9 10 9 7 5 3 4 7 5 5 7 9 8 10 7 4 11 4 4 5 4 9 13 5 11 5 11 2
29 30 31 31 30 32 31 31 34 36 35 35 26 18 14 12 11 10 8 9 4 1 2 2 2 2 5 3 4 5 6 3 2 3 3 4 3 1 4 5 6 10 6 6 9 5 9
31 32 32 32 30 30 32 33 35 36 36 35 25 20 12 10 10 7 7 2 4 2 4 7 5 3 2 2 6 3 4 5 2 1 4 4 5 6 9 6 4 11 5 11 4 5 8
31 33 34 33 32 31 32 34 35 38 36 32 26 20 12 10 9 5 5 3 3 2 4 10 8 7 8 1 2 2 4 3 3 4 3 2 7 7 9 9 2 13 7 6 8 6 7
32 33 35 35 35 33 35 35 36 37 33 30 25 18 10 9 7 7 9 9 6 2 1 3 5 4 2 6 2 4 3 4 3 5 9 7 4 6 6 5 5 2 6 4 7 8 7
37 39 41 41 42 41 37 37 37 36 40 30 24 16 14 10 6 7 4 11 5 3 4 3 2 3 3 2 3 3 2 2 4 8 5 7 7 10 10 4 5 4 4 10 16 11 2
36 37 36 37 37 38 42 41 36 45 38 37 27 20 16 18 5 6 5 9 9 3 2 3 3 4 4 4 2 1 2 2 7 6 3 3 4 11 12 4 4 3 13 14 16 7 1
33 34 35 35 36 37 38 39 42 43 36 53 25 19 17 14 10 6 14 12 7 5 4 1 3 2 2 3 3 6 5 4 5 4 6 5 2 5 2 5 7 1 14 12 6 3 1
32 34 34 36 37 39 39 36 39 38 43 45 22 19 21 13 6 18 16 5 4 4 1 3 3 2 1 2 2 4 1 2 1 1 2 3 2 4 9 6 8 8 5 3 3 2 3
35 35 36 37 38 40 40 39 34 48 34 48 25 20 20 17 12 21 13 3 4 4 4 2 3 2 1 3 3 2 1 4 2 2 3 2 3 1 0 2 6 6 4 3 3 3 3
35 37 38 37 38 39 40 40 41 45 54 16 23 20 12 14 21 21 3 2 6 6 5 6 2 3 4 2 2 4 1 3 4 3 3 2 4 3 3 1 2 1 4 2 6 3 4
38 38 38 38 37 38 39 39 39 42 13 33 21 12 9 21 21 8 2 2 4 3 6 4 3 3 3 2 2 3 3 2 4 2 2 3 6 4 4 2 6 4 3 3 4 3 2
38 39 39 39 36 36 39 35 34 32 2 35 14 4 13 22 16 1 3 6 4 4 5 5 4 4 2 3 2 0 2 1 3 6 5 3 4 4 3 5 3 5 3 5 4 3 3
41 37 39 38 37 36 38 36 31 30 24 14 5 3 22 25 3 3 3 5 5 4 3 1 4 3 5 5 1 2 1 2 6 2 3 2 4 5 1 2 2 1 1 3 4 3 2
40 38 38 39 38 36 35 32 35 29 20 8 3 2 15 7 3 3 3 3 2 3 3 3 3 3 3 5 3 2 2 2 6 4 2 1 2 3 6 5 3 2 2 3 5 3 1
40 39 38 37 37 35 30 33 32 33 40 9 2 4 3 2 2 3 3 3 4 2 3 2 2 3 4 2 0 3 1 3 5 4 5 3 3 4 5 3 1 2 3 3 4 3 2
40 41 40 39 36 31 37 32 29 28 40 8 2 2 2 5 6 3 1 6 4 4 2 0 2 3 3 3 3 3 2 1 3 6 4 3 4 4 4 4 2 1 2 4 3 3 4
40 41 41 40 36 40 34 34 23 12 44 9 3 2 2 3 5 5 0 5 4 3 1 1 5 2 2 4 3 5 4 2 0 4 3 4 1 3 4 5 4 2 1 4 3 3 2
41 41 41 38 40 42 37 31 20 25 41 3 5 2 3 4 3 5 3 5 6 8 3 2 6 5 5 2 1 2 4 5 3 3 2 3 3 3 2 4 2 3 2 3 4 4 5
41 40 38 37 44 42 26 17 16 52 23 10 5 2 3 3 3 5 5 3 9 3 6 3 3 4 3 2 2 4 9 8 8 6 2 3 3 2 2 3 1 3 2 4 2 3 1
39 39 39 47 45 37 6 17 45 31 19 22 3 2 2 3 2 4 5 6 7 5 5 4 4 1 3 4 5 4 4 4 5 5 6 4 3 3 3 1 5 2 3 4 3 3 1
39 41 40 42 36 13 29 38 38 27 18 10 16 6 2 5 2 3 3 4 4 3 4 3 3 0 4 3 3 3 3 1 1 5 5 4 6 4 1 2 4 2 0 3 1 4 3
35 34 34 32 10 17 22 29 31 18 9 7 10 15 4 4 3 4 2 3 3 5 4 1 0 3 3 2 2 2 1 3 3 4 2 2 2 2 1 2 6 3 1 3 3 4 3
32 31 31 26 18 14 15 21 17 15 8 5 7 11 2 3 3 4 5 3 3 3 4 3 3 2 3 3 2 2 2 3 2 3 4 5 4 3 2 1 6 4 1 4 2 1 4
29 27 28 25 15 15 16 13 13 9 4 4 3 10 15 6 3 4 12 15 6 2 4 3 2 2 3 4 1 3 2 1 3 2 1 2 5 3 6 4 1 3 1 2 1 3 2

GFSGBSN_925_spd_078.txt.gz
Wind_Speed
25 25 26 25 25 25 25 24 26 28 28 28 27 28 28 20 14 13 13 11 13 12 11 7 10 11 2 1 8 7 5 5 5 4 4 3 3 3 4 3 2 9 13 7 12 19 12
25 27 28 28 27 26 26 25 25 27 28 29 30 31 28 20 13 14 10 11 10 10 10 5 7 4 3 3 4 5 10 9 6 7 5 6 4 4 4 5 9 3 9 18 13 14 14
26 25 27 30 29 27 26 27 25 27 29 29 31 32 24 18 16 12 10 9 10 8 9 7 4 4 3 10 3 2 10 12 10 10 4 7 6 4 2 5 8 9 8 9 15 15 7
25 27 29 27 29 28 28 28 26 28 30 33 35 34 23 17 15 9 8 8 8 7 11 8 3 4 5 8 6 10 12 13 17 18 15 8 9 4 3 5 4 6 7 8 11 14 9
26 27 27 30 28 28 28 29 30 32 32 31 31 34 22 17 11 8 8 9 8 7 9 5 4 3 7 4 5 7 13 8 6 9 8 7 4 4 5 7 5 3 7 15 7 17 8
26 27 28 28 29 30 29 29 29 31 32 35 31 27 21 19 11 9 6 4 8 4 5 5 4 1 5 3 3 3 3 4 1 1 2 4 4 3 3 4 5 6 7 7 14 13 18
28 29 29 29 30 30 29 30 30 30 33 30 38 26 18 17 10 8 6 6 2 1 7 7 6 2 2 2 5 3 5 6 1 2 4 4 5 8 8 11 12 9 16 4 3 7 12
29 28 29 30 29 30 29 30 30 32 30 33 36 39 18 15 11 10 9 3 5 1 3 9 3 5 8 3 3 3 9 4 3 4 3 2 9 10 8 8 8 15 10 3 6 4 5
31 31 31 31 31 32 32 31 31 30 32 33 32 34 17 13 11 11 14 10 4 5 1 0 4 4 3 7 3 4 7 3 4 3 5 7 6 10 10 3 10 2 10 6 7 9 9
32 33 33 33 34 34 34 35 36 33 32 32 29 30 16 15 9 10 6 14 7 6 3 2 3 3 3 3 4 6 5 4 1 4 5 8 6 8 9 3 2 5 4 9 15 4 3
36 35 34 35 35 36 36 36 36 36 36 33 36 33 18 21 9 8 3 17 11 1 3 3 3 3 3 4 2 3 2 3 6 3 3 2 3 6 7 2 2 2 10 11 9 7 4
33 35 34 34 34 35 35 35 34 35 37 37 42 35 26 18 7 7 15 16 6 3 4 3 4 3 1 5 4 3 3 4 3 4 3 5 8 3 3 2 3 11 12 8 7 3 3
36 35 34 35 36 36 35 35 34 35 34 37 29 30 22 14 5 17 18 5 1 4 2 3 4 3 4 1 2 4 2 3 2 2 2 4 5 2 4 5 4 2 3 3 2 2 2
35 37 36 37 36 35 33 35 35 36 37 43 35 28 25 19 11 24 12 2 2 4 5 3 3 3 1 1 2 1 3 3 2 2 1 2 2 1 1 2 3 4 3 3 4 3 2
37 38 37 39 37 35 33 33 34 37 42 62 16 18 19 22 18 25 3 1 5 6 6 7 4 3 3 2 1 4 0 3 2 2 1 1 3 4 9 6 5 4 3 3 6 3 3
38 38 39 39 37 35 32 33 33 34 37 13 14 12 9 19 26 14 2 3 2 2 5 3 3 1 4 2 1 3 4 2 3 2 4 4 4 4 3 1 3 3 6 3 2 4 3
39 39 39 40 36 34 34 32 32 31 33 36 11 4 14 21 19 2 2 4 3 4 4 5 4 3 2 3 2 1 3 3 4 5 2 1 3 3 4 6 4 4 3 5 4 2 3
39 39 39 40 37 36 33 32 32 26 32 15 2 3 20 27 4 2 2 4 4 3 2 3 4 4 4 4 1 3 3 2 7 2 2 3 4 4 1 3 3 2 3 4 4 2 2
40 38 39 40 38 36 34 31 24 28 23 2 2 1 12 5 3 2 3 2 5 4 4 3 3 3 2 4 2 1 1 3 7 6 3 3 3 3 6 5 3 4 3 4 4 3 1
39 39 39 39 39 37 32 26 27 25 26 8 2 3 2 2 2 3 2 3 4 3 3 4 3 5 3 3 3 2 3 5 6 6 9 4 3 3 5 4 2 3 2 1 3 3 3
38 40 40 39 39 37 30 27 26 22 17 5 2 2 1 4 4 1 3 4 4 3 3 4 3 3 4 3 2 2 2 5 4 7 4 3 4 4 5 5 3 1 1 3 2 4 4
40 41 41 41 40 37 34 32 23 15 11 3 2 2 2 2 3 4 4 4 4 3 3 2 5 3 3 4 0 4 3 2 1 5 4 4 1 2 5 6 6 3 4 2 3 2 3
43 43 43 46 46 51 40 28 19 9 28 4 2 2 2 3 3 4 3 1 4 6 4 4 4 5 6 1 3 3 3 4 3 1 2 3 3 3 3 5 4 4 2 2 1 0 2
43 44 46 47 52 27 13 3 19 18 18 12 4 4 3 2 2 4 2 2 5 3 5 3 5 4 2 3 2 2 7 8 8 6 2 3 3 2 1 4 2 4 2 2 1 2 3
40 42 44 48 27 21 19 18 26 34 20 20 6 3 3 3 1 1 3 5 6 6 5 4 5 1 1 4 4 5 5 4 5 5 6 4 4 3 3 1 4 2 2 1 1 2 1
35 38 40 39 31 44 44 37 32 29 20 17 18 4 3 4 1 4 3 2 4 3 4 4 4 1 4 3 3 2 2 1 1 3 3 4 6 4 1 3 2 2 1 2 1 4 1
33 33 32 27 19 19 23 28 27 22 16 13 14 7 5 4 3 4 3 2 2 4 4 1 2 3 3 2 2 2 1 2 2 3 1 2 3 2 2 1 5 2 3 3 2 3 2
30 29 29 14 7 9 6 12 12 10 12 11 14 15 4 3 3 3 4 3 3 2 4 2 3 3 3 3 2 1 2 2 2 2 3 4 4 2 2 2 6 2 2 3 2 2 2
26 25 25 7 7 6 5 8 9 9 7 7 8 11 13 5 3 3 10 13 4 1 3 2 3 1 2 4 1 2 1 1 3 2 1 1 4 3 6 4 0 1 1 1 2 4 3

GFSGBSN_925_spd_081.txt.gz
Wind_Speed
25 25 26 24 27 26 22 23 24 21 21 25 26 26 26 24 25 19 14 10 9 10 8 6 6 5 4 1 7 4 4 4 5 0 2 2 2 1 3 2 3 11 17 11 8 9 13
24 24 26 28 25 27 25 25 24 26 26 25 27 26 26 25 22 19 15 9 7 8 5 5 5 2 3 5 3 2 6 7 7 5 3 4 3 3 3 4 6 4 10 15 14 17 12
24 25 25 26 26 26 26 25 25 26 25 24 26 28 26 23 23 17 10 5 4 6 4 3 2 4 4 10 3 2 4 10 9 7 4 7 6 4 1 6 3 10 15 13 14 11 14
25 24 25 26 26 26 26 26 25 26 27 26 28 27 31 28 20 17 10 7 4 6 5 5 2 4 5 6 3 9 9 11 12 11 13 6 10 5 4 3 5 4 5 8 11 13 11
26 26 26 26 25 27 26 26 27 27 27 29 27 29 29 25 18 17 11 7 4 5 5 4 5 3 6 3 4 4 12 10 7 7 6 6 3 4 3 6 7 8 9 15 13 14 11
27 26 26 26 28 26 27 27 27 27 27 28 29 32 28 31 20 15 11 5 4 4 5 6 6 2 5 4 4 3 4 6 2 3 2 2 3 3 3 6 5 7 11 11 14 9 19
27 26 28 27 26 27 27 27 28 28 29 28 29 31 32 16 20 17 16 12 5 3 6 6 6 3 1 2 2 2 5 6 2 2 5 5 5 8 14 12 16 7 7 13 13 10 15
28 28 28 28 28 27 27 27 28 28 27 28 28 28 32 10 16 16 15 3 4 6 5 16 3 4 8 1 1 3 10 3 3 4 3 4 12 15 11 16 16 19 18 13 10 15 15
31 30 29 30 29 29 28 27 28 29 28 26 27 26 31 23 16 15 13 10 6 7 3 4 5 4 4 8 4 6 8 4 5 5 7 8 5 1 14 11 11 9 15 10 3 13 6
33 32 31 31 31 31 30 30 30 29 27 27 26 23 30 18 9 8 5 16 6 4 2 4 4 4 4 3 3 4 12 5 4 6 5 7 2 9 10 9 7 4 11 20 15 5 4
33 34 34 32 32 32 32 31 30 31 29 27 25 25 29 28 9 8 4 15 12 2 1 3 3 5 4 3 5 6 6 4 10 3 2 3 2 4 4 5 7 2 5 9 9 8 7
35 35 35 34 33 34 34 32 30 29 27 27 28 24 16 7 14 10 22 21 8 4 5 5 4 5 4 4 4 6 5 1 3 3 4 7 4 5 3 4 2 5 13 7 4 3 4
35 36 36 35 34 35 32 32 30 29 27 27 29 29 14 16 3 23 24 7 4 2 2 5 4 5 4 4 3 5 4 5 3 2 2 2 2 1 3 1 2 1 3 2 3 3 3
35 36 36 36 37 36 33 31 30 30 30 29 35 47 25 20 18 29 15 2 3 3 4 2 4 4 4 2 3 3 3 2 5 4 2 1 4 3 3 3 1 5 2 2 4 3 3
35 35 36 37 37 35 33 31 31 30 31 30 29 6 15 23 31 28 4 2 4 4 5 6 4 3 3 1 2 2 0 3 4 0 1 2 3 1 2 1 1 1 3 2 5 2 3
35 36 36 37 36 35 33 31 33 31 29 40 15 10 14 29 31 15 1 2 1 3 4 2 4 1 4 3 1 3 3 1 1 4 1 2 4 3 1 3 8 6 1 2 3 3 3
37 36 36 36 35 35 33 31 31 29 32 31 7 4 17 22 20 3 1 2 2 4 1 2 3 4 2 3 2 3 4 1 2 4 3 2 3 2 1 3 1 3 2 3 3 2 4
36 38 37 37 36 34 33 30 29 25 26 12 3 3 18 24 3 1 2 2 3 1 2 3 5 4 3 2 3 2 2 1 6 2 2 2 4 3 1 2 2 2 1 0 3 3 4
38 39 36 35 35 33 31 27 23 21 20 5 2 3 11 2 2 2 2 3 2 2 0 2 3 3 2 3 3 3 3 3 6 4 1 2 4 2 6 5 0 3 3 3 4 3 2
39 40 39 37 36 34 31 26 21 14 15 4 2 3 3 2 2 2 2 3 3 4 4 6 4 3 3 4 5 2 3 2 5 4 6 3 3 3 4 3 2 3 4 4 4 3 2
41 42 41 42 40 37 30 14 10 8 5 3 3 3 2 3 1 3 2 3 3 3 3 6 4 3 4 3 2 2 1 4 2 7 4 4 4 3 4 4 2 2 2 3 4 2 3
43 45 48 49 50 38 16 5 3 5 16 5 2 3 2 2 3 2 4 2 4 3 5 3 6 2 3 5 2 2 2 3 1 6 4 4 1 2 5 6 5 4 4 4 3 2 3
44 48 51 49 37 17 7 19 15 19 11 6 3 3 3 3 2 2 1 4 3 5 4 4 4 5 7 2 1 3 5 5 3 2 2 3 3 3 2 4 3 4 2 2 2 2 3
41 46 49 40 32 22 22 26 24 26 11 11 4 3 3 1 2 1 5 3 4 4 5 3 4 4 0 2 4 3 7 8 8 7 2 3 3 2 2 4 3 4 1 2 3 3 1
36 41 42 36 30 28 25 25 33 16 11 17 7 4 3 4 2 3 3 3 4 6 5 4 5 2 1 4 4 4 4 4 5 5 7 4 4 3 3 1 3 2 3 2 2 1 1
31 35 35 30 28 23 21 27 19 16 11 9 12 8 4 5 2 3 3 3 3 2 4 4 3 2 4 3 3 2 1 1 2 5 5 4 5 4 2 3 1 3 2 2 1 3 1
27 30 28 18 16 22 23 22 13 12 12 12 12 6 6 4 2 2 1 2 1 3 3 2 3 3 3 2 3 2 1 1 0 2 1 3 3 2 2 1 5 3 4 3 1 2 2
25 24 23 11 11 8 11 13 12 11 10 13 13 9 4 3 2 2 3 3 2 1 3 3 3 3 3 3 2 2 2 2 1 1 2 4 3 2 1 1 5 1 2 2 3 0 2
22 22 20 7 9 7 4 4 3 6 10 5 7 10 13 5 3 3 6 8 3 2 2 2 3 1 3 4 1 2 1 1 3 2 0 2 4 3 6 4 1 1 1 1 3 4 3

GFSGBSN_925_spd_084.txt.gz
Wind_Speed
20 20 21 21 23 24 24 23 21 20 21 24 25 24 25 26 23 21 21 17 10 7 5 6 4 2 2 3 5 4 3 4 6 4 4 2 3 4 7 5 7 16 18 17 17 14 15
21 21 20 20 21 21 22 24 25 23 24 23 23 25 23 21 25 23 22 16 11 7 7 6 5 2 4 7 3 2 4 7 6 4 4 2 1 2 7 8 9 8 13 13 14 18 17
22 23 22 23 21 21 22 23 23 23 24 25 25 24 24 27 28 13 21 17 11 8 7 8 6 4 5 7 3 2 3 8 8 4 2 3 3 4 2 7 9 11 17 18 18 16 12
24 24 23 24 24 24 22 22 24 23 23 25 24 26 27 27 29 30 22 17 11 8 8 7 6 4 4 4 4 7 8 8 6 5 4 6 7 8 10 6 10 11 12 9 14 15 15
27 25 24 23 23 25 22 20 24 24 24 26 26 26 27 25 36 8 18 16 10 8 6 8 6 5 3 2 2 7 10 8 8 4 4 3 5 8 5 8 9 9 13 17 16 14 15
31 28 28 27 25 24 22 22 20 22 24 25 28 27 28 27 28 22 19 16 8 11 9 9 6 4 4 2 5 4 6 8 4 4 3 6 5 6 6 7 10 10 15 15 20 11 18
31 30 31 29 26 26 24 22 21 21 22 23 25 26 27 29 8 26 25 20 5 3 9 4 8 4 5 4 4 5 6 8 5 3 5 5 6 11 15 16 17 18 17 18 18 18 16
31 32 30 30 29 26 24 24 23 21 21 20 22 23 25 27 15 23 23 3 3 4 3 10 2 7 1 1 4 6 10 7 6 8 7 5 11 17 14 15 15 18 20 22 19 15 15
31 32 32 31 30 28 26 26 24 22 22 19 18 21 22 25 9 15 10 6 8 5 2 4 12 4 2 10 4 9 11 5 7 7 9 11 7 5 11 16 17 18 18 19 14 3 14
31 33 33 31 31 29 28 28 27 25 23 19 17 18 17 22 5 9 4 12 7 6 1 6 6 4 6 4 4 6 14 5 5 6 8 9 12 12 13 15 11 13 17 14 13 12 6
32 33 32 31 31 31 29 27 29 24 22 19 17 14 12 10 4 4 2 17 8 1 4 8 5 8 6 5 4 8 9 4 9 5 2 3 6 8 9 6 7 6 11 15 10 10 11
33 34 32 33 31 31 32 32 24 21 19 18 17 15 10 8 6 9 16 20 5 3 4 5 5 6 5 6 4 5 5 2 3 1 4 10 12 6 5 13 7 2 11 8 7 8 3
35 34 31 32 31 31 32 29 25 23 21 19 16 16 9 4 2 19 28 8 4 4 3 7 5 6 7 6 5 6 5 4 3 2 2 2 3 6 6 3 3 2 4 3 2 2 4
36 33 32 32 31 30 30 28 26 25 25 20 22 13 9 10 10 23 16 3 4 4 2 6 5 8 5 6 3 4 2 2 5 5 2 2 1 4 8 4 5 3 4 2 3 3 4
35 33 32 34 33 32 29 27 27 27 28 20 27 25 12 19 16 22 5 2 1 3 7 8 10 5 3 3 3 3 3 3 1 8 2 2 0 4 3 5 5 5 3 6 4 2 4
35 34 34 37 33 31 29 28 28 27 28 26 6 13 11 23 26 13 1 3 1 1 6 9 4 4 5 5 4 2 4 1 2 1 1 1 2 2 2 4 3 4 8 2 1 2 4
33 35 35 34 31 29 27 26 26 24 25 14 7 4 16 28 22 2 2 3 3 2 3 2 3 4 3 4 2 3 2 2 3 1 7 3 3 1 2 1 4 2 2 0 1 2 1
34 35 37 35 33 30 25 22 20 22 21 11 4 4 19 16 3 1 1 3 3 2 3 2 3 4 2 2 4 3 3 1 7 3 2 3 3 4 3 2 3 4 6 4 3 3 4
34 38 40 40 40 34 26 19 16 12 11 7 4 4 11 6 2 1 3 3 2 1 1 2 2 2 1 2 4 2 0 2 5 3 4 4 3 2 3 2 2 4 5 5 1 1 4
38 41 47 50 41 24 14 11 3 5 7 6 3 3 3 1 1 1 5 3 2 3 3 5 4 3 3 6 6 3 1 2 5 5 5 1 4 4 3 2 3 2 6 9 5 4 5
40 43 51 47 36 13 3 7 3 7 9 6 3 3 2 1 3 5 2 3 5 4 3 5 4 3 2 4 3 3 1 1 1 5 2 2 4 4 5 4 1 3 5 7 5 4 5
42 46 47 42 27 13 7 15 14 17 11 7 3 4 3 3 3 2 3 2 4 2 6 4 5 5 4 5 4 3 2 1 1 2 2 2 4 2 2 5 4 5 7 4 6 4 7
42 43 43 35 24 19 18 17 16 15 5 5 2 2 3 3 2 1 3 4 3 1 4 5 3 6 11 5 4 5 6 6 4 2 2 2 3 1 2 2 1 3 6 6 3 3 2
37 39 37 29 20 16 18 22 15 11 6 8 4 2 3 4 3 3 2 4 5 4 4 4 6 2 3 3 2 4 7 8 9 9 4 3 2 1 1 2 2 3 2 3 3 3 2
32 33 29 23 19 16 17 17 14 14 13 15 5 1 3 5 3 4 7 5 3 8 5 4 5 2 1 2 0 0 1 1 6 6 8 4 2 2 0 1 1 2 1 0 2 1 2
26 27 22 19 13 14 16 9 12 11 10 8 12 7 3 5 3 2 2 2 3 2 2 3 1 1 1 2 1 1 2 2 1 1 3 2 4 1 1 1 2 3 3 0 1 2 3
24 25 19 15 13 8 11 11 11 13 14 9 9 7 3 5 1 0 1 2 1 2 3 1 2 1 1 2 2 1 1 2 1 1 1 1 1 0 2 2 1 2 1 1 3 3 6
20 21 20 10 13 8 8 10 12 15 14 12 10 9 3 3 3 1 1 0 1 1 1 3 2 2 1 1 1 1 1 1 2 1 1 2 1 1 1 2 1 3 2 3 3 2 4
16 14 13 8 9 10 9 10 9 11 16 8 5 8 12 6 3 2 4 5 2 2 1 0 2 0 1 2 2 2 2 2 1 2 2 3 2 1 3 1 2 2 1 1 0 1 3

GFSGBSN_925_spd_087.txt.gz
Wind_Speed
21 22 22 23 23 21 20 22 23 23 22 22 24 23 22 20 22 22 24 24 22 17 11 10 8 5 3 5 4 7 7 7 7 3 2 4 7 8 11 7 10 15 16 19 18 18 18
21 23 22 21 21 21 21 22 21 22 24 21 23 22 22 24 25 22 21 23 23 15 13 12 10 7 7 7 5 5 6 7 5 5 3 4 4 5 10 13 14 12 15 15 16 17 19
26 27 26 25 24 24 24 22 21 20 23 23 22 25 23 24 25 24 19 16 20 14 12 13 10 9 8 3 6 5 5 7 6 6 4 3 6 6 7 10 10 13 17 19 21 21 22
26 28 29 28 28 25 25 22 21 21 21 23 23 24 27 26 27 27 26 20 20 14 13 13 9 6 4 4 6 6 6 6 6 6 3 5 6 10 11 10 14 16 18 18 17 19 21
26 27 28 28 27 27 24 22 22 20 21 22 21 23 26 28 28 36 18 21 18 15 13 10 6 8 2 4 6 7 7 6 8 6 6 6 6 10 5 7 8 9 14 18 18 16 16
24 26 28 29 29 28 25 24 23 22 21 22 23 22 24 27 38 6 25 22 16 14 10 6 5 5 5 5 8 8 8 6 5 5 6 5 4 7 8 8 10 12 11 15 17 14 14
22 25 28 26 27 27 26 23 23 22 21 22 23 22 21 23 25 10 27 24 7 4 7 5 5 1 10 8 10 6 8 9 6 6 7 1 5 12 13 16 17 16 18 22 21 18 17
23 25 28 27 28 26 26 23 23 22 23 23 21 21 20 21 22 12 15 2 4 5 4 11 3 3 6 5 5 7 9 7 8 10 3 4 14 17 16 15 16 18 21 24 23 22 15
22 24 27 26 26 27 25 24 25 19 24 20 20 18 18 19 16 20 4 2 8 5 3 8 10 5 4 7 4 12 11 5 6 9 9 13 11 12 12 14 16 19 20 22 20 16 16
28 25 28 24 26 26 26 24 22 28 18 16 14 15 13 16 1 4 1 1 5 1 3 7 8 5 6 6 4 5 12 4 4 8 10 12 15 14 13 15 14 18 18 24 19 10 7
27 29 26 26 26 26 24 25 21 23 18 15 12 12 12 7 8 2 4 9 6 3 5 8 6 8 7 6 7 5 6 2 7 5 3 5 7 8 15 8 3 9 5 9 14 13 9
28 27 27 27 27 27 26 23 20 17 15 12 9 6 9 6 5 4 4 9 5 2 3 5 6 9 8 7 4 5 2 4 3 4 5 12 18 13 6 15 15 5 4 2 7 6 5
30 28 27 27 28 29 27 24 21 18 17 14 10 8 12 4 1 4 13 5 2 4 7 7 7 8 10 7 6 6 4 4 4 4 3 3 6 5 7 8 9 6 3 4 5 4 3
31 30 29 30 31 29 26 24 21 22 20 14 9 8 6 6 4 10 12 1 5 4 4 3 8 12 4 7 3 4 3 4 9 7 4 4 1 6 8 6 8 12 8 5 2 2 3
30 31 31 31 33 28 26 24 22 22 24 22 15 7 3 3 6 16 2 4 4 2 5 8 12 7 3 3 1 6 1 3 2 6 3 4 2 7 7 9 7 7 4 9 3 1 2
30 30 32 34 31 28 24 22 21 21 15 22 18 15 7 9 13 8 1 4 2 3 6 13 4 1 6 7 4 4 3 1 1 1 1 2 4 7 5 6 4 4 7 4 2 3 5
32 34 36 38 36 32 24 19 16 15 11 16 12 5 8 16 17 2 2 4 2 1 2 4 4 5 5 5 3 2 2 4 6 4 8 6 6 4 4 4 5 1 7 4 3 2 3
36 40 41 44 38 24 10 9 10 7 4 12 7 5 10 16 2 1 3 3 6 7 3 5 5 4 5 2 3 3 2 2 3 2 3 1 5 2 1 2 3 3 9 9 5 7 4
39 44 47 44 30 14 3 2 4 5 8 8 4 3 6 5 3 1 3 5 4 3 4 2 3 3 1 2 2 3 0 3 5 2 4 4 3 4 1 5 4 5 11 11 1 3 9
42 45 50 41 25 11 4 7 9 12 11 9 4 3 1 2 1 3 5 3 1 3 8 6 5 5 2 5 2 5 3 1 4 5 2 4 4 5 6 3 4 7 12 12 8 5 10
41 43 47 38 25 13 10 11 8 9 5 2 2 3 1 4 4 5 4 2 8 5 4 3 3 3 2 3 6 4 2 1 1 3 2 4 3 3 4 4 3 5 7 10 11 9 6
39 39 42 34 28 19 16 12 10 7 8 2 2 3 2 7 4 5 3 3 6 5 6 7 8 5 3 7 6 3 1 2 3 3 4 3 2 4 2 5 3 4 7 5 8 8 7
35 35 35 32 25 21 18 14 10 14 8 3 3 1 1 2 4 3 3 3 5 3 5 6 5 6 8 6 7 7 7 5 4 5 4 3 2 2 2 4 3 3 8 7 4 5 6
29 29 27 25 20 19 22 19 20 20 13 4 2 2 3 5 4 4 4 5 6 6 3 4 6 1 3 1 2 1 4 4 6 6 5 2 2 1 2 3 2 3 3 2 4 2 4
25 24 24 20 15 11 18 19 22 21 17 7 4 2 2 7 7 7 6 6 5 7 5 5 6 3 2 5 2 2 2 2 3 4 6 5 2 2 3 3 1 1 2 3 5 2 2
19 18 16 14 9 9 14 18 22 26 20 6 9 5 2 7 2 3 5 0 3 3 3 3 1 3 4 2 1 2 2 2 0 1 1 3 3 3 2 2 2 4 4 1 2 3 2
17 16 13 12 9 4 7 13 20 25 24 9 7 8 4 3 2 2 2 2 0 0 2 3 1 2 2 3 2 2 1 2 2 3 2 2 3 4 3 3 0 4 3 1 3 4 2
13 13 9 9 10 11 9 8 11 18 23 13 7 13 5 2 3 2 2 1 2 2 2 3 3 4 2 2 2 1 2 1 3 1 3 3 2 2 1 3 2 5 3 3 3 1 0
9 12 9 5 9 12 11 12 9 9 13 16 5 11 10 4 3 2 2 3 4 3 2 2 3 1 2 2 2 1 3 2 2 2 2 3 2 3 3 2 2 4 2 2 1 2 1

GFSGBSN_925_spd_090.txt.gz
Wind_Speed
23 23 23 22 21 19 18 20 19 19 20 21 21 20 22 19 23 22 23 20 21 23 19 13 12 9 4 5 5 13 11 11 8 6 3 1 3 4 6 6 9 12 12 14 14 15 14
22 24 25 25 22 22 21 19 18 17 19 19 21 21 21 23 24 25 25 22 15 12 18 15 13 10 3 6 9 10 8 10 8 5 4 2 3 6 5 8 10 11 15 15 14 14 14
23 24 24 25 26 25 23 21 18 17 17 18 19 21 22 23 25 27 26 26 25 20 20 17 13 9 6 1 8 8 7 9 6 4 4 4 3 2 6 8 6 10 12 13 14 16 18
24 24 24 26 25 23 25 25 20 18 18 18 18 20 21 23 26 28 33 26 10 24 20 16 12 6 3 7 9 8 6 7 7 4 2 5 3 4 4 7 10 13 13 14 14 16 17
29 23 21 26 28 25 23 24 21 18 19 18 18 19 21 23 27 37 13 9 22 24 20 16 8 5 4 6 6 8 9 9 8 5 2 2 1 3 3 4 4 5 10 14 14 12 10
30 28 23 27 26 23 22 21 20 18 19 19 19 18 19 21 23 27 26 27 23 19 15 9 1 5 6 5 8 10 8 5 7 5 3 3 1 1 1 2 4 7 9 14 15 11 11
23 27 24 26 27 23 21 19 18 19 19 19 18 17 17 18 19 20 23 23 7 5 7 4 10 5 10 12 12 7 10 8 4 4 4 4 0 5 7 13 17 13 17 19 17 17 17
19 26 22 23 20 22 20 20 18 20 20 18 17 16 13 15 17 14 10 3 5 4 3 1 4 8 11 12 6 8 9 6 5 6 6 2 8 12 11 15 16 18 18 21 21 18 16
28 22 22 20 21 21 20 20 18 17 18 13 13 13 11 12 15 7 6 7 5 3 3 6 4 2 4 3 4 10 9 4 5 7 7 8 8 15 14 14 15 17 17 20 19 16 15
25 27 24 21 20 20 21 21 19 18 13 12 11 9 9 13 3 6 3 3 5 6 3 4 6 4 4 4 1 9 12 3 4 4 5 6 10 12 14 14 10 18 10 19 18 10 6
32 28 24 23 22 24 25 21 19 16 13 10 7 5 6 8 3 3 3 5 1 5 5 7 9 7 7 4 9 4 6 3 6 2 3 3 6 6 10 8 5 8 11 12 8 9 10
34 29 25 25 25 26 25 21 17 15 12 10 7 4 8 5 1 1 3 6 2 2 4 4 5 6 8 8 5 4 2 5 2 2 6 13 10 8 7 11 14 7 3 2 3 1 3
30 32 30 27 27 26 24 19 17 15 13 8 2 1 4 6 2 4 10 1 1 2 6 7 6 9 9 6 8 6 4 3 1 3 2 5 7 7 12 10 10 3 3 3 2 2 2
31 35 36 35 32 27 19 17 17 18 14 4 5 7 8 6 3 8 4 1 1 2 6 7 7 9 5 10 5 4 4 2 6 3 4 4 1 5 5 2 7 12 7 2 4 2 3
34 39 42 42 36 29 18 14 16 16 8 21 20 15 7 5 3 8 1 2 4 4 3 9 12 6 2 5 1 4 3 2 2 9 2 3 3 2 4 4 4 6 4 4 4 1 1
35 43 46 46 35 25 16 9 13 17 25 27 19 14 9 4 8 5 3 4 3 3 6 13 5 5 6 5 2 5 1 1 2 3 3 4 4 2 3 3 5 4 5 3 2 6 4
39 44 47 43 33 18 14 12 12 15 19 24 12 3 7 14 10 4 3 3 3 5 2 2 4 3 6 4 4 2 3 5 5 4 7 6 3 3 4 3 4 2 5 4 2 1 1
41 44 45 38 29 19 16 13 10 12 15 12 5 4 5 5 3 0 2 2 6 7 1 2 6 7 3 3 2 3 2 2 2 2 4 6 2 4 2 3 4 4 6 6 3 7 3
40 41 43 37 28 21 18 15 12 11 11 6 3 3 2 4 1 1 3 4 3 4 6 4 3 5 5 2 2 5 2 2 2 3 4 6 4 4 3 2 3 3 11 10 3 3 6
37 37 37 33 28 23 21 17 15 13 11 5 3 3 1 2 3 2 4 1 2 1 7 7 4 1 3 2 2 3 3 2 0 2 2 1 3 4 1 2 4 5 9 9 6 4 4
33 33 32 29 26 25 25 21 17 16 10 6 2 2 1 2 3 5 2 2 9 4 3 2 1 5 5 2 4 3 1 4 6 5 3 1 2 3 3 3 3 5 7 9 9 8 6
27 28 26 27 29 26 24 25 26 20 7 1 1 3 3 2 3 5 2 8 8 5 8 7 6 8 8 7 6 6 7 5 4 5 2 1 0 3 2 4 2 4 9 7 7 8 7
22 24 21 18 22 21 23 27 29 26 10 4 2 3 2 2 4 3 3 4 6 4 4 6 9 4 6 4 8 6 2 1 2 4 5 2 1 3 2 5 4 2 5 6 2 7 4
20 19 19 15 13 19 19 23 30 26 17 7 5 4 1 1 1 3 2 6 6 7 4 5 7 5 2 6 8 8 4 2 4 4 2 1 2 1 3 3 2 3 3 2 4 3 4
19 16 14 12 14 13 18 20 23 29 16 12 6 5 3 1 3 3 5 4 6 4 3 3 4 3 5 5 3 2 3 3 3 3 4 4 2 1 1 2 3 3 2 2 3 3 4
15 16 11 10 9 11 13 16 21 24 18 10 16 9 4 2 2 7 2 2 2 3 3 2 2 3 3 3 2 2 1 2 2 2 2 3 3 1 3 1 2 2 3 1 2 2 3
9 12 11 9 9 10 12 12 13 18 23 10 12 13 3 1 3 4 3 3 3 2 3 2 2 2 1 3 2 2 2 1 2 3 3 3 2 1 3 2 2 4 3 1 1 3 4
7 8 9 8 8 11 12 13 11 11 14 13 8 14 4 2 2 4 3 3 4 3 2 1 0 2 2 2 1 1 2 1 3 2 2 1 1 3 1 1 5 4 1 2 1 2 2
8 8 7 9 8 10 13 12 10 10 8 8 2 9 6 5 2 2 2 2 3 3 2 3 2 2 3 2 1 2 2 1 2 3 1 2 3 2 2 3 1 3 3 3 2 1 2

GFSGBSN_925_spd_093.txt.gz
Wind_Speed
23 23 23 22 22 22 23 23 21 18 16 15 16 17 16 16 16 16 16 15 18 16 14 19 15 12 7 2 2 14 12 10 10 5 3 3 4 2 2 4 5 3 3 7 7 8 11
27 23 25 22 18 21 21 21 20 19 15 16 17 15 17 17 19 19 19 18 16 16 8 22 17 15 3 2 10 15 12 11 8 3 5 3 4 1 2 3 1 5 9 8 6 8 7
35 34 30 22 21 23 22 20 19 18 15 14 15 16 15 18 19 20 21 22 19 17 12 23 18 12 3 3 13 12 12 9 7 2 4 8 7 4 4 5 5 7 6 9 11 9 9
40 28 24 15 24 23 23 20 18 17 14 13 11 13 15 17 21 24 34 22 20 15 25 22 18 7 4 13 13 12 10 6 8 4 10 7 4 2 1 3 6 4 3 3 4 8 10
26 26 25 28 22 21 20 19 17 17 15 14 12 11 13 16 20 24 16 4 16 32 27 24 13 4 5 12 10 10 10 8 8 8 3 1 1 3 2 2 4 3 4 5 7 4 7
29 28 26 24 22 23 20 19 18 18 16 16 14 13 12 14 17 23 3 25 27 29 21 12 6 5 6 6 10 10 11 15 5 7 2 1 2 2 4 4 3 4 5 5 11 4 15
27 26 29 26 22 22 21 19 19 19 19 17 13 12 11 12 14 14 11 22 7 6 4 1 9 8 11 14 14 9 7 6 4 2 1 2 4 5 8 7 7 6 9 14 19 15 14
29 30 29 25 23 21 20 19 19 19 17 15 9 9 8 10 14 5 7 3 5 5 6 12 6 14 20 14 9 6 9 3 4 3 2 1 7 10 9 8 8 9 10 20 20 15 13
32 27 24 24 23 22 21 20 16 15 14 10 10 8 7 10 9 12 11 5 5 6 5 5 5 9 5 2 8 7 6 3 3 4 6 8 8 13 8 9 8 9 9 17 18 21 14
29 25 25 26 25 24 21 19 15 12 10 9 8 6 10 7 6 6 4 7 2 6 4 3 2 1 3 1 4 10 12 0 3 3 6 7 7 5 6 9 4 14 8 15 12 6 3
28 27 27 27 27 21 21 19 14 10 7 6 6 6 12 10 4 4 4 2 4 3 5 2 5 5 5 1 9 3 4 1 2 2 3 6 4 2 5 8 6 10 10 11 12 5 4
30 32 32 32 30 28 20 14 11 10 6 5 3 5 7 7 10 8 9 3 5 4 4 4 4 3 4 3 3 4 3 4 2 3 3 11 4 4 7 7 13 10 5 3 3 1 3
31 35 36 35 30 26 18 10 13 10 3 2 1 4 10 7 3 5 6 2 2 5 1 5 4 5 4 5 5 4 3 2 2 1 3 2 5 3 3 5 5 7 5 2 2 2 4
36 41 39 31 24 25 19 17 17 12 6 10 9 11 12 10 6 10 3 1 6 5 4 4 5 6 3 5 2 5 4 2 5 4 3 3 7 2 5 3 3 7 3 3 4 1 2
41 43 36 27 26 27 24 25 20 12 18 16 18 12 9 11 4 2 2 5 3 2 3 6 10 3 1 6 3 4 5 2 4 8 1 3 4 4 4 3 2 2 3 3 4 2 1
45 39 31 25 30 29 28 29 29 26 22 19 15 10 10 10 5 6 3 4 2 5 1 6 4 5 4 4 2 3 3 2 2 3 4 3 4 6 4 1 8 6 4 3 2 5 3
41 35 27 28 30 29 26 23 20 18 13 7 4 3 7 8 7 3 5 3 3 6 2 3 4 5 5 4 4 2 3 2 4 3 6 2 1 6 3 4 3 3 5 3 3 3 1
36 31 26 27 27 26 24 17 14 11 4 10 3 3 4 12 3 2 2 3 4 4 3 3 5 4 3 4 3 2 3 3 8 3 4 7 3 4 7 2 2 2 6 3 3 6 3
33 26 24 26 27 23 18 15 12 15 15 3 2 1 3 5 3 3 2 5 1 5 5 4 2 3 2 2 3 2 3 4 5 4 3 1 3 4 8 6 6 4 11 7 1 2 4
29 25 24 28 27 24 21 17 10 12 13 3 3 3 4 3 1 1 2 3 4 2 4 3 2 2 2 1 1 3 2 4 5 4 5 2 0 4 4 5 4 6 8 9 3 4 2
24 19 20 21 24 24 24 21 14 10 7 3 2 1 3 3 3 3 4 1 4 4 6 6 5 6 2 2 0 1 2 1 3 3 2 4 0 1 4 5 2 3 5 8 8 4 4
18 18 15 19 21 22 25 26 21 12 6 5 2 2 2 3 4 2 4 4 4 3 4 5 5 6 9 5 4 4 5 4 1 5 2 2 2 2 3 4 3 1 6 5 6 7 6
15 14 13 13 17 21 23 26 24 17 7 4 4 3 3 5 6 3 3 2 4 1 2 4 2 2 6 3 4 6 5 7 3 1 2 1 2 3 4 4 4 3 1 3 2 4 1
15 13 12 11 12 14 19 23 27 20 11 4 3 2 3 3 2 1 3 3 2 3 3 2 4 3 2 4 6 5 6 6 2 3 1 1 1 2 3 4 3 4 0 1 2 3 4
13 13 9 10 11 11 13 16 21 23 13 11 5 2 3 1 2 4 1 1 1 4 2 1 2 2 3 3 3 3 3 3 4 4 3 1 2 1 2 1 3 2 2 1 2 1 1
10 11 10 9 11 12 13 13 14 18 14 5 11 5 2 3 1 2 4 3 2 1 4 2 3 4 2 2 2 0 2 2 3 7 5 2 2 3 0 1 3 3 2 1 2 3 1
10 10 9 9 10 12 14 14 12 12 15 8 9 7 3 3 2 1 2 2 4 3 1 3 4 4 2 2 1 1 3 1 2 3 2 3 2 3 2 3 5 2 4 3 2 4 3
10 9 9 8 8 10 13 15 12 9 10 10 5 10 3 2 2 2 1 3 1 2 1 4 4 4 3 2 1 2 2 3 2 4 3 4 3 3 2 1 5 5 3 5 4 2 4
11 9 8 8 8 9 10 13 12 8 7 8 3 6 3 3 2 2 5 5 4 8 4 2 3 0 1 1 2 2 2 1 3 3 1 3 5 3 6 5 4 6 4 3 4 5 4

GFSGBSN_925_spd_096.txt.gz
Wind_Speed
33 32 29 33 22 12 16 19 18 15 16 13 14 15 11 10 13 15 14 14 15 11 9 7 18 16 11 1 2 11 12 10 9 6 6 2 4 2 2 2 4 2 3 6 7 7 8
25 28 27 26 21 11 16 20 18 17 16 16 13 13 13 11 13 14 15 16 14 13 9 12 22 19 3 3 10 14 13 13 8 6 5 7 2 2 2 1 1 4 4 6 6 7 6
27 26 25 26 21 15 16 16 16 14 14 15 14 14 12 12 14 16 17 17 18 17 11 23 21 16 2 5 17 14 13 12 6 5 5 8 7 5 2 3 5 5 6 7 8 4 6
28 25 26 22 20 18 17 16 15 15 14 13 15 10 12 12 15 18 23 24 22 23 14 23 23 6 4 13 15 13 10 8 11 12 12 7 7 4 2 2 6 4 2 4 4 1 7
28 26 27 23 19 18 16 15 14 15 14 12 14 11 9 13 15 19 22 10 13 19 18 26 17 7 6 14 10 12 12 9 11 7 5 4 4 2 3 3 4 4 3 5 7 4 5
30 29 26 21 19 18 16 15 15 13 12 11 11 9 10 11 13 17 23 16 20 25 26 17 13 9 1 7 10 10 10 13 5 4 3 3 4 3 3 4 3 3 5 5 8 5 8
30 25 22 20 19 17 17 15 14 13 12 9 7 7 6 10 12 11 17 4 6 6 5 3 8 5 8 14 14 6 11 10 6 2 1 2 4 3 6 7 5 4 6 10 18 15 16
27 23 22 20 18 17 17 16 13 12 11 7 8 7 7 10 10 10 9 3 5 6 13 11 7 13 19 11 7 3 8 3 3 3 3 3 4 7 6 6 7 8 9 18 15 13 3
28 28 28 27 24 14 12 11 10 8 7 7 7 7 9 6 11 15 15 10 5 7 5 8 4 8 4 7 5 4 5 3 3 3 3 5 5 5 6 6 8 4 5 11 13 16 13
30 32 33 32 29 17 12 8 6 4 5 5 6 9 11 7 7 7 6 5 4 3 5 4 5 3 2 2 5 4 7 1 3 2 3 5 4 3 4 7 5 6 8 15 14 9 4
35 36 35 31 27 18 10 6 4 2 5 5 8 10 9 7 6 4 3 7 2 2 5 2 2 2 2 4 8 2 3 2 2 1 3 5 3 3 5 6 7 9 1 11 10 8 3
38 37 32 25 22 18 15 11 5 3 2 7 8 8 6 7 8 7 10 4 2 4 5 3 3 1 3 4 2 3 2 5 0 2 3 7 1 3 5 4 11 9 8 6 1 2 2
40 33 26 23 22 19 15 14 12 13 11 10 9 12 10 7 3 3 3 3 4 5 4 2 4 4 3 5 2 3 2 2 2 1 3 4 4 4 4 4 3 3 4 4 4 1 4
36 27 23 24 25 26 21 18 18 20 17 14 14 14 15 15 7 5 5 4 8 3 4 4 4 5 1 3 2 4 3 2 3 2 3 3 7 4 5 5 4 4 2 2 4 3 3
32 26 23 23 32 31 34 32 26 20 19 14 10 9 14 16 8 8 4 7 3 2 5 6 5 3 1 3 2 4 4 2 5 8 1 3 5 2 5 4 3 2 3 3 3 4 1
27 24 21 22 25 31 33 31 27 20 13 12 10 5 10 13 15 4 4 9 3 2 3 4 4 4 4 4 5 5 5 3 3 6 4 2 5 2 3 1 5 5 3 2 1 4 3
25 24 20 19 21 21 21 18 13 9 12 13 5 3 7 16 10 4 5 4 2 2 1 5 1 3 4 5 6 4 5 1 3 2 5 1 1 7 5 2 3 2 4 3 3 3 2
24 21 20 18 16 14 13 14 14 12 8 10 4 3 11 18 4 2 3 3 3 3 3 3 1 3 5 6 5 4 2 2 8 3 4 6 2 4 6 5 4 3 4 2 2 5 2
20 20 19 18 17 15 12 10 9 12 13 5 2 2 5 5 4 4 3 1 2 4 3 3 4 2 2 2 3 2 0 1 8 4 3 3 2 4 8 5 5 4 6 5 3 3 3
18 16 17 19 22 22 18 15 8 9 8 4 3 3 4 4 1 2 4 3 4 3 3 3 3 3 4 4 2 1 1 3 5 4 4 3 1 5 4 6 4 6 9 8 2 3 1
15 14 15 16 18 22 24 19 17 9 7 1 3 1 3 2 4 3 0 3 3 5 5 8 5 6 1 2 2 3 4 5 3 2 3 3 3 2 6 8 5 3 5 8 6 2 3
13 13 12 13 16 19 23 23 17 14 5 5 2 2 2 1 3 2 4 5 4 3 4 3 3 4 5 3 3 3 1 2 2 4 1 1 3 1 4 3 4 4 5 5 3 4 4
12 12 13 12 12 15 19 25 20 16 7 3 2 2 3 3 4 2 3 3 3 0 2 3 3 1 2 2 4 5 5 5 5 2 2 0 2 2 4 4 4 4 3 2 1 0 1
12 12 11 14 13 14 15 17 23 17 13 4 3 2 3 2 2 1 2 3 5 5 1 2 2 1 2 5 6 4 5 6 6 6 5 2 2 2 4 4 2 4 2 2 2 1 1
13 11 12 12 13 14 14 14 15 19 12 9 5 3 2 1 2 4 6 2 2 4 2 2 2 3 3 4 3 4 4 4 3 5 4 3 3 1 1 1 5 2 4 4 4 5 3
12 11 9 10 11 12 14 13 12 12 13 6 10 3 2 3 4 3 1 3 2 3 5 2 2 2 4 3 3 1 3 2 4 7 1 1 3 3 1 1 5 3 3 3 3 5 5
13 11 11 9 10 11 12 15 12 11 11 6 5 5 4 1 3 3 3 4 3 1 2 4 5 4 2 2 1 1 3 2 3 3 2 2 1 4 3 3 6 4 4 3 2 5 5
13 12 11 11 10 11 12 12 13 10 9 8 1 6 0 3 3 4 2 3 2 3 3 3 2 3 3 2 2 2 2 3 3 4 3 4 3 4 1 2 6 5 4 5 4 1 5
13 12 12 11 11 10 10 10 11 10 7 7 2 4 2 2 3 4 7 8 5 7 2 2 5 5 4 2 1 1 2 1 3 3 1 3 5 3 7 5 4 6 4 3 4 5 4

GFSGBSN_925_spd_099.txt.gz
Wind_Speed
26 27 27 25 20 16 12 10 10 11 11 12 14 13 10 7 5 7 8 10 11 12 11 11 20 17 11 3 2 9 11 10 9 10 9 4 5 2 4 2 4 0 4 6 7 8 8
24 24 23 22 20 18 15 13 11 10 13 12 11 9 10 7 6 9 10 10 12 12 12 11 19 22 2 4 10 12 11 11 9 9 11 9 4 3 4 2 2 3 5 8 6 9 6
26 25 25 23 18 16 15 13 10 9 9 10 11 10 7 7 8 11 12 13 13 12 12 9 22 14 5 4 13 11 13 10 9 12 7 9 6 6 1 2 4 4 6 7 7 4 5
29 27 24 19 17 15 13 10 9 9 8 7 8 11 6 7 9 13 16 17 18 19 17 11 22 3 4 5 14 13 12 17 16 17 16 10 9 5 3 1 6 4 2 4 4 1 4
29 25 21 20 18 16 14 11 9 9 8 6 8 7 7 7 10 14 20 18 13 18 17 16 19 4 7 10 8 10 11 9 14 11 11 9 6 3 5 4 4 5 3 4 8 4 4
28 26 24 22 20 15 16 12 10 10 8 7 7 5 6 9 11 12 18 16 21 20 19 16 13 7 1 4 8 9 10 10 5 6 4 6 5 3 4 4 3 3 4 5 9 5 4
29 31 30 29 26 15 11 10 9 8 8 5 8 8 8 9 12 9 8 21 8 5 7 5 6 7 12 13 10 6 10 7 3 4 3 4 5 2 5 5 3 1 5 12 15 13 8
33 35 36 34 31 20 7 10 8 8 7 6 7 9 9 6 13 12 13 3 4 4 15 15 16 14 13 9 6 4 9 3 2 2 4 5 1 6 2 4 5 6 10 14 13 11 7
38 38 34 32 28 18 5 2 8 8 5 6 10 11 8 7 7 17 13 10 8 7 7 5 5 9 2 9 4 3 3 0 0 0 2 3 4 3 4 4 6 7 9 9 11 9 11
39 35 31 29 27 21 10 11 8 4 7 9 9 12 8 8 9 9 4 5 5 10 5 5 6 5 4 2 4 2 1 1 1 2 2 4 3 3 4 5 7 6 10 15 12 10 5
36 33 29 26 24 22 17 11 10 9 11 10 10 11 15 4 7 5 6 4 8 5 6 1 3 4 1 3 7 2 4 2 2 2 5 5 2 2 4 6 6 10 4 6 11 8 5
33 30 31 25 19 19 18 14 13 11 12 14 16 12 9 14 16 8 8 2 5 5 5 3 2 1 3 3 2 2 3 5 0 3 4 7 1 4 6 4 9 10 6 3 0 1 2
32 29 31 30 26 22 20 19 18 17 17 19 18 18 18 11 4 5 2 0 4 5 3 1 3 2 2 3 2 0 2 0 1 4 4 5 4 3 3 4 3 4 4 4 5 4 3
29 25 27 28 29 26 23 22 20 20 18 16 15 14 18 17 12 6 2 3 9 3 4 3 3 4 3 2 2 3 1 1 1 3 3 2 6 5 6 6 3 3 1 1 5 3 3
27 24 22 22 25 26 25 23 19 16 16 15 9 8 13 15 21 8 4 7 3 1 4 6 5 3 2 0 1 1 2 2 5 7 3 2 5 4 5 4 2 1 2 1 4 4 3
25 22 20 19 19 22 18 16 14 14 15 14 5 3 8 22 17 2 4 7 3 1 5 3 3 3 4 2 2 2 4 2 1 7 3 2 5 2 4 1 3 2 3 2 0 4 4
22 20 18 17 16 17 17 17 17 19 16 11 5 4 14 23 8 6 5 4 4 1 2 4 3 4 3 5 4 3 3 3 4 3 6 1 1 6 3 2 2 3 3 2 2 2 2
18 19 19 20 19 18 17 15 16 17 17 9 4 4 21 18 5 3 3 3 3 2 3 2 2 3 6 5 5 4 4 4 8 6 5 5 1 5 6 3 1 3 3 2 2 3 1
15 16 18 20 23 24 20 17 15 15 14 5 3 2 9 8 4 4 4 3 1 5 4 1 1 0 2 5 3 4 3 2 7 5 4 3 1 4 8 5 4 2 2 3 4 1 0
11 12 15 18 20 26 27 22 18 14 11 5 3 3 4 4 1 2 5 5 5 4 2 3 3 2 1 2 2 2 1 2 7 5 4 3 2 5 5 6 2 6 8 4 2 2 2
11 12 12 14 18 21 26 27 23 14 8 4 3 1 2 3 4 4 3 3 3 6 4 6 2 3 2 1 1 1 2 4 3 2 2 3 3 4 7 9 4 6 7 7 3 2 2
12 10 12 13 14 17 21 25 25 21 6 4 4 4 1 1 2 4 4 5 6 5 5 5 3 4 4 1 1 2 1 0 1 2 3 1 3 2 5 3 3 6 8 6 5 2 1
13 11 9 13 13 14 17 20 24 21 9 3 2 2 4 3 3 2 2 3 4 2 1 1 3 3 4 3 3 4 4 4 4 3 1 0 1 3 5 4 6 7 6 5 3 4 4
14 11 11 9 12 13 15 16 18 20 14 4 2 2 3 2 2 2 2 1 2 2 3 3 0 1 2 5 4 2 4 7 6 7 5 2 1 1 4 5 2 4 1 2 5 6 5
12 13 10 9 10 11 14 15 14 16 13 7 2 1 2 1 1 1 2 1 3 5 2 3 2 3 2 4 4 4 4 4 1 4 6 4 3 1 0 2 7 3 4 5 5 6 8
13 12 11 10 8 8 10 13 14 12 13 5 7 2 3 3 4 1 2 2 2 2 5 3 3 3 3 3 3 2 3 3 5 8 4 5 3 3 0 0 5 4 1 2 3 5 4
13 13 12 11 9 8 8 9 11 12 10 8 2 4 1 2 3 4 4 4 3 2 2 4 5 3 3 2 1 3 3 3 3 3 2 2 1 4 4 4 8 5 3 2 2 5 4
14 14 12 12 10 8 8 8 8 10 9 7 3 3 0 2 4 6 4 4 2 2 4 3 2 2 3 1 1 2 2 3 1 4 4 5 4 4 2 3 7 5 3 6 5 1 3
15 14 13 12 10 8 7 7 8 8 9 7 2 2 3 3 3 5 9 9 4 4 4 1 3 2 3 3 1 1 3 1 3 4 1 3 6 4 8 6 4 6 6 4 4 4 5

GFSGBSN_925_spd_102.txt.gz
Wind_Speed
30 28 24 21 18 16 16 15 13 12 12 12 12 9 3 7 8 3 3 6 9 6 6 9 3 14 10 2 4 7 9 8 9 9 10 4 5 3 4 3 1 3 4 6 7 9 6
30 26 25 22 17 14 14 13 12 10 11 11 11 9 4 5 5 2 4 8 8 6 7 6 8 18 8 6 3 9 8 9 9 12 11 8 3 3 5 3 3 2 4 6 7 6 5
28 24 23 21 18 13 14 11 9 8 9 9 8 9 5 3 2 4 6 9 9 4 3 2 13 10 10 4 11 9 11 14 12 12 6 8 6 6 2 3 3 2 5 7 3 2 4
27 27 26 24 22 14 10 8 6 6 7 5 7 8 4 3 4 5 8 10 12 6 4 2 18 10 5 10 12 16 18 21 17 17 15 9 12 6 4 1 5 4 4 5 4 6 4
31 32 32 30 28 29 3 7 5 6 7 6 8 6 5 4 7 9 12 14 16 7 6 7 14 4 6 10 9 11 10 13 14 14 13 9 6 4 5 4 4 7 2 2 8 2 2
37 36 34 33 27 18 6 7 9 9 7 9 8 9 8 8 9 5 15 16 19 17 14 21 13 9 1 4 7 8 12 8 6 5 5 7 5 4 4 5 3 2 3 4 6 5 1
37 36 35 32 24 17 13 11 11 11 11 13 11 10 9 9 9 9 10 27 9 5 13 5 9 6 9 11 10 7 5 8 4 6 3 4 5 1 2 3 3 2 1 6 8 10 8
36 35 34 34 22 17 13 14 13 14 14 12 11 10 9 14 12 14 7 3 5 5 15 18 19 15 12 6 6 5 3 4 3 3 2 5 1 3 3 3 2 2 2 7 8 7 5
35 33 30 31 25 22 18 16 16 15 16 13 14 11 5 6 10 23 18 10 7 6 6 10 10 6 3 8 4 2 2 1 2 2 1 3 2 4 3 2 2 3 4 5 7 8 12
36 34 26 26 24 22 19 17 16 18 16 14 14 10 5 6 12 8 6 7 6 5 5 6 4 3 4 3 5 3 2 1 2 2 2 3 1 1 2 4 5 4 7 10 9 7 4
34 35 28 25 24 21 20 18 16 17 17 16 13 15 10 8 11 4 3 4 10 4 6 5 4 3 4 4 6 3 3 2 2 2 5 4 2 2 3 4 5 8 2 5 9 10 5
31 34 31 26 26 24 21 19 17 19 18 18 16 11 13 13 12 7 1 9 3 5 5 2 3 2 3 4 2 3 0 3 1 2 1 6 1 3 4 2 7 6 5 5 2 2 2
27 28 29 26 24 23 22 22 19 20 18 17 16 18 17 12 3 6 8 4 5 5 1 2 3 2 1 2 1 2 1 1 2 5 5 5 3 2 2 4 2 1 4 4 5 3 4
23 23 24 23 22 20 18 17 16 16 16 11 11 13 14 13 11 5 3 4 9 2 3 3 3 4 3 2 1 1 2 2 2 3 3 4 6 4 5 5 2 3 2 1 4 3 5
21 22 22 21 20 19 18 17 16 17 16 10 1 2 5 15 6 3 4 7 4 2 3 5 3 4 2 1 3 3 3 1 3 4 2 2 5 4 6 4 3 0 2 1 4 1 4
21 21 23 24 23 22 20 18 17 18 17 12 5 4 6 22 3 5 4 7 3 1 4 2 3 2 2 1 2 3 1 3 3 5 3 1 5 4 4 2 4 4 2 2 1 4 5
18 20 22 25 27 27 26 24 21 19 20 9 2 3 17 15 5 6 6 4 4 1 2 2 2 3 1 1 2 1 2 4 3 4 5 1 2 6 1 5 4 2 0 1 0 3 2
17 17 19 21 25 28 28 27 24 20 20 6 3 4 21 10 5 3 3 2 3 3 1 2 0 2 4 4 2 1 4 4 7 5 4 5 2 5 8 1 2 1 3 3 3 3 2
13 16 17 19 22 25 29 28 28 23 20 5 3 1 12 9 4 4 4 3 2 4 3 2 2 3 1 4 0 4 3 1 8 7 4 3 2 4 7 4 2 1 2 3 1 2 4
11 12 16 17 19 22 25 29 27 23 18 5 3 3 4 4 2 4 4 4 5 4 2 3 3 2 2 0 3 3 2 1 7 5 6 4 2 5 5 6 2 5 3 3 3 1 2
15 11 14 17 17 19 22 24 28 24 13 5 3 1 2 2 4 4 2 1 4 6 4 6 3 5 2 3 2 2 2 4 1 3 1 2 4 4 7 11 6 8 10 5 6 6 5
15 14 11 15 16 17 19 22 24 24 10 6 2 4 2 2 2 3 5 5 4 4 2 3 2 3 1 3 3 3 1 3 3 1 4 1 4 2 5 4 3 6 9 8 6 4 6
15 14 14 12 14 15 18 19 21 23 10 5 3 3 2 2 1 3 3 3 1 1 2 2 2 2 2 3 5 6 6 4 4 2 2 2 0 3 5 5 7 7 6 8 5 4 5
13 15 14 13 12 14 16 18 18 21 16 6 4 2 3 2 1 3 3 5 7 6 5 3 3 3 2 4 4 3 3 7 5 7 4 3 1 1 4 6 3 5 1 2 5 5 8
11 13 15 13 12 10 12 15 16 14 15 9 4 2 2 1 3 3 3 4 3 3 5 5 6 6 2 3 3 5 3 2 0 3 6 5 3 2 1 2 8 4 1 4 5 6 7
10 11 13 14 13 12 10 11 13 13 11 7 7 3 3 3 4 3 2 1 2 2 5 4 2 2 2 2 2 3 3 2 3 6 6 4 2 2 0 0 5 4 2 2 3 5 2
11 10 12 13 13 12 10 9 9 11 10 7 2 4 2 1 3 3 3 4 4 2 2 4 4 1 3 1 1 3 3 4 4 4 6 4 3 5 4 4 8 6 3 3 1 5 3
12 13 12 13 13 12 11 9 8 8 9 7 1 2 1 2 4 5 3 3 1 2 3 3 3 1 1 2 3 3 2 3 2 4 4 5 4 4 3 3 7 5 3 5 5 2 3
13 14 13 13 13 12 10 10 9 7 7 6 2 2 3 3 4 5 10 13 6 3 4 1 2 2 4 3 1 1 3 1 3 4 2 3 5 3 7 6 4 6 6 5 3 4 4

GFSGBSN_925_spd_105.txt.gz
Wind_Speed
26 23 23 21 17 14 9 10 10 9 9 9 10 7 2 3 7 6 4 3 5 2 3 2 19 22 14 6 5 5 9 7 9 9 8 3 4 4 5 4 3 3 1 4 4 7 7
27 28 28 27 23 19 4 8 8 8 7 7 9 8 2 2 1 7 2 3 3 3 3 3 18 21 10 11 3 8 8 9 10 14 11 7 3 3 6 3 3 0 3 5 4 5 4
33 33 33 32 28 27 7 5 7 7 8 8 7 8 4 2 1 4 2 1 1 3 8 10 19 24 15 8 7 10 14 16 13 15 8 7 7 5 3 3 2 1 5 5 3 4 4
34 35 33 30 26 18 18 10 9 9 10 9 7 7 4 3 1 5 5 4 4 4 7 3 12 18 6 14 17 19 19 17 16 17 17 11 13 7 4 3 5 4 4 5 1 5 1
33 34 31 25 24 22 18 15 14 13 12 11 9 7 6 5 4 6 7 7 10 8 8 17 6 9 8 9 10 11 10 13 15 15 14 10 7 4 4 4 3 6 1 2 7 1 2
32 32 27 24 23 21 19 19 17 16 15 14 14 11 11 9 8 10 7 18 16 18 19 17 9 10 3 3 4 10 9 8 6 3 5 7 5 3 3 4 2 1 1 3 5 3 3
30 29 25 26 20 21 19 18 17 17 17 17 14 12 13 10 9 17 30 33 7 6 11 5 8 12 7 7 5 5 5 7 4 6 4 4 6 3 2 3 4 4 1 3 5 6 4
29 26 24 25 22 20 19 19 19 18 16 15 14 10 9 13 11 11 15 5 5 6 18 20 22 17 11 4 5 5 4 3 5 4 1 5 3 2 5 4 3 2 2 5 9 7 5
30 28 25 23 22 19 18 17 17 17 16 15 15 8 13 12 13 22 27 10 7 5 7 8 7 7 2 6 4 3 3 1 3 4 4 3 3 5 1 1 1 2 3 3 6 7 9
31 30 28 25 22 19 18 17 18 19 20 17 17 7 5 6 14 14 13 6 4 2 5 7 6 5 4 3 5 3 3 1 4 3 2 2 1 2 2 3 5 3 8 7 6 6 4
29 29 28 25 22 20 19 21 21 22 20 18 13 16 18 8 10 3 6 5 10 2 6 6 4 2 3 5 5 4 4 4 3 2 5 2 2 2 3 5 6 3 4 6 8 6 4
25 26 26 25 23 20 18 18 19 20 22 21 20 18 13 19 17 7 6 11 3 6 6 3 3 2 4 5 2 2 3 4 2 3 3 4 1 3 4 2 5 4 3 2 2 2 2
23 22 22 22 22 21 19 18 18 20 18 14 15 18 15 11 2 8 12 2 5 6 1 2 2 1 3 3 4 2 3 4 3 4 5 4 2 2 2 2 2 2 3 3 4 2 4
22 23 24 22 22 20 18 18 19 19 15 10 9 14 12 11 4 4 3 5 11 2 4 1 2 4 4 0 3 2 2 2 3 2 2 2 3 5 5 4 2 1 1 2 4 3 5
20 22 24 26 24 24 25 22 19 15 13 7 6 5 6 14 2 2 5 7 2 2 3 4 2 3 4 2 3 1 4 3 4 6 4 3 4 2 4 3 2 1 1 0 3 1 3
18 19 21 23 28 29 27 26 23 20 15 6 2 3 6 9 5 4 5 7 3 1 4 2 2 1 3 2 1 2 1 3 2 3 1 0 4 2 1 2 2 4 2 2 0 3 4
18 18 20 23 25 28 31 29 28 23 18 4 2 3 11 4 5 6 4 3 3 3 1 2 3 2 1 2 3 1 2 2 1 2 1 2 2 5 2 4 5 1 2 1 1 2 2
16 18 20 20 23 26 29 31 30 25 22 6 2 4 13 7 5 2 3 2 1 1 1 1 2 2 4 3 1 0 1 3 4 4 1 1 2 5 7 1 2 0 3 4 2 3 3
18 16 18 20 21 22 25 28 30 24 21 5 3 0 7 2 4 2 1 2 1 3 3 3 3 3 2 2 3 1 1 2 6 5 3 2 1 5 6 4 1 3 3 3 3 2 5
20 18 17 20 20 22 23 25 29 23 15 4 3 3 4 4 1 5 3 2 2 2 2 1 1 3 3 3 1 3 2 1 6 5 5 5 3 6 5 6 2 5 5 4 4 2 2
19 20 18 17 19 22 24 24 27 23 13 3 3 1 0 1 3 4 2 2 1 2 1 3 3 4 1 1 2 2 1 3 2 3 2 4 4 5 7 14 8 14 15 8 8 7 5
18 19 19 18 16 19 23 24 25 25 11 7 3 3 3 2 4 2 2 3 4 3 4 1 4 2 4 4 5 4 3 4 4 1 4 1 4 2 6 6 5 7 11 12 14 8 9
15 18 19 19 17 16 20 23 24 25 11 6 3 2 2 1 2 2 2 2 4 1 3 2 4 2 3 7 8 8 7 4 5 6 5 5 2 2 5 4 9 6 5 7 5 5 6
13 16 18 18 18 16 16 18 20 21 17 5 3 3 3 2 1 3 1 1 2 3 4 3 1 1 3 4 4 2 2 6 5 6 5 5 3 1 4 6 4 5 3 5 7 6 8
12 13 16 17 16 16 15 15 16 16 15 8 3 2 3 0 2 3 3 3 2 2 2 3 3 3 3 5 3 5 3 2 2 5 7 6 3 3 2 2 7 2 2 3 2 6 4
11 12 13 16 16 15 14 13 13 13 13 8 6 3 3 4 4 2 2 1 3 2 4 4 1 1 4 3 2 3 3 2 2 0 6 5 2 2 1 2 5 4 2 4 4 4 3
12 11 12 14 16 15 13 12 11 11 10 9 4 3 1 2 3 5 4 4 4 2 2 3 3 1 2 2 1 3 4 2 3 3 4 2 2 6 4 3 8 6 2 2 2 5 3
12 11 11 12 14 15 14 11 10 10 10 9 3 3 2 2 4 7 6 5 2 2 4 3 2 1 2 1 2 2 2 3 2 4 5 7 5 4 2 3 7 5 4 5 5 2 3
14 12 12 11 12 14 15 12 9 8 9 9 2 2 3 4 4 6 12 11 7 7 5 2 3 3 4 3 2 1 3 1 3 4 1 4 6 3 8 6 4 6 6 4 4 5 5

GFSGBSN_925_spd_108.txt.gz
Wind_Speed
33 33 32 31 27 19 8 10 8 10 10 9 9 8 5 2 4 4 7 2 2 3 4 9 22 21 16 7 6 6 5 5 7 6 5 6 5 4 6 5 4 2 2 2 1 4 7
32 32 29 29 30 28 25 16 15 11 9 10 10 9 4 3 3 8 7 3 2 4 4 10 19 17 14 8 3 5 4 5 7 7 5 3 5 7 8 4 1 2 3 4 2 3 4
32 28 28 29 29 24 21 18 18 15 13 11 10 9 6 4 2 5 4 4 4 4 7 23 23 6 13 7 4 8 11 11 9 8 8 7 8 3 6 6 2 1 3 3 4 2 1
29 26 24 23 24 23 22 21 19 18 16 14 11 9 4 2 2 4 4 5 7 8 8 19 25 6 8 8 6 14 13 14 14 15 15 10 12 10 3 6 3 0 2 2 4 2 2
26 27 22 21 23 23 21 19 19 17 17 16 14 9 5 1 5 7 7 9 10 7 7 19 18 8 10 2 4 7 7 10 10 11 10 7 5 4 3 3 3 2 2 3 2 3 3
27 26 22 21 21 20 19 18 17 16 16 13 12 10 9 8 8 9 14 12 12 15 14 17 10 8 2 2 3 5 6 6 5 2 3 4 4 3 3 1 2 1 2 3 7 2 7
28 25 23 20 19 19 18 17 16 15 15 14 12 13 15 12 20 25 27 19 7 4 17 5 13 25 10 6 4 7 4 3 2 4 3 4 4 6 6 6 6 4 1 5 7 4 9
29 28 26 23 20 19 18 17 16 15 15 13 12 10 14 15 18 19 10 6 5 6 15 20 22 22 10 3 6 8 8 3 4 5 1 4 6 5 8 5 4 1 3 5 8 2 9
27 28 27 25 22 21 20 19 20 19 16 15 9 11 13 11 23 23 23 12 6 4 6 9 10 10 5 7 5 7 7 2 5 5 7 6 6 6 1 3 0 2 3 3 5 13 9
25 26 24 22 21 21 21 21 22 22 19 14 15 7 13 16 16 17 7 5 6 1 5 10 9 8 5 3 5 4 6 3 3 5 4 6 4 3 1 1 4 1 4 3 6 9 5
22 22 22 21 21 19 19 20 21 20 18 17 17 17 9 5 21 3 3 4 7 3 6 9 6 6 6 5 3 4 5 2 4 4 2 2 4 3 3 1 5 4 0 6 8 6 6
22 22 21 20 19 20 19 20 20 18 16 16 16 12 16 15 9 6 3 7 0 1 7 2 5 3 3 4 3 2 3 4 2 3 3 3 0 2 2 1 4 4 5 1 2 1 3
23 24 25 24 23 22 22 19 16 15 12 11 13 14 12 9 2 6 9 1 2 7 1 3 2 1 3 3 2 2 3 4 2 1 3 1 2 1 2 1 1 3 3 2 2 3 3
21 23 24 25 26 25 24 22 19 14 9 5 9 10 7 3 4 6 3 1 11 2 5 2 2 4 3 2 2 2 0 3 3 4 3 2 2 5 6 3 3 1 3 2 4 3 6
19 21 23 25 27 27 26 26 23 20 12 4 3 3 5 6 2 2 2 7 4 2 4 6 3 1 2 3 1 2 4 3 4 2 4 4 0 2 4 1 3 2 2 2 4 3 5
19 20 21 23 26 29 30 28 25 23 13 6 1 2 7 4 4 1 5 7 3 1 4 1 3 3 3 3 3 4 5 2 2 0 1 1 3 1 1 2 4 3 2 3 4 5 5
18 19 21 22 23 26 30 31 27 21 14 8 2 1 14 3 5 6 6 5 5 4 1 1 3 3 4 2 1 1 1 2 3 4 3 2 1 1 3 6 3 4 3 6 3 3 3
21 19 20 22 22 24 26 29 30 20 17 6 2 3 12 2 3 2 3 4 3 4 2 2 1 2 2 3 1 0 0 2 5 5 1 1 2 4 3 2 1 3 5 5 3 2 4
21 21 20 21 22 24 25 26 30 22 16 3 2 1 5 1 4 3 2 3 1 2 2 4 3 2 2 3 2 3 2 1 7 6 3 4 2 4 3 3 3 6 7 6 2 1 8
20 21 21 20 21 23 25 26 29 25 14 3 2 2 3 4 2 4 5 2 3 0 1 0 2 2 4 3 4 3 4 4 8 7 6 5 5 8 6 7 1 8 9 10 10 6 7
16 19 21 21 20 21 24 27 28 27 13 2 3 2 1 2 4 3 2 1 3 3 1 2 2 3 3 4 3 4 4 3 5 5 4 4 5 8 15 20 17 20 19 17 18 19 11
15 17 19 20 20 20 22 25 27 29 12 5 1 2 2 3 2 1 2 1 0 1 2 1 2 1 2 3 4 3 4 4 2 5 5 1 4 4 8 16 13 13 15 16 18 21 20
13 15 17 19 20 20 20 22 25 26 14 6 4 2 2 1 3 2 2 2 2 1 3 1 1 1 3 4 7 7 6 5 2 2 8 3 3 3 6 7 14 12 7 11 8 8 15
12 13 16 17 19 20 20 19 20 21 20 6 4 2 2 3 2 2 5 4 5 4 2 2 4 3 3 4 9 7 7 10 9 10 6 4 2 2 6 11 4 2 1 4 10 11 13
11 11 14 16 17 18 18 17 16 16 15 10 6 2 2 2 2 4 6 4 2 2 4 4 4 1 1 2 3 5 3 3 3 3 9 10 5 4 4 4 14 1 2 1 3 5 4
13 11 10 13 16 16 16 16 15 14 13 9 7 5 2 3 4 1 4 5 3 3 2 3 1 0 1 1 2 3 3 2 1 4 5 7 8 4 1 4 5 2 2 4 3 3 3
13 12 10 10 13 14 15 14 14 12 12 11 2 5 1 2 1 3 3 3 5 2 2 1 2 3 2 3 4 4 3 1 3 3 5 5 4 11 11 8 9 7 5 4 4 3 0
13 13 12 9 10 13 13 13 12 11 11 10 4 3 1 2 5 6 4 3 2 2 3 4 2 3 2 5 4 3 4 3 3 2 5 8 7 6 5 7 9 8 5 6 3 0 2
13 13 13 12 10 11 12 12 11 10 9 9 2 4 3 4 4 5 10 14 6 3 2 3 3 2 3 3 3 1 4 3 4 5 3 5 7 3 8 6 1 9 8 2 1 3 7

GFSGBSN_925_spd_111.txt.gz
Wind_Speed
28 28 30 29 29 26 22 18 12 12 11 11 11 11 9 9 10 9 9 2 1 3 3 12 18 22 10 7 6 6 3 3 2 3 7 6 9 5 7 6 5 3 4 1 0 3 7
27 24 25 25 25 23 20 17 14 14 12 12 12 7 7 7 6 9 8 2 1 2 3 22 21 19 8 9 9 6 2 4 4 3 5 3 3 3 7 5 2 3 1 1 2 2 4
25 23 25 25 23 22 21 19 17 16 13 10 6 7 9 10 11 13 8 3 3 2 6 25 19 22 13 6 9 6 6 7 7 6 6 7 5 1 6 5 2 2 2 4 4 2 3
25 22 23 22 23 22 21 19 19 18 16 14 11 10 7 8 12 9 5 3 4 7 19 21 25 28 6 7 8 7 9 11 12 14 12 10 9 7 3 6 4 3 3 5 7 3 3
25 22 22 21 22 23 22 20 19 18 16 15 13 11 8 4 3 4 4 5 6 6 16 23 23 18 4 8 5 6 6 10 10 9 9 6 4 3 3 3 3 6 5 5 7 3 1
25 25 22 22 22 22 21 20 18 17 16 14 15 15 10 4 4 8 9 10 15 11 24 27 18 9 4 2 4 6 6 4 5 5 4 2 2 2 2 3 2 4 4 3 4 5 6
26 25 24 23 23 23 21 21 20 17 15 13 12 16 14 13 15 20 17 14 6 5 13 7 12 18 10 5 0 6 4 2 2 2 2 1 3 4 5 4 3 2 2 5 6 5 10
25 24 23 22 22 22 23 23 23 18 15 13 14 15 16 23 26 17 11 6 4 7 15 21 18 14 6 3 7 8 4 1 3 3 4 3 4 5 5 3 2 3 4 5 6 1 10
23 23 22 22 22 22 22 24 24 21 16 13 10 12 16 17 13 18 19 12 7 3 6 8 8 8 4 5 6 9 7 1 4 6 2 2 8 4 0 2 3 1 3 5 5 14 12
23 23 23 22 22 21 22 21 21 20 18 14 10 14 19 18 13 9 8 4 3 3 4 9 5 7 6 3 5 7 6 4 2 5 6 6 3 0 0 1 1 1 1 5 8 10 4
23 24 24 24 24 24 21 19 18 17 16 13 13 9 2 3 22 5 4 3 8 3 5 8 5 2 4 5 2 6 7 2 6 5 2 3 4 2 1 1 2 4 4 8 8 5 7
21 22 24 25 26 26 25 21 17 14 13 13 10 10 20 11 6 5 3 5 3 1 6 3 4 3 5 9 5 1 1 3 0 4 5 4 1 2 3 0 4 4 5 3 3 2 3
19 21 22 24 25 26 26 24 17 12 9 9 9 7 4 5 1 5 5 3 2 7 3 4 5 5 8 6 5 4 5 7 3 3 4 1 2 2 2 4 5 5 4 2 2 2 2
19 21 21 22 25 28 25 24 21 12 5 4 5 2 1 1 6 7 5 1 10 2 5 3 3 7 5 5 5 5 3 5 6 3 2 1 3 5 6 3 5 4 4 2 3 4 6
19 20 22 22 23 26 28 26 22 17 6 3 3 2 3 7 3 3 3 6 4 4 5 6 3 5 4 4 3 1 5 3 3 4 1 1 1 2 3 2 4 3 2 3 3 4 4
19 19 21 22 22 24 26 28 25 20 8 4 1 2 6 6 5 5 4 7 4 3 6 3 3 2 3 2 2 3 1 1 3 1 2 2 0 3 3 3 4 3 1 2 3 4 5
20 20 19 21 22 24 26 27 24 21 13 3 3 2 7 5 4 5 4 6 6 4 2 2 2 4 3 3 1 2 2 2 1 2 2 3 1 3 2 7 6 4 3 4 3 4 4
20 21 21 21 22 24 25 27 27 20 17 5 3 1 8 3 2 3 5 4 2 4 3 1 1 3 2 1 2 1 1 0 4 3 1 2 3 4 6 3 2 6 10 9 5 5 7
18 20 22 22 22 24 26 26 28 21 15 3 2 2 4 3 4 4 4 4 1 3 3 3 2 2 1 2 2 2 2 2 4 3 3 2 2 4 2 3 4 6 10 13 11 6 13
17 19 21 22 23 23 25 26 28 21 12 3 2 2 3 3 3 8 7 3 4 2 1 1 0 2 3 3 3 1 2 2 3 3 4 1 3 7 8 11 10 10 8 11 14 10 13
17 18 20 22 23 24 24 26 27 23 9 2 3 3 3 1 2 3 1 3 5 4 3 3 3 6 3 2 2 3 2 3 5 6 4 3 6 8 16 19 18 20 20 19 20 20 17
17 17 19 21 23 24 24 24 26 25 8 5 2 1 2 2 0 2 2 3 4 2 3 3 4 1 3 4 2 3 3 4 4 7 8 5 4 8 10 18 15 17 18 19 20 22 24
16 16 17 19 21 23 24 24 24 26 10 5 3 1 3 3 1 3 1 4 6 4 4 3 3 4 6 7 4 6 8 9 7 8 10 7 4 4 7 9 16 16 14 18 14 13 15
15 14 15 16 18 21 22 22 22 22 18 6 4 3 2 1 3 3 1 2 5 6 5 3 5 5 3 2 7 10 11 14 14 15 12 8 7 6 7 12 5 3 4 3 10 14 14
12 14 14 15 15 16 19 19 19 18 16 7 5 4 2 3 2 5 5 5 4 5 5 7 7 3 3 4 4 5 4 4 6 11 13 13 10 5 4 7 17 19 3 5 6 7 8
11 11 12 14 14 14 15 17 16 15 15 6 7 6 4 4 2 3 2 4 7 6 5 4 1 1 2 3 3 4 4 2 3 4 2 8 12 7 5 5 5 4 8 4 3 6 9
9 9 10 11 14 13 13 15 15 14 13 9 3 6 3 3 2 4 4 3 3 2 4 1 3 3 3 4 5 5 5 1 4 4 6 5 5 13 12 9 10 13 9 6 3 2 4
12 11 10 10 10 12 12 12 14 14 12 10 3 5 2 3 5 5 4 5 3 4 5 4 2 3 3 4 3 4 4 3 3 7 4 10 7 6 7 8 11 11 9 7 3 4 1
13 13 12 12 11 11 11 11 11 12 11 9 2 6 5 6 4 5 12 13 10 7 4 6 2 1 3 4 3 3 4 3 6 5 8 6 10 4 10 7 3 14 11 11 3 4 5

GFSGBSN_925_spd_114.txt.gz
Wind_Speed
25 27 27 28 28 26 23 20 18 15 15 14 12 12 12 11 8 6 6 6 8 4 6 16 11 18 4 9 8 8 7 4 3 3 3 3 5 2 5 6 4 2 3 2 5 1 4
24 26 26 27 26 26 25 22 20 16 14 13 11 11 11 8 4 4 6 7 7 6 11 23 23 19 2 11 11 8 5 5 4 3 3 5 3 3 6 5 2 4 1 3 3 2 3
24 25 25 25 25 24 23 23 21 20 16 14 13 11 13 7 8 9 7 8 9 4 19 24 20 16 16 5 13 7 7 8 7 4 7 10 8 4 6 4 1 4 3 5 5 2 2
24 24 24 24 24 22 19 18 18 17 15 14 12 9 7 9 10 9 11 10 13 8 14 18 15 24 6 8 12 3 8 11 12 12 10 9 9 6 5 4 4 4 2 3 3 3 4
25 24 24 24 24 23 22 18 15 15 15 15 13 10 6 5 4 10 11 13 10 16 23 17 12 13 7 9 10 9 8 9 9 7 7 5 5 3 2 2 1 4 3 5 4 2 2
24 24 24 24 23 25 25 23 18 15 14 13 14 10 4 5 8 12 13 22 28 23 20 19 7 10 2 2 5 6 5 5 4 4 4 3 2 2 2 4 1 4 3 2 1 5 4
23 23 23 23 24 24 26 25 20 16 16 15 19 20 9 14 16 17 20 12 6 7 17 9 11 21 5 3 4 6 4 1 2 4 3 3 4 5 7 7 4 5 5 6 6 4 3
23 23 24 23 23 23 23 24 23 20 16 15 18 21 27 24 20 13 11 5 5 6 11 20 17 14 4 6 6 10 8 2 4 5 2 2 5 6 5 4 5 5 4 4 6 2 6
25 25 25 26 25 24 23 22 22 21 16 13 15 15 16 19 19 23 17 10 8 4 7 7 6 5 4 6 6 8 11 5 5 5 3 5 7 3 2 2 4 3 2 5 4 9 11
24 25 26 27 26 25 24 21 20 19 16 15 17 15 19 19 16 12 5 7 4 2 4 7 3 3 4 5 4 7 6 3 3 7 8 6 2 1 1 4 3 1 3 4 7 7 3
23 24 25 27 27 26 24 21 17 17 16 13 9 9 6 8 18 1 4 1 4 3 6 6 3 2 1 3 4 4 4 2 8 6 2 3 4 2 2 3 1 2 3 6 4 4 5
21 23 24 26 26 26 24 20 16 14 13 10 4 14 17 9 1 4 3 5 4 1 5 1 1 2 5 6 2 4 2 4 3 4 7 4 2 2 3 1 4 4 4 4 2 2 3
21 22 23 24 25 25 23 20 11 9 9 9 9 11 3 2 3 5 11 4 4 6 3 2 3 4 5 4 4 4 5 3 3 4 2 3 4 4 3 4 5 5 2 2 2 2 3
21 21 22 22 24 25 23 21 18 6 3 4 2 4 3 6 7 7 4 2 8 4 3 3 5 3 2 1 2 4 5 4 2 3 4 4 2 7 7 3 2 2 1 3 3 2 3
20 21 22 22 23 23 25 24 19 13 3 3 4 1 3 6 4 3 3 5 4 4 5 8 3 3 1 2 2 2 4 2 3 5 0 3 3 3 4 1 1 1 1 2 0 3 1
21 21 21 22 22 24 24 25 21 14 6 3 3 5 1 3 2 3 2 5 3 4 5 5 2 4 4 3 4 4 2 1 3 1 4 2 2 6 5 2 5 3 2 1 1 2 5
21 22 22 22 23 24 25 26 23 16 9 2 1 2 3 5 2 1 3 4 5 4 3 3 1 3 4 4 2 2 3 4 2 4 3 3 2 3 3 7 7 3 3 4 3 2 3
20 21 23 23 23 25 25 26 27 17 8 3 3 2 7 4 2 3 3 2 1 5 3 1 4 5 3 1 2 1 2 4 4 1 2 4 3 3 8 4 5 1 5 7 3 4 4
16 19 22 23 24 25 26 26 29 17 10 2 2 1 4 4 3 3 0 3 4 1 1 1 1 4 4 1 1 1 2 5 4 4 2 2 2 3 1 2 2 4 5 6 6 3 6
16 17 20 23 25 26 26 26 28 18 10 2 2 2 2 3 3 6 4 2 3 1 1 2 3 2 1 3 2 0 4 3 5 3 2 1 3 6 5 3 2 6 8 8 10 4 7
17 16 19 21 24 26 27 27 26 20 10 3 3 1 1 2 3 2 1 1 4 3 2 2 3 5 3 2 3 3 3 4 5 5 2 2 4 6 9 13 12 16 17 14 15 15 13
16 17 17 19 22 24 26 26 26 22 8 6 3 2 2 2 0 6 1 3 4 3 2 4 3 1 2 3 4 3 2 4 4 6 3 5 4 5 7 13 16 18 19 19 20 21 20
16 16 17 17 19 22 24 25 25 26 10 8 6 3 2 2 2 2 2 3 2 3 2 5 4 3 6 4 7 6 6 8 6 4 7 4 2 3 5 8 12 13 12 20 17 8 9
14 16 16 17 18 20 22 23 23 22 17 6 5 3 2 1 1 1 1 0 2 3 4 2 2 4 3 6 7 7 8 9 10 9 6 4 3 1 5 7 3 6 0 4 3 11 12
11 13 15 15 16 18 19 21 21 19 15 11 7 4 2 3 3 4 4 4 3 4 4 4 5 1 4 4 3 5 2 2 5 9 7 6 3 3 3 3 12 12 3 4 6 7 12
10 10 12 14 15 14 16 18 19 18 15 8 10 7 4 2 1 4 3 3 3 4 4 5 3 2 1 2 1 3 4 2 2 2 3 5 5 5 2 4 5 1 5 4 3 6 7
11 11 12 13 13 13 12 13 16 16 15 8 6 9 2 2 2 1 3 2 2 3 3 2 4 3 2 2 3 4 5 1 4 4 5 3 5 12 11 7 8 8 8 4 1 6 5
12 12 13 12 12 13 12 11 12 14 14 11 3 7 3 3 4 4 3 3 1 1 2 1 2 1 2 2 2 4 3 4 1 4 6 8 7 5 5 5 10 7 4 6 5 2 6
11 12 14 13 12 12 12 10 10 11 12 11 3 7 7 4 5 5 10 13 6 2 0 4 0 2 3 2 3 3 3 2 4 4 3 4 8 5 10 7 6 11 7 11 2 4 4

GFSGBSN_925_spd_117.txt.gz
Wind_Speed
23 23 24 23 23 23 23 23 19 17 16 14 15 15 12 12 12 12 12 10 7 8 17 19 21 27 7 8 4 12 11 7 6 7 6 5 2 2 5 4 4 5 3 5 5 3 1
23 23 24 23 21 20 20 20 21 17 15 13 13 13 10 11 11 12 11 11 7 14 19 19 23 18 9 9 9 11 11 6 5 6 9 8 2 4 6 4 4 3 5 6 4 1 2
25 25 24 23 22 20 17 17 17 16 15 13 11 13 11 15 16 13 11 8 9 23 21 24 21 28 14 3 14 9 10 11 10 7 4 11 6 6 3 4 1 4 4 1 2 2 0
25 25 25 25 25 24 19 14 15 15 16 13 9 10 12 15 14 13 12 13 13 20 25 23 21 23 4 11 12 10 9 10 8 8 9 8 9 5 4 3 3 3 3 2 1 1 1
23 23 23 24 26 26 23 16 15 13 13 12 8 9 11 12 13 13 14 17 26 20 18 17 14 11 3 10 12 13 11 6 7 7 8 7 5 4 3 4 5 4 0 2 1 2 0
25 25 26 25 24 25 23 18 16 15 15 14 10 10 11 12 14 22 33 34 28 24 15 12 11 7 5 2 6 7 6 6 3 1 4 6 5 4 5 5 3 1 1 2 2 2 2
26 26 26 26 26 23 22 20 18 15 17 20 19 20 17 18 23 17 17 6 6 6 19 8 11 15 5 1 4 6 4 4 1 4 3 4 9 3 2 3 3 3 2 2 3 2 3
26 27 27 27 26 24 21 20 19 16 17 19 26 23 20 17 16 13 9 6 2 7 14 16 10 4 2 1 4 12 11 1 1 4 3 7 3 1 3 4 5 5 3 3 3 2 5
24 25 27 27 25 23 21 20 19 16 16 16 17 18 16 17 18 25 21 13 10 6 5 5 3 2 2 7 4 7 7 3 5 5 4 6 4 1 2 5 5 4 4 2 2 6 4
23 24 25 26 25 23 20 19 18 17 13 15 12 19 18 23 16 9 6 5 4 1 5 9 9 5 4 2 4 5 7 2 6 5 6 6 1 1 3 3 3 2 2 2 4 5 2
22 22 23 24 24 23 19 17 17 15 13 10 12 6 5 2 10 2 1 3 4 1 6 5 4 4 5 4 3 6 5 5 4 3 4 3 3 1 3 3 2 2 1 1 2 2 4
22 22 22 23 23 22 20 15 12 12 9 3 4 11 16 4 1 2 6 7 2 3 6 1 2 3 3 2 2 1 3 6 2 6 6 3 1 2 1 0 1 3 3 1 2 2 2
21 21 21 22 22 22 20 16 9 8 9 8 13 11 1 4 1 4 8 2 5 7 3 1 2 1 3 1 3 2 2 2 3 5 4 5 1 1 1 2 1 2 4 3 3 1 5
21 20 20 21 21 21 21 17 12 4 3 3 4 7 8 7 8 8 2 5 10 4 3 3 1 2 3 4 0 3 3 2 2 3 3 4 5 3 4 3 2 4 5 4 4 2 4
21 21 20 20 22 21 20 18 12 4 5 5 4 2 6 5 6 2 4 6 6 5 4 4 1 2 0 2 1 2 3 2 2 4 4 4 4 2 3 2 2 2 0 3 2 1 3
20 21 22 22 22 22 22 21 16 8 2 7 2 2 4 5 2 4 5 5 3 2 2 3 1 2 2 2 1 3 4 1 2 1 2 3 2 4 2 2 2 2 2 3 2 2 5
20 20 22 23 23 23 23 24 19 11 3 7 4 2 1 1 1 5 4 3 4 5 6 3 4 3 3 2 1 2 3 1 2 3 1 1 4 3 3 6 7 2 2 4 2 4 4
18 20 22 24 24 24 24 25 23 13 3 2 1 3 2 3 4 3 2 2 2 0 2 3 2 4 2 3 1 1 3 1 5 5 1 2 3 4 9 5 8 5 7 6 4 4 4
17 20 22 24 26 27 26 25 25 15 9 1 2 1 0 2 3 2 1 1 1 4 4 2 1 1 1 1 2 1 3 3 5 3 2 2 2 3 6 5 3 4 5 6 3 2 7
20 19 21 24 27 28 29 27 25 13 9 2 3 2 4 4 2 6 3 3 1 1 1 2 1 2 1 2 2 1 3 4 6 3 4 3 2 6 6 4 2 4 6 7 8 4 6
20 20 20 22 25 28 29 28 27 13 9 3 3 1 3 1 3 2 2 1 3 1 1 1 2 2 1 2 3 3 4 3 3 6 3 4 4 3 7 9 8 13 16 15 17 18 11
17 19 20 22 24 26 28 29 27 20 6 7 3 2 3 1 1 2 0 3 3 2 4 3 3 3 3 3 2 3 3 2 5 2 5 3 4 2 5 9 9 14 17 18 21 22 20
13 16 18 20 22 24 26 27 27 26 12 6 5 2 3 3 0 2 2 1 1 3 1 4 2 1 4 4 2 5 4 5 6 7 7 5 3 2 5 5 10 10 10 8 6 6 14
10 13 16 17 19 21 23 25 25 23 19 7 6 3 3 2 1 2 2 1 1 2 2 3 2 2 1 4 6 5 6 8 7 7 7 4 4 2 4 5 3 6 4 6 9 8 15
9 11 14 16 17 18 20 22 22 21 15 15 11 4 2 2 1 3 2 2 2 2 3 4 3 1 2 4 4 5 4 3 2 2 7 7 5 2 2 2 11 12 4 3 4 7 8
6 8 11 13 16 16 16 17 19 19 16 9 16 8 2 2 3 3 1 2 3 2 4 2 2 2 3 2 2 2 3 4 2 2 5 4 3 4 1 2 6 5 2 3 3 6 5
6 7 8 10 13 14 14 14 14 15 15 8 8 13 2 1 3 1 2 3 3 2 2 1 2 2 3 2 1 3 4 2 2 3 2 2 2 10 9 6 9 9 4 1 3 6 3
6 6 8 9 10 12 13 12 11 11 12 9 3 8 4 0 5 3 2 3 1 1 3 3 3 1 2 2 3 3 3 4 2 4 6 8 6 5 4 5 10 5 3 7 6 2 5
9 8 8 9 11 10 11 12 11 10 9 8 2 6 6 4 5 5 11 14 8 4 4 2 2 2 4 2 2 1 2 2 3 4 1 2 7 5 11 9 7 8 8 9 3 4 4